     2              OBSERVATION DATA    GPS                 RINEX VERSION / TYPE
teqc 2000Feb29 Duncan Agnew 20000527 01:00:41UTC            PGM / RUN BY / DATE
                                                            COMMENT
L2: 1 -> 1; 5 -> 5; 60 -> 9                                 COMMENT
L2: 1 -> 1; 5 -> 5; 60 -> 9                                 COMMENT
L2: 1 -> 1; 5 -> 5; 60 -> 9                                 COMMENT
L2: 1 -> 1; 5 -> 5; 60 -> 9                                 COMMENT
L2: 1 -> 1; 5 -> 5; 60 -> 9                                 COMMENT
Original Marker Name: FRIN                                  COMMENT
Campaign Name: CSRC Post Hector                             COMMENT
4-Character Station Name: FRIN                              COMMENT
6-Character Antenna Code: TRMCMP                            COMMENT
Vertical Measurement Point: BPA                             COMMENT
Vertical Offset to Rinex Ref. Point: 0.0000                 COMMENT
Radial Measurement Point: RRP                               COMMENT
Radial Offset to Rinex Ref. Point: 0.0000                   COMMENT
Antenna Height from Field Measurement: 2.0000 m             COMMENT
Additional Antenna Identification Info.:                    COMMENT
Model 22020.00+GP                                           COMMENT
Original XYZ: -2308058.0281 -4807162.7028 3487361.4363      COMMENT
New XYZ position is based on association with SCEC monument COMMENT
E1D0J4A3+0011. Position of that monument is believed to be  COMMENT
valid to within 1 m horizontally; vertical accuracy         COMMENT
should be no worse than 3-times this value.                 COMMENT
                                                            COMMENT
Revised Rinex header created by UCSD GPS archive for        COMMENT
GSAC on 16-Jun-2000 (2000:168) 00:10:05 GMT                 COMMENT
For assistance contact dagnew@ucsd.edu                      COMMENT
or anderson@python.ucsd.edu                                 COMMENT
                                                            COMMENT
FRINK 1934                                                  MARKER NAME
FRIN                                                        MARKER NUMBER
-Unknown- NATIONAL GEODETIC SURVEY                          OBSERVER / AGENCY
11369 TRIMBLE 4000 SSE NP 7.29; SP 3.07                     REC # / TYPE / VERS
26291 TR GEOD L1/L2 GP                                      ANT # / TYPE
 -2308055.8487 -4807160.0486  3487357.1962                  APPROX POSITION XYZ
        2.0000        0.0000        0.0000                  ANTENNA: DELTA H/E/N
     1     1     0                                          WAVELENGTH FACT L1/2
     7    C1    L1    L2    P1    P2    S1    S2            # / TYPES OF OBSERV
     0                                                      INTERVAL
  2000     5    16    14    49    0.000000                  TIME OF FIRST OBS
  2000     5    16    20    30   15.000000                  TIME OF LAST OBS
                                                            END OF HEADER
 00  5 16 14 49  0.0000000  0  6G 2G 4G 7G 9G24G26
  21877618.7664     181092.66757    121116.75056                  21877624.7544
        21.0004         20.2504
  21389918.9534    -567372.11857   -382263.98856                  21389923.9804
        21.2504         23.0004
  21174076.0004     239441.97857    160369.22857                  21174080.7234
        22.2504         29.0004
  22377201.1414    -524677.79656   -344014.31956                  22377205.9344
        16.0004         15.5004
  23727694.7194    -798306.52755   -413205.62455                  23727703.4654
         8.2504          4.5004
  24161422.9064     446414.66654    230899.42454                  24161430.5394
         7.0004          4.0004
 00  5 16 14 49 15.0000000  0  6G 2G 4G 7G 9G24G26
  21880103.1644     194148.51747    131290.12046                  21880109.2814
        20.7504         20.7504
  21382440.9454    -606670.13447   -412885.77646                  21382445.7974
        21.2504         22.7504
  21177336.8054     256578.09747    173722.03647                  21177341.4104
        22.2504         29.2504
  22370282.8984    -561034.01046   -372343.80546                  22370287.6214
        16.2504         15.7504
  23716996.4844    -854525.67545   -457012.66145                  23717003.9414
         8.5004          4.5004
  24167437.9844     478023.93644    255529.95944                  24167445.0434
         7.0004          4.0004
 00  5 16 14 49 30.0000000  0  6G 2G 4G 7G 9G24G26
  21882605.6484     207299.22347    141537.40246                  21882611.5554
        20.7504         21.0004
  21374989.7194    -645825.47347   -443396.37846                  21374995.0744
        21.0004         22.7504
  21180614.8204     273803.67647    187144.55847                  21180619.3204
        22.2504         29.2504
  22363389.8364    -597256.29146   -400568.92246                  22363394.5704
        16.2504         16.2504
  23706308.9614    -910688.70645   -500775.97844                  23706318.4344
         8.2504          4.0004
  24173467.4224     509708.31744    280219.06044                  24173473.9964
         7.0004          4.0004
 00  5 16 14 49 45.0000000  0  6G 2G 4G 7G 9G24G26
  21885126.4064     220545.98247    151859.54246                  21885132.5234
        20.5004         20.5004
  21367565.9844    -684836.65047   -473794.65246                  21367571.1414
        20.7504         23.0004
  21183909.9064     291119.74447    200637.59147                  21183914.6414
        22.0004         29.7504
  22356522.6174    -633343.22346   -428688.59146                  22356527.0354
        16.2504         15.7504
  23695632.4774    -966794.13745   -544494.44044                  23695640.6844
         8.5004          4.0004
  24179511.8594     541468.70445    304967.34044                  24179517.9534
         7.5004          3.7504
 00  5 16 14 50  0.0000000  0  6G 2G 4G 7G 9G24G26
  21887664.9384     233886.72747    162254.90146                  21887670.8674
        20.5004         20.5004
  21360169.5944    -723705.45547   -504081.99346                  21360175.0554
        21.0004         22.7504
  21187221.9924     308523.89347    214199.26047                  21187226.8794
        22.0004         29.7504
  22349681.1484    -669296.72846   -456704.28546                  22349685.6134
        16.7504         16.2504
  23684966.7344   -1022843.73345   -588169.38144                  23684975.0004
         8.5004          4.2504
  24185569.5704     573302.44545    329772.82244                  24185575.9694
         7.7504          4.0004
 00  5 16 14 50 15.0000000  0  6G 2G 4G 7G 9G24G26
  21890222.3284     247325.00847    172726.25846                  21890228.2464
        20.2504         20.5004
  21352800.8594    -762428.15247   -534255.47746                  21352806.4614
        21.0004         23.5004
  21190550.9144     326019.36647    227832.08847                  21190555.8954
        22.0004         29.5004
  22342865.3834    -705113.10046   -484613.11546                  22342869.9884
        17.0004         16.5004
  23674312.0394   -1078833.65145   -631797.83244                  23674319.4964
         8.7504          4.2504
  24191641.7974     605212.67345    354637.87644                  24191648.4304
         8.0004          4.2504
 00  5 16 14 50 30.0000000  0  6G 2G 4G 7G 9G24G26
  21892797.5234     260857.24347    183270.84046                  21892803.5824
        20.2504         20.5004
  21345459.3674    -801008.07347   -564317.71046                  21345465.1214
        20.7504         23.0004
  21193897.1414     343602.29547    241533.07147                  21193902.0164
        22.2504         30.2504
  22336075.0474    -740795.66946   -512417.68346                  22336079.5234
        16.2504         16.2504
  23663667.8134   -1134767.28645   -675382.39044                  23663677.1564
         8.2504          3.7504
  24197727.5314     637195.31745    379559.36244                  24197733.5554
         8.0004          4.0004
 00  5 16 14 50 45.0000000  0  6G 2G 4G 7G 9G24G26
  21895390.3834     274482.81447    193888.13846                  21895396.3014
        20.2504         20.2504
  21338144.9144    -839445.67247   -594269.04446                  21338150.5044
        20.5004         23.2504
  21197259.5314     361271.77447    255301.49647                  21197264.3954
        22.7504         30.5004
  22329310.3204    -776344.93446   -540118.39246                  22329315.4654
        16.2504         16.2504
  23653035.1954   -1190645.18845   -718923.53945                  23653043.6374
         8.2504          4.5004
  24203827.4224     669249.31745    404536.48544                  24203835.0784
         7.5004          3.7504
 00  5 16 14 51  0.0000000  0  6G 2G 4G 7G 9G24G26
  21898000.7894     288200.76247    204577.42146                  21898006.6254
        20.0004         19.5004
  21330857.2894    -877741.64047   -624110.01546                  21330862.9144
        21.0004         23.7504
  21200638.2974     379026.47947    269136.32847                  21200643.1374
        22.2504         30.0004
  22322570.7814    -811761.64746   -567715.80446                  22322575.9964
        16.2504         16.2504
  23642412.1724   -1246467.89445   -762421.70144                  23642420.8714
         8.2504          4.0004
  24209941.0164     701373.25745    429568.06244                  24209948.4264
         8.0004          3.7504
 00  5 16 14 51 15.0000000  0  6G 2G 4G 7G 9G24G26
  21900628.8524     302011.53846    215339.03546                  21900634.6644
        19.7504         20.0004
  21323596.9384    -915895.26147   -653840.06946                  21323602.5634
        21.0004         23.5004
  21204033.0474     396866.66047    283037.76247                  21204037.8284
        22.0004         29.7504
  22315856.5314    -847045.03646   -595209.32746                  22315861.6524
        16.5004         16.5004
  23631799.4694   -1302234.62045   -805876.22944                  23631808.0044
         8.2504          4.0004
  24216066.7734     733567.19245    454654.20444                  24216074.1254
         7.7504          3.7504
 00  5 16 14 51 30.0000000  0  6G 2G 4G 7G 9G24G26
  21903274.7814     315915.40446    226173.19246                  21903280.7234
        19.7504         19.5004
  21316363.8674    -953906.17047   -683458.91046                  21316369.2114
        21.5004         24.0004
  21207444.2194     414792.23247    297005.73247                  21207449.0594
        22.2504         30.0004
  22309167.8834    -882194.76246   -622598.69346                  22309172.7704
        16.2504         16.2504
  23621198.3674   -1357945.03445   -849286.88945                  23621207.3134
         8.2504          4.5004
  24222206.2894     765830.78945    479794.61044                  24222212.9694
         8.0004          3.7504
 00  5 16 14 51 45.0000000  0  6G 2G 4G 7G 9G24G26
  21905938.1094     329911.22346    237078.99246                  21905944.0514
        19.7504         19.7504
  21309157.3984    -991775.09547   -712967.12846                  21309162.7194
        21.0004         23.2504
  21210871.3754     432801.87347    311039.20947                  21210876.2034
        22.7504         30.0004
  22302504.3524    -917211.86146   -649884.72046                  22302509.0394
        16.5004         16.7504
  23610607.8524   -1413599.88345   -892654.23644                  23610615.6374
         8.2504          4.2504
  24228358.9304     798162.57645    504988.15544                  24228365.3284
         8.0004          3.7504
 00  5 16 14 52  0.0000000  0  6G 2G 4G 7G 9G24G26
  21908618.8834     343998.68446    248056.21346                  21908624.9534
        19.7504         19.5004
  21301978.1484   -1029502.22347   -742364.84846                  21301983.6684
        21.0004         23.2504
  21214314.4454     450894.92947    325137.68447                  21214319.1094
        23.0004         30.2504
  22295866.0704    -952096.41146   -677067.45846                  22295870.7344
        16.5004         16.7504
  23600027.6024   -1469199.22745   -935978.31244                  23600037.4494
         8.0004          4.2504
  24234524.7424     830561.77445    530234.24544                  24234531.9304
         8.0004          4.0004
 00  5 16 14 52 15.0000000  0  6G 2G 4G 7G 9G24G26
  21911316.9384     358177.40946    259104.54446                  21911322.8914
        19.5004         19.5004
  21294825.7734   -1067087.73047   -771652.21646                  21294831.3404
        20.7504         23.5004
  21217773.0944     469070.77547    339300.66947                  21217777.8284
        22.7504         30.5004
  22289252.6564    -986848.58746   -704147.03546                  22289257.4384
        16.5004         16.5004
  23589457.8134   -1524743.19645   -979259.24645                  23589467.1804
         8.2504          4.5004
  24240702.6254     863027.52345    555532.16244                  24240707.9574
         8.0004          3.7504
 00  5 16 14 52 30.0000000  0  6G 2G 4G 7G 9G24G26
  21914032.1024     372444.07646    270221.39346                  21914038.0784
        19.5004         19.0004
  21287699.8524   -1104534.60847   -800831.56546                  21287705.7584
        20.5004         23.5004
  21221247.1334     487325.70047    353525.27347                  21221252.0664
        22.5004         30.2504
  22282664.2194   -1021471.48646   -731125.89546                  22282669.0594
        16.5004         17.0004
  23578897.7584   -1580234.84345  -1022499.42644                  23578907.0434
         8.2504          4.0004
  24246892.6254     895556.03745    580879.01144                  24246899.5204
         8.2504          3.7504
 00  5 16 14 52 45.0000000  0  6G 2G 4G 7G 9G24G26
  21916763.5474     386798.64246    281406.74146                  21916769.4184
        19.0004         18.7504
  21280600.6884   -1141842.71847   -829902.78046                  21280606.2894
        21.0004         23.2504
  21224735.7114     505659.54547    367811.37847                  21224740.5744
        22.2504         30.7504
  22276100.1954   -1055964.93146   -758003.87646                  22276104.9884
        16.5004         16.7504
  23568348.2424   -1635674.02545  -1065698.72245                  23568356.5314
         8.5004          4.5004
  24253094.5474     928146.86045    606274.40744                  24253100.6644
         7.7504          3.5004
 00  5 16 14 53  0.0000000  0  6G 2G 4G 7G 9G24G26
  21919512.6884     401244.27446    292663.03746                  21919518.7234
        19.5004         18.7504
  21273528.1644   -1179008.77847   -858863.31046                  21273533.3204
        21.2504         23.7504
  21228240.0084     524075.04047    382161.10947                  21228244.8954
        22.5004         30.2504
  22269561.7344   -1090325.72746   -784778.49646                  22269566.8094
        16.2504         17.2504
  23557808.9304   -1691057.38345  -1108854.52644                  23557817.5124
         8.5004          4.2504
  24259308.8834     960802.58945    631720.37744                  24259314.7664
         8.2504          3.7504
 00  5 16 14 53 15.0000000  0  6G 2G 4G 7G 9G24G26
  21922278.4384     415778.62546    303988.47446                  21922284.4494
        19.0004         19.2504
  21266482.1254   -1216034.71647   -887714.65946                  21266487.4694
        21.2504         23.5004
  21231759.3444     542569.53847    396572.40047                  21231764.2074
        22.2504         29.7504
  22263047.8444   -1124555.94446   -811451.36246                  22263053.1884
        16.2504         17.0004
  23547280.5004   -1746386.86145  -1151968.34745                  23547288.4734
         8.5004          4.5004
  24265534.9694     993520.43645    657214.75644                  24265540.7934
         8.2504          3.7504
 00  5 16 14 53 30.0000000  0  6G 2G 4G 7G 9G24G26
  21925061.3524     430402.31046    315383.51946                  21925067.3524
        19.5004         18.5004
  21259463.3284   -1252919.78947   -916456.23146                  21259468.6374
        21.5004         23.5004
  21235294.1954     561143.44947    411045.56647                  21235298.9884
        22.0004         29.5004
  22256558.8134   -1158654.82946   -838021.90246                  22256564.1214
        16.5004         17.2504
  23536761.9614   -1801661.64945  -1195039.55044                  23536770.6484
         8.7504          4.2504
  24271773.2274    1026300.68945    682757.73044                  24271779.1454
         7.7504          3.7504
 00  5 16 14 53 45.0000000  0  6G 2G 4G 7G 9G24G26
  21927861.0944     445115.01046    326847.91346                  21927867.0824
        19.7504         19.0004
  21252470.8594   -1289664.20047   -945088.20846                  21252476.0394
        21.7504         24.0004
  21238843.4454     579796.13447    425580.11247                  21238848.4494
        22.0004         29.7504
  22250095.1884   -1192622.47746   -864490.16446                  22250100.6844
        16.5004         16.7504
  23526253.3914   -1856881.76645  -1238068.14845                  23526262.1484
         8.7504          4.7504
  24278022.6804    1059142.52045    708348.72244                  24278029.9264
         8.0004          3.5004
 00  5 16 14 54  0.0000000  0  6G 2G 4G 7G 9G24G26
  21930677.4384     459915.70046    338380.88746                  21930683.2624
        19.5004         19.0004
  21245505.4384   -1326268.58747   -973611.07246                  21245510.5004
        22.0004         24.2504
  21242407.8754     598526.32347    440175.05847                  21242412.7504
        22.0004         29.7504
  22243656.0314   -1226459.78046   -890856.86846                  22243661.5044
        16.2504         17.2504
  23515755.9774   -1912048.01645  -1281054.76845                  23515764.0314
         8.7504          4.7504
  24284283.7114    1092044.41745    733986.49244                  24284289.6054
         8.0004          3.7504
 00  5 16 14 54 15.0000000  0  6G 2G 4G 7G 9G24G26
  21933510.3594     474802.49546    349980.95146                  21933516.1954
        19.0004         19.0004
  21238566.2114   -1362734.64947  -1002026.15846                  21238571.2854
        21.7504         24.0004
  21245986.0314     617331.90147    454828.74847                  21245990.9654
        22.0004         29.0004
  22237241.7194   -1260168.32646   -917123.24346                  22237246.7934
        16.5004         17.2504
  23505268.2894   -1967162.04945  -1324000.69245                  23505275.6994
         8.5004          4.5004
  24290555.3984    1125004.11745    759669.33543                  24290561.2814
         7.7504          3.0004
 00  5 16 14 54 30.0000000  0  6G 2G 4G 7G 9G24G26
  21936359.8834     489775.68946    361648.33746                  21936365.9414
        19.0004         19.0004
  21231653.1644   -1399062.03847  -1030333.18446                  21231658.3794
        21.2504         23.7504
  21249579.3204     636212.70547    469541.05247                  21249584.4184
        21.7504         29.2504
  22230851.7814   -1293747.71446   -943288.97846                  22230856.3054
        17.2504         17.5004
  23494789.6094   -2022223.36945  -1366905.56445                  23494798.5204
         8.5004          4.5004
  24296838.9064    1158021.36045    785397.01544                  24296845.8954
         7.7504          4.0004
 00  5 16 14 54 45.0000000  0  6G 2G 4G 7G 9G24G26
  21939225.8834     504836.16446    373383.72246                  21939231.7304
        19.0004         18.7504
  21224766.9924   -1435249.40947  -1058531.10746                  21224772.1024
        21.7504         23.2504
  21253186.5784     655169.46947    484312.55047                  21253191.7814
        21.2504         29.0004
  22224486.3674   -1327196.91246   -969353.25246                  22224490.8554
        17.5004         17.5004
  23484322.3674   -2077230.58445  -1409768.24645                  23484331.1374
         8.7504          4.5004
  24303132.1954    1191096.66545    811169.91744                  24303138.9104
         7.5004          3.5004
 00  5 16 14 55  0.0000000  0  6G 2G 4G 7G 9G24G26
  21942108.3134     519983.82646    385187.05246                  21942114.2424
        19.5004         19.0004
  21217907.3204   -1471296.76547  -1086619.93046                  21217912.4534
        21.2504         23.7504
  21256808.3914     674201.85347    499142.96847                  21256813.6884
        21.5004         28.5004
  22218146.1254   -1360515.78846   -995315.98846                  22218150.6954
        17.0004         17.7504
  23473865.5944   -2132183.75645  -1452588.86345                  23473873.8954
         9.0004          5.0004
  24309437.6414    1224229.35045    836987.55443                  24309445.1804
         7.5004          3.2504
 00  5 16 14 55 15.0000000  0  6G 2G 4G 7G 9G24G26
  21945007.1724     535217.42246    397057.35346                  21945013.2074
        19.5004         19.5004
  21211074.2034   -1507205.04047  -1114600.37246                  21211079.4534
        22.0004         24.2504
  21260444.1484     693308.22947    514031.04747                  21260449.3754
        21.5004         28.5004
  22211830.4534   -1393705.43846  -1021178.02946                  22211835.0704
        17.2504         17.7504
  23463418.7114   -2187083.85945  -1495368.12145                  23463426.0864
         9.2504          4.7504
  24315753.1334    1257417.87144    862848.66443                  24315761.0824
         7.2504          3.0004
 00  5 16 14 55 30.0000000  0  6G 2G 4G 7G 9G24G26
  21947922.5634     550537.92946    408995.38146                  21947928.4924
        19.5004         19.0004
  21204267.7814   -1542973.04947  -1142471.52146                  21204272.6684
        22.0004         24.2504
  21264094.3364     712489.27447    528977.30247                  21264099.3874
        21.5004         28.5004
  22205539.2194   -1426764.75946  -1046938.50546                  22205543.6954
        17.5004         17.5004
  23452980.8914   -2241929.60345  -1538104.98645                  23452988.4884
         8.7504          4.5004
  24322079.5164    1290662.67045    888753.63744                  24322086.3134
         7.5004          3.5004
 00  5 16 14 55 45.0000000  0  6G 2G 4G 7G 9G24G26
  21950854.4844     565944.75646    421000.65446                  21950860.5434
        19.0004         19.0004
  21197487.7974   -1578601.27447  -1170233.75146                  21197492.8134
        22.0004         24.2504
  21267758.2664     731744.21647    543981.13747                  21267763.2234
        21.7504         28.2504
  22199273.2584   -1459694.15146  -1072597.74146                  22199278.1094
        17.2504         17.5004
  23442554.7974   -2296721.40445  -1580799.83245                  23442563.4024
         8.5004          4.5004
  24328415.8284    1323962.73844    914701.67443                  24328422.1914
         7.2504          3.0004
 00  5 16 14 56  0.0000000  0  6G 2G 4G 7G 9G24G26
  21953802.8674     581438.92146    433073.99046                  21953808.9384
        18.7504         19.0004
  21190734.9694   -1614088.44047  -1197886.06246                  21190739.8204
        22.0004         24.5004
  21271436.6484     751073.83147    559043.16847                  21271441.5234
        21.7504         28.2504
  22193031.6564   -1492492.30746  -1098154.72646                  22193036.1684
        17.2504         18.0004
  23432138.9224   -2351457.77145  -1623451.46145                  23432146.7194
         9.0004          4.5004
  24334763.6334    1357318.58245    940693.19644                  24334769.9734
         7.7504          3.5004
 00  5 16 14 56 15.0000000  0  6G 2G 4G 7G 9G24G26
  21956767.6884     597018.81446    445214.11846                  21956773.6294
        19.0004         18.5004
  21184008.5944   -1649435.79247  -1225429.42246                  21184013.7034
        22.0004         24.7504
  21275128.5314     770476.21547    574161.90547                  21275133.3014
        22.0004         27.7504
  22186815.2344   -1525160.70246  -1123610.59346                  22186819.6054
        17.5004         17.7504
  23421732.7114   -2406140.13945  -1666061.03645                  23421741.8094
         8.7504          5.0004
  24341121.7734    1390728.24044    966726.65144                  24341128.7974
         7.0004          3.5004
 00  5 16 14 56 30.0000000  0  6G 2G 4G 7G 9G24G26
  21959748.7664     612683.26146    457420.14146                  21959754.7424
        19.5004         18.7504
  21177308.5474   -1684644.44047  -1252864.70347                  21177313.5864
        22.5004         26.2504
  21278834.4774     789949.82547    589336.13147                  21278839.3874
        21.2504         27.7504
  22180623.0084   -1557700.29646  -1148966.09246                  22180627.8834
        17.2504         18.5004
  23411337.1174   -2460769.52745  -1708629.32345                  23411345.8284
         8.5004          4.7504
  24347489.3524    1424190.15645    992800.79543                  24347497.9694
         7.5004          3.2504
 00  5 16 14 56 45.0000000  0  6G 2G 4G 7G 9G24G26
  21962745.7424     628432.97446    469692.59646                  21962751.7194
        19.7504         18.7504
  21170635.1884   -1719713.48247  -1280191.20247                  21170640.1914
        22.5004         26.5004
  21282553.8364     809495.12847    604566.21447                  21282558.7344
        21.5004         27.5004
  22174455.7814   -1590110.22546  -1174220.56046                  22174460.5744
        17.2504         18.5004
  23400951.9064   -2515344.88845  -1751155.50245                  23400961.7664
         8.2504          5.5004
  24353866.9224    1457704.46345   1018915.77144                  24353874.1214
         7.5004          4.0004
 00  5 16 14 57  0.0000000  0  6G 2G 4G 7G 9G24G26
  21965759.2814     644268.61046    482032.01646                  21965765.1884
        19.7504         19.0004
  21163988.3204   -1754641.90347  -1307408.12647                  21163993.2664
        22.2504         25.7504
  21286286.9454     829112.52447    619852.48347                  21286291.8554
        21.5004         27.7504
  22168312.9614   -1622389.69546  -1199373.36946                  22168317.4144
        18.0004         18.5004
  23390576.9224   -2569865.32845  -1793638.87545                  23390584.7544
         8.5004          5.0004
  24360254.7034    1491271.27344   1045071.69644                  24360261.7624
         7.0004          3.5004
 00  5 16 14 57 15.0000000  0  6G 2G 4G 7G 9G24G26
  21968788.9224     660190.04846    494438.29246                  21968794.9454
        19.5004         18.7504
  21157368.6334   -1789429.76647  -1334515.52146                  21157373.9884
        22.0004         25.5004
  21290033.8444     848801.63547    635194.63247                  21290038.7544
        21.7504         27.2504
  22162195.3444   -1654538.66346  -1224424.49646                  22162199.9614
        18.0004         19.0004
  23380212.6644   -2624330.78245  -1836079.42845                  23380220.7304
         9.0004          5.2504
  24366651.7194    1524890.16544   1071268.15444                  24366660.6294
         6.7504          3.5004
 00  5 16 14 57 30.0000000  0  6G 2G 4G 7G 9G24G26
  21971834.8914     676196.70246    506910.96146                  21971840.9384
        19.5004         19.2504
  21150775.3134   -1824077.34247  -1361513.60646                  21150780.5984
        22.0004         25.5004
  21293793.9534     868561.51147    650591.93047                  21293798.8054
        21.5004         28.0004
  22156102.6564   -1686557.53646  -1249374.23546                  22156107.4144
        18.0004         18.7504
  23369858.4774   -2678741.41445  -1878477.23345                  23369866.8014
         9.2504          5.7504
  24373059.0004    1558559.97144   1097504.28443                  24373066.9844
         6.7504          3.2504
 00  5 16 14 57 45.0000000  0  6G 2G 4G 7G 9G24G26
  21974897.2194     692288.12746    519449.69346                  21974903.1374
        19.2504         18.7504
  21144208.6254   -1858584.88147  -1388402.56946                  21144214.0164
        22.0004         25.5004
  21297567.2974     888391.52347    666043.87247                  21297572.1374
        21.5004         27.7504
  22150034.2664   -1718446.58846  -1274222.83246                  22150038.6844
        18.7504         19.0004
  23359514.6804   -2733097.50545  -1920832.57545                  23359522.8874
         9.5004          5.7504
  24379476.1954    1592279.95144   1123779.52344                  24379483.5944
         7.0004          3.5004
 00  5 16 14 58  0.0000000  0  6G 2G 4G 7G 9G24G26
  21977975.5944     708464.97146    532054.97646                  21977981.7464
        19.5004         19.0004
  21137668.8914   -1892951.55147  -1415181.76447                  21137674.1414
        22.0004         26.0004
  21301354.4064     908292.06147    681550.77347                  21301359.3634
        21.5004         27.7504
  22143990.7814   -1750204.94246  -1298969.57646                  22143995.1884
        18.7504         19.0004
  23349181.6024   -2787398.10145  -1963144.63345                  23349189.4104
         9.7504          6.2504
  24385902.6094    1626050.24244   1150093.97743                  24385911.1454
         7.0004          3.2504
 00  5 16 14 58 15.0000000  0  6G 2G 4G 7G 9G24G26
  21981070.2734     724726.61046    544726.33446                  21981076.2034
        19.2504         19.0004
  21131155.9454   -1927177.72547  -1441851.47447                  21131161.2774
        21.7504         26.2504
  21305154.5634     928262.21847    697111.92347                  21305159.3794
        21.2504         27.7504
  22137972.1884   -1781832.99646  -1323614.78746                  22137976.8284
        18.2504         19.2504
  23338859.3364   -2841643.54245  -2005413.74345                  23338866.8404
        10.0004          6.0004
  24392338.0004    1659869.84645   1176446.85643                  24392344.3284
         7.5004          3.2504
 00  5 16 14 58 30.0000000  0  6G 2G 4G 7G 9G24G26
  21984180.9534     741073.52846    557464.15546                  21984186.8014
        19.7504         18.7504
  21124669.7894   -1961262.79447  -1468411.23947                  21124675.1804
        21.7504         26.5004
  21308967.9924     948302.14047    712727.43347                  21308973.2304
        21.0004         27.5004
  22131978.4144   -1813330.21946  -1348158.06446                  22131982.9264
        18.2504         19.2504
  23328547.0234   -2895833.16845  -2047639.33945                  23328554.6564
        10.0004          6.2504
  24398782.7274    1693738.69145   1202838.09644                  24398789.0554
         7.7504          3.7504
 00  5 16 14 58 45.0000000  0  6G 2G 4G 7G 9G24G26
  21987307.8134     757504.78846    570267.68946                  21987313.8014
        19.0004         18.7504
  21118210.1414   -1995207.39147  -1494861.54147                  21118215.4734
        22.2504         26.7504
  21312794.3834     968410.53647    728396.29247                  21312799.6804
        21.0004         27.5004
  22126009.0314   -1844697.41646  -1372600.01346                  22126013.5664
        18.0004         19.5004
  23318245.9144   -2949967.65445  -2089821.98445                  23318253.8524
        10.2504          6.5004
  24405236.6254    1727655.27844   1229266.55744                  24405242.4844
         7.2504          3.5004
 00  5 16 14 59  0.0000000  0  6G 2G 4G 7G 9G24G26
  21990450.5944     774021.15346    583137.54946                  21990456.6054
        18.7504         18.0004
  21111777.5004   -2029010.72247  -1521201.76947                  21111782.7504
        22.0004         26.7504
  21316634.3444     988588.05747    744119.02347                  21316639.8284
        21.2504         27.7504
  22120065.1644   -1875933.61246  -1396939.89446                  22120069.5234
        17.7504         19.7504
  23307955.1564   -3004045.89345  -2131960.79445                  23307962.7194
        10.2504          6.2504
  24411700.4064    1761620.09644   1255732.56744                  24411707.6524
         7.0004          3.5004
 00  5 16 14 59 15.0000000  0  6G 2G 4G 7G 9G24G26
  21993609.7814     790622.45046    596073.57646                  21993615.6764
        19.0004         18.2504
  21105371.8134   -2062672.47047  -1547431.66847                  21105377.1334
        22.0004         26.7504
  21320487.2424    1008834.20247    759895.22547                  21320492.4224
        21.7504         28.5004
  22114146.3134   -1907038.68146  -1421177.59146                  22114150.9184
        18.2504         19.5004
  23297674.9224   -3058067.80445  -2174055.71945                  23297683.4224
        10.2504          6.2504
  24418172.6254    1795632.51745   1282235.67644                  24418179.7424
         7.5004          3.5004
 00  5 16 14 59 30.0000000  0  6G 2G 4G 7G 9G24G26
  21996784.6334     807307.54546    609074.91346                  21996790.7974
        19.0004         18.5004
  21098992.9454   -2096193.79547  -1573552.14547                  21098998.1844
        22.0004         26.7504
  21324352.6414    1029147.61547    775723.84847                  21324357.5164
        21.7504         28.5004
  22108251.6884   -1938013.61446  -1445313.87846                  22108255.9304
        19.0004         20.0004
  23287405.0634   -3112034.35945  -2216107.49845                  23287413.4804
        10.0004          6.5004
  24424654.4774    1829690.95945   1308774.66644                  24424662.4144
         7.5004          3.7504
 00  5 16 14 59 45.0000000  0  6G 2G 4G 7G 9G24G26
  21999976.0084     824077.20946    622142.14546                  21999982.1024
        18.7504         18.2504
  21092641.1334   -2129573.56647  -1599562.32247                  21092646.3714
        21.7504         26.2504
  21328230.9064    1049528.75447    791605.24547                  21328235.8634
        22.2504         28.5004
  22102382.2734   -1968857.50946  -1469348.06046                  22102386.6454
        19.0004         20.0004
  23277146.6884   -3165944.40245  -2258115.24445                  23277154.7774
         9.7504          6.5004
  24431144.0864    1863795.66744   1335349.69343                  24431151.0044
         6.7504          3.2504
 00  5 16 15  0  0.0000000  0  6G 2G 4G 7G 9G24G26
  22003183.3134     840929.63446    635273.85946                  22003189.4064
        18.7504         18.5004
  21086315.6954   -2162813.40347  -1625463.45647                  21086320.9924
        21.7504         26.7504
  21332121.7974    1069975.49647    807537.75647                  21332126.8014
        22.0004         28.5004
  22096537.7424   -1999571.98746  -1493281.40246                  22096541.9384
        19.0004         20.0004
  23266898.0394   -3219799.50045  -2300080.18345                  23266906.0004
         9.2504          5.7504
  24437642.2274    1897944.41944   1361959.02843                  24437649.2274
         6.2504          3.2504
 00  5 16 15  0 15.0000000  0  6G 2G 4G 7G 9G24G26
  22006405.9144     857865.98046    648470.95746                  22006411.7974
        18.7504         18.2504
  21080017.1954   -2195912.06447  -1651254.58947                  21080022.4924
        21.7504         26.0004
  21336025.5084    1090488.80047    823522.13447                  21336030.6174
        22.0004         28.5004
  22090717.9614   -2030155.69146  -1517112.83746                  22090722.4144
        19.2504         20.5004
  23256660.5394   -3273598.25345  -2342001.20345                  23256668.2894
         9.0004          6.0004
  24444149.3364    1932138.00743   1388603.29743                  24444157.7894
         6.0004          2.7504
 00  5 16 15  0 30.0000000  0  6G 2G 4G 7G 9G24G26
  22009644.5944     874886.29346    661733.48946                  22009650.5824
        18.7504         18.0004
  21073745.6334   -2228869.23347  -1676935.46047                  21073750.8484
        21.5004         26.2504
  21339941.5944    1111068.37247    839558.14547                  21339946.6804
        22.2504         28.5004
  22084922.8444   -2060608.54746  -1540842.32146                  22084927.2624
        19.0004         21.0004
  23246433.3674   -3327340.32845  -2383878.06945                  23246441.6334
         9.2504          5.5004
  24450664.5164    1966375.83944   1415282.05243                  24450672.2424
         6.5004          3.0004
 00  5 16 15  0 45.0000000  0  6G 2G 4G 7G 9G24G26
  22012899.6334     891990.31846    675061.25946                  22012905.6334
        18.5004         17.7504
  21067500.8134   -2261685.10447  -1702506.23546                  21067506.3204
        21.2504         25.5004
  21343870.2814    1131713.67847    855645.38047                  21343875.2154
        22.7504         28.7504
  22079152.7344   -2090930.59446  -1564469.87446                  22079157.2114
        18.7504         20.7504
  23236217.1334   -3381025.88245  -2425710.88845                  23236224.2274
         9.2504          5.2504
  24457188.5554    2000657.31444   1441994.82243                  24457195.1054
         6.7504          3.0004
 00  5 16 15  1  0.0000000  0  6G 2G 4G 7G 9G24G26
  22016170.4304     909178.77546    688454.82646                  22016176.5124
        18.7504         17.7504
  21061283.1804   -2294358.61447  -1727966.07147                  21061288.6884
        21.7504         26.0004
  21347811.5474    1152425.18847    871784.20847                  21347816.3984
        22.2504         29.2504
  22073407.5474   -2121120.96946  -1587994.82446                  22073412.1294
        19.0004         20.2504
  23226012.1254   -3434653.76845  -2467498.79745                  23226020.3094
         9.5004          5.5004
  24463720.0394    2034982.74444   1468741.83943                  24463726.4494
         6.5004          3.2504
 00  5 16 15  1 15.0000000  0  6G 2G 4G 7G 9G24G26
  22019457.0864     926448.80046    701911.94546                  22019463.2154
        18.5004         18.0004
  21055092.4774   -2326892.46347  -1753317.07947                  21055097.4694
        22.2504         26.5004
  21351764.9614    1173199.80247    887972.20447                  21351769.9534
        22.5004         29.5004
  22067687.2734   -2151182.19946  -1611419.13646                  22067691.8794
        18.5004         21.0004
  23215817.7424   -3488226.69245  -2509243.84645                  23215825.3754
         9.7504          6.0004
  24470259.9534    2069348.82044   1495520.51444                  24470267.2114
         6.2504          3.5004
 00  5 16 15  1 30.0000000  0  6G 2G 4G 7G 9G24G26
  22022759.1094     943802.03946    715433.91146                  22022765.0514
        18.2504         17.7504
  21048928.2734   -2359284.71547  -1778557.76147                  21048933.3364
        21.7504         26.7504
  21355730.7974    1194038.89847    904210.44847                  21355735.6134
        23.0004         30.0004
  22061991.6644   -2181112.51346  -1634741.45046                  22061996.2584
        18.5004         21.0004
  23205634.0474   -3541742.60745  -2550944.48145                  23205642.1724
        10.0004          6.0004
  24476807.6254    2103756.69344   1522331.78943                  24476813.8714
         6.7504          2.7504
 00  5 16 15  1 45.0000000  0  6G 2G 4G 7G 9G24G26
  22026076.9304     961237.96446    729020.30846                  22026082.9304
        18.2504         17.5004
  21042791.1334   -2391535.80147  -1803688.43647                  21042796.3134
        22.0004         26.5004
  21359708.1954    1214941.67147    920498.31247                  21359712.9534
        22.7504         29.7504
  22056320.8284   -2210912.25246  -1657962.00946                  22056325.5164
        19.0004         21.0004
  23195460.6884   -3595201.88045  -2592600.97145                  23195467.8634
        10.2504          6.2504
  24483363.2734    2138205.42344   1549174.86143                  24483368.9104
         6.7504          3.2504
 00  5 16 15  2  0.0000000  0  6G 2G 4G 7G 9G24G26
  22029410.9924     978757.53046    742671.88446                  22029417.0864
        18.5004         18.2504
  21036681.3134   -2423644.40447  -1828708.08247                  21036686.6094
        21.5004         26.0004
  21363698.0084    1235908.92547    936836.41447                  21363702.9654
        22.5004         29.2504
  22050675.2274   -2240580.26546  -1681079.92646                  22050679.7854
        19.0004         21.2504
  23185299.0634   -3648603.11845  -2634212.26045                  23185306.4734
        10.2504          6.2504
  24489925.8524    2172695.48244   1576050.15343                  24489932.9694
         6.7504          3.0004
 00  5 16 15  2 15.0000000  0  6G 2G 4G 7G 9G24G26
  22032760.9384     996361.53146    756389.24446                  22032767.1134
        18.0004         18.0004
  21030598.2894   -2455609.68247  -1853616.04947                  21030603.4104
        22.0004         25.7504
  21367700.3914    1256941.07647    953225.08147                  21367705.3714
        22.7504         29.0004
  22045054.9844   -2270115.65546  -1704094.49846                  22045059.5784
        18.7504         21.7504
  23175148.2114   -3701945.44745  -2675777.62545                  23175156.1954
        10.0004          6.2504
  24496497.7274    2207227.36544   1602958.04643                  24496505.0784
         6.5004          2.7504
 00  5 16 15  2 30.0000000  0  6G 2G 4G 7G 9G24G26
  22036126.3524    1014047.52546    770170.49546                  22036132.5864
        18.0004         18.0004
  21024542.2424   -2487433.85847  -1878414.07347                  21024547.3054
        22.0004         26.5004
  21371714.7194    1278035.52647    969662.30447                  21371719.5824
        22.7504         29.2504
  22039459.2114   -2299520.65546  -1727007.47246                  22039463.7814
        19.0004         21.7504
  23165008.1334   -3755230.83445  -2717298.62245                  23165015.7664
        10.0004          6.2504
  24503076.1334    2241798.15243   1629896.20943                  24503082.5434
         6.0004          2.5004
 00  5 16 15  2 45.0000000  0  6G 2G 4G 7G 9G24G26
  22039507.7114    1031815.69446    784015.77746                  22039513.7114
        18.2504         17.7504
  21018513.2664   -2519116.43347  -1903101.75147                  21018518.1644
        21.7504         26.2504
  21375740.4064    1299192.14147    986147.96047                  21375745.2814
        22.2504         29.2504
  22033888.5234   -2328794.94046  -1749818.58046                  22033893.0474
        19.0004         22.0004
  23154879.0784   -3808458.98645  -2758775.03745                  23154887.0394
        10.2504          6.7504
  24509662.2114    2276407.55143   1656864.54343                  24509669.3634
         6.0004          2.5004
 00  5 16 15  3  0.0000000  0  6G 2G 4G 7G 9G24G26
  22042904.6564    1049666.63846    797925.56946                  22042910.6454
        18.2504         18.2504
  21012511.1644   -2550656.73847  -1927678.56647                  21012516.4264
        21.7504         26.5004
  21379778.6334    1320411.18347   1002682.26847                  21379783.5554
        22.5004         28.7504
  22028342.7424   -2357937.77146  -1772527.26546                  22028347.2664
        19.5004         22.0004
  23144761.5234   -3861629.01145  -2800206.15745                  23144769.3444
        10.5004          6.2504
  24516255.8914    2311055.69744   1683862.98543                  24516262.5004
         6.2504          2.7504
 00  5 16 15  3 15.0000000  0  6G 2G 4G 7G 9G24G26
  22046317.6564    1067600.74746    811900.16146                  22046323.8204
        18.0004         18.2504
  21006536.5234   -2582054.08047  -1952143.98447                  21006541.7624
        22.0004         26.5004
  21383828.3134    1341692.91347   1019265.42147                  21383833.3404
        22.5004         28.5004
  22022822.2504   -2386948.60746  -1795133.09346                  22022826.4924
        19.7504         22.0004
  23134654.3674   -3914740.21345  -2841591.44345                  23134663.0314
        10.5004          7.0004
  24522856.3364    2345742.59344   1710891.67643                  24522863.3484
         6.2504          2.7504
 00  5 16 15  3 30.0000000  0  6G 2G 4G 7G 9G24G26
  22049746.1884    1085618.97546    825940.29646                  22049752.5394
        18.2504         18.0004
  21000589.1094   -2613307.44447  -1976497.21247                  21000594.1844
        22.0004         27.2504
  21387890.0634    1363037.92647   1035897.88247                  21387895.0314
        22.2504         28.5004
  22017326.9774   -2415826.26746  -1817635.14946                  22017331.3244
        19.5004         21.7504
  23124559.0784   -3967791.34345  -2882929.89645                  23124567.2154
        10.5004          6.7504
  24529464.6414    2380468.67944   1737950.91243                  24529471.4024
         6.7504          3.0004
 00  5 16 15  3 45.0000000  0  6G 2G 4G 7G 9G24G26
  22053190.6024    1103718.38946    840043.69446                  22053196.6374
        18.2504         17.5004
  20994668.7424   -2644419.52147  -2000740.35647                  20994673.7584
        22.0004         26.5004
  21391963.3204    1384443.08347   1052577.20647                  21391968.4304
        21.7504         28.2504
  22011856.7034   -2444573.57446  -1840035.63646                  22011861.3554
        19.5004         22.0004
  23114474.7974   -4020785.17045  -2924223.71845                  23114482.8284
        10.5004          6.7504
  24536080.4144    2415230.58544   1765038.01243                  24536087.1994
         6.7504          3.0004
 00  5 16 15  4  0.0000000  0  6G 2G 4G 7G 9G24G26
  22056650.3054    1121899.46246    854210.72846                  22056656.3754
        18.7504         17.2504
  20988775.4384   -2675389.69947  -2024872.91747                  20988780.4774
        22.0004         26.7504
  21396047.9924    1405908.46047   1069303.45547                  21396053.0664
        22.0004         28.2504
  22006411.0474   -2473189.86546  -1862334.02846                  22006415.6884
        19.5004         22.2504
  23104401.0784   -4073720.80245  -2965472.17845                  23104408.6644
        10.0004          6.2504
  24542701.2034    2450028.36944   1792153.10943                  24542709.3984
         6.2504          3.0004
 00  5 16 15  4 15.0000000  0  6G 2G 4G 7G 9G24G26
  22060125.9384    1140163.00146    868442.01946                  22060131.7384
        19.0004         18.0004
  20982909.1334   -2706216.82447  -2048894.01247                  20982914.2194
        22.2504         27.2504
  21400144.5164    1427434.86347   1086077.26247                  21400149.6604
        21.5004         28.0004
  22000990.7344   -2501674.09846  -1884529.51746                  22000995.4804
        19.5004         22.2504
  23094339.0634   -4126597.29245  -3006674.56745                  23094346.9654
        10.0004          6.0004
  24549330.3204    2484862.42143   1819296.44843                  24549338.8444
         6.0004          2.7504
 00  5 16 15  4 30.0000000  0  6G 2G 4G 7G 9G24G26
  22063617.0554    1158508.72246    882737.34846                  22063623.1024
        18.5004         17.7504
  20977070.1804   -2736901.15347  -2072803.84047                  20977075.2774
        22.2504         27.5004
  21404252.2424    1449021.49747   1102897.99647                  21404257.4224
        21.7504         28.0004
  21995595.4694   -2530026.42346  -1906622.22446                  21995600.0164
        19.7504         22.5004
  23084287.8984   -4179414.62545  -3047830.85745                  23084295.8014
         9.7504          6.2504
  24555965.9304    2519732.08944   1846467.49843                  24555973.6214
         6.2504          2.7504
 00  5 16 15  4 45.0000000  0  6G 2G 4G 7G 9G24G26
  22067123.8204    1176936.97246    897096.98646                  22067129.9144
        18.5004         17.7504
  20971258.2424   -2767442.03347  -2096601.89147                  20971263.3634
        22.2504         27.5004
  21408371.5704    1470668.61447   1119765.85647                  21408376.7384
        21.7504         28.0004
  21990225.4534   -2558246.35846  -1928611.77046                  21990229.6484
        19.7504         22.5004
  23074248.4924   -4232172.17845  -3088940.57145                  23074256.8874
         9.7504          6.2504
  24562608.0554    2554637.23743   1873666.27143                  24562616.6844
         6.0004          2.7504
 00  5 16 15  5  0.0000000  0  6G 2G 4G 7G 9G24G26
  22070646.0864    1195447.80846    911520.97846                  22070652.2384
        18.7504         17.2504
  20965473.8054   -2797839.26447  -2120288.00447                  20965478.8554
        22.7504         27.2504
  21412502.2584    1492375.95947   1136680.65247                  21412507.3444
        21.5004         27.7504
  21984880.6804   -2586333.62447  -1950497.93246                  21984884.7114
        20.2504         23.0004
  23064220.8364   -4284869.58645  -3130003.41645                  23064229.8524
         9.7504          6.0004
  24569256.9774    2589577.39344   1900892.26542                  24569263.1994
         6.2504          2.2504
 00  5 16 15  5 15.0000000  0  6G 2G 4G 7G 9G24G26
  22074184.2504    1214039.62746    926008.07746                  22074190.3204
        18.7504         17.5004
  20959716.4224   -2828094.20647  -2143863.24947                  20959721.2154
        23.0004         28.0004
  21416644.1254    1514141.72847   1153640.97847                  21416649.3524
        21.2504         27.2504
  21979560.6724   -2614289.82947  -1972281.97546                  21979564.8204
        20.0004         23.2504
  23054203.8914   -4337508.31445  -3171020.51245                  23054212.1454
        10.2504          6.2504
  24575912.3054    2624550.55044   1928144.00443                  24575918.8794
         6.5004          2.5004
 00  5 16 15  5 30.0000000  0  6G 2G 4G 7G 9G24G26
  22077737.7034    1232713.98446    940559.47646                  22077743.7734
        18.7504         17.5004
  20953986.6804   -2858205.21547  -2167326.33547                  20953991.3204
        23.0004         28.2504
  21420797.4454    1535967.08147   1170647.72547                  21420802.5204
        21.2504         27.5004
  21974266.0784   -2642113.19746  -1993962.50746                  21974270.4494
        19.5004         22.7504
  23044198.5234   -4390086.44045  -3211990.41545                  23044206.4024
        10.7504          6.7504
  24582574.0084    2659557.85344   1955422.36043                  24582580.6644
         6.2504          2.7504
 00  5 16 15  5 45.0000000  0  6G 2G 4G 7G 9G24G26
  22081307.1174    1251470.17746    955174.64946                  22081313.0474
        18.7504         17.7504
  20948284.1094   -2888172.76847  -2190677.63847                  20948288.8914
        23.0004         28.5004
  21424961.5944    1557851.16647   1187700.23747                  21424966.7384
        21.2504         27.2504
  21968996.7734   -2669804.18746  -2015539.88946                  21969001.2974
        19.5004         22.7504
  23034205.0554   -4442604.34145  -3252913.37745                  23034212.7584
        10.7504          7.0004
  24589242.3204    2694598.15944   1982726.42243                  24589248.7074
         6.5004          3.0004
 00  5 16 15  6  0.0000000  0  6G 2G 4G 7G 9G24G26
  22084892.2894    1270309.59946    969854.69146                  22084898.2894
        18.7504         17.2504
  20942609.0474   -2917995.31847  -2213915.94847                  20942613.7114
        23.7504         28.7504
  21429137.6174    1579795.11747   1204799.39547                  21429142.9844
        21.2504         27.0004
  21963752.6414   -2697361.35146  -2037012.99846                  21963757.1174
        19.7504         22.5004
  23024222.6564   -4495060.36545  -3293788.13645                  23024230.4184
        10.7504          7.2504
  24595916.7734    2729672.35944   2010056.87343                  24595923.9614
         6.7504          2.7504
 00  5 16 15  6 15.0000000  0  6G 2G 4G 7G 9G24G26
  22088492.8204    1289230.42446    984598.14246                  22088498.8554
        18.7504         17.2504
  20936960.9224   -2947674.44147  -2237042.50347                  20936965.6914
        23.5004         29.5004
  21433324.4304    1601796.86147   1221943.59647                  21433329.7154
        21.5004         27.2504
  21958533.9144   -2724786.32246  -2058383.08746                  21958538.3444
        19.7504         22.5004
  23014252.1254   -4547456.08245  -3334615.87945                  23014260.8594
        11.0004          7.2504
  24602596.9924    2764778.33044   2037412.06143                  24602604.1094
         6.2504          2.5004
 00  5 16 15  6 30.0000000  0  6G 2G 4G 7G 9G24G26
  22092109.1484    1308233.26146    999405.50146                  22092115.0314
        18.7504         17.0004
  20931340.6414   -2977209.31947  -2260056.65747                  20931345.3984
        23.5004         29.0004
  21437522.4774    1623856.80647   1239133.14747                  21437527.7734
        21.5004         27.5004
  21953340.2814   -2752078.21046  -2079649.47946                  21953344.5234
        19.7504         22.7504
  23004292.9064   -4599790.63045  -3375395.98945                  23004300.6564
        11.0004          7.5004
  24609283.6804    2799916.24143   2064792.17843                  24609291.7344
         6.0004          2.7504
 00  5 16 15  6 45.0000000  0  6G 2G 4G 7G 9G24G26
  22095740.6644    1327318.06946   1014276.73846                  22095746.6414
        19.0004         17.2504
  20925747.7504   -3006599.78747  -2282958.28747                  20925752.4494
        23.0004         29.0004
  21441731.4144    1645974.70247   1256367.85147                  21441736.6414
        21.5004         27.5004
  21948172.2424   -2779236.83746  -2100812.03246                  21948176.4964
        19.7504         22.7504
  22994345.6724   -4652063.78045  -3416128.25645                  22994353.1644
        11.0004          7.7504
  24615976.0944    2835085.63343   2092196.80443                  24615984.5124
         6.0004          2.7504
 00  5 16 15  7  0.0000000  0  6G 2G 4G 7G 9G24G26
  22099388.0234    1346485.81946   1029212.60646                  22099394.1884
        18.7504         16.5004
  20920182.7734   -3035844.69247  -2305746.48447                  20920187.4614
        23.5004         28.7504
  21445951.3204    1668151.09047   1273648.13447                  21445956.6644
        21.0004         27.5004
  21943029.6954   -2806261.22146  -2121869.98046                  21943034.1484
        19.7504         23.0004
  22984410.1884   -4704274.17045  -3456811.59045                  22984418.2664
        11.0004          7.5004
  24622675.2584    2870286.91444   2119626.27843                  24622682.7504
         6.2504          2.7504
 00  5 16 15  7 15.0000000  0  6G 2G 4G 7G 9G24G26
  22103051.3204    1365736.03846   1044212.72746                  22103057.4494
        18.7504         16.5004
  20914645.2974   -3064944.51847  -2328421.64447                  20914649.8674
        23.5004         29.2504
  21450182.3284    1690385.28647   1290973.45947                  21450187.5904
        21.0004         26.7504
  21937912.4924   -2833151.70146  -2142823.58446                  21937916.8404
        19.5004         22.7504
  22974486.8204   -4756422.16645  -3497446.31145                  22974494.4184
        11.5004          7.7504
  24629379.3134    2905519.16443   2147079.90742                  24629387.9304
         6.0004          2.2504
 00  5 16 15  7 30.0000000  0  6G 2G 4G 7G 9G24G26
  22106730.4224    1385068.81146   1059277.18046                  22106736.5394
        18.2504         16.2504
  20909135.4614   -3093898.89947  -2350983.46647                  20909140.1724
        23.5004         29.0004
  21454424.3834    1712677.15347   1308343.72747                  21454429.7154
        21.0004         26.7504
  21932821.0314   -2859907.99046  -2163672.62346                  21932825.4614
        19.5004         22.7504
  22964575.1094   -4808507.35645  -3538032.10045                  22964582.0744
        11.7504          7.7504
  24636090.0314    2940782.18043   2174557.50643                  24636095.6914
         6.0004          2.7504
 00  5 16 15  7 45.0000000  0  7G 2G 4G 5G 7G 9G24G26
  22110424.8594    1404483.41746   1074405.40546                  22110430.8714
        18.2504         16.2504
  20903653.1724   -3122708.33947  -2373432.34547                  20903658.0354
        23.5004         29.0004
  24755143.1094     -20212.96853
         5.0004
  21458677.1414    1735025.69547   1325758.16147                  21458682.6134
        20.5004         26.5004
  21927754.7584   -2886530.55246  -2184417.47046                  21927759.1884
        19.0004         22.7504
  22954675.6954   -4860530.16645  -3578569.29745                  22954682.5274
        11.7504          7.5004
  24642806.9694    2976074.81444   2202058.15543                  24642814.3094
         6.2504          2.5004
 00  5 16 15  8  0.0000000  0  7G 2G 4G 5G 7G 9G24G26
  22114134.8524    1423979.36146   1089596.99546                  22114140.8984
        18.2504         16.0004
  20898198.2814   -3151373.23547  -2395768.59347                  20898202.8284
        23.5004         28.7504
  24746901.6024     -63528.65243
         5.2504
  21462940.5314    1757430.24547   1343216.22947                  21462945.7934
        21.0004         26.5004
  21922714.0554   -2913019.72846  -2205058.37146                  21922718.4844
        19.7504         22.2504
  22944788.1564   -4912490.90445  -3619058.09845                  22944795.1454
        11.7504          8.0004
  24649526.5634    3011395.96543   2229581.07143                  24649533.4064
         5.7504          2.7504
 00  5 16 15  8 15.0000000  0  7G 2G 4G 5G 7G 9G24G26
  22117860.4064    1443557.60046   1104852.72246                  22117866.6414
        18.2504         16.2504
  20892771.3284   -3179892.38047  -2417991.27247                  20892775.7464
        23.5004         29.2504
  24738659.5004    -106839.76843
         5.5004
  21467214.7814    1779891.41247   1360718.41347                  21467219.9964
        21.2504         26.5004
  21917698.7974   -2939374.49647  -2225594.54646                  21917703.4144
        20.0004         23.0004
  22934912.0634   -4964388.32245  -3659497.57645                  22934919.2734
        11.7504          8.5004
  24656253.9454    3046746.25443   2257126.64743                  24656260.4844
         5.7504          2.5004
 00  5 16 15  8 30.0000000  0  7G 2G 4G 5G 7G 9G24G26
  22121602.0314    1463218.49146   1120172.82946                  22121608.1484
        18.2504         16.2504
  20887372.2274   -3208265.21447  -2440099.94147                  20887376.7384
        23.0004         29.2504
  24730417.6174    -150145.95543
         5.2504
  21471499.9384    1802409.34147   1378264.83347                  21471505.2704
        21.2504         26.7504
  21912709.3284   -2965594.31346  -2246025.54746                  21912714.0394
        19.7504         22.7504
  22925048.4614   -5016221.74945  -3699887.19245                  22925055.7774
        11.0004          7.7504
  24662986.9304    3082125.61543   2284694.85142                  24662994.1054
         6.0004          2.2504
 00  5 16 15  8 45.0000000  0  7G 2G 4G 5G 7G 9G24G26
  22125358.6644    1482960.90446   1135556.47446                  22125364.5824
        18.2504         15.7504
  20882000.4924   -3236492.78447  -2462095.41647                  20882005.1914
        23.0004         28.7504
  24722177.2424    -193448.32943
         5.2504
  21475795.7664    1824982.71747   1395854.45047                  21475801.1214
        21.2504         27.5004
  21907745.3914   -2991680.19746  -2266352.20146                  21907750.1374
        19.0004         22.7504
  22915196.4454   -5067992.00445  -3740227.57145                  22915203.5864
        10.7504          7.5004
  24669724.4844    3117532.48743   2312284.58643                  24669731.7304
         6.0004          2.5004
 00  5 16 15  9  0.0000000  0  7G 2G 4G 5G 7G 9G24G26
  22129131.4774    1502787.03846   1151005.35946                  22129137.5234
        18.2504         16.2504
  20876656.9694   -3264572.61947  -2483975.77547                  20876661.8204
        22.2504         28.7504
  24713939.3834    -236744.65743    -17991.00852                  24713946.0164
         5.5004          1.7504
  21480102.1564    1847613.44547   1413488.76747                  21480107.3714
        21.5004         27.7504
  21902807.3364   -3017629.85546  -2286572.71046                  21902812.0824
        19.0004         22.7504
  22905357.3914   -5119696.66845  -3780516.84945                  22905364.9654
        11.0004          7.7504
  24676467.2034    3152968.65543   2339897.08743                  24676474.1454
         5.7504          2.7504
 00  5 16 15  9 15.0000000  0  7G 2G 4G 5G 7G 9G24G26
  22132920.0634    1522695.04446   1166518.03946                  22132926.0984
        18.2504         15.7504
  20871341.2194   -3292506.56047  -2505742.44647                  20871346.0704
        22.2504         28.2504
  24705701.2034    -280036.83243    -51725.16342                  24705707.9414
         5.5004          2.0004
  21484419.0394    1870299.40947   1431166.12247                  21484424.5234
        21.2504         27.2504
  21897895.1024   -3043444.88146  -2306688.29946                  21897899.8594
        19.5004         22.7504
  22895530.6804   -5171337.31145  -3820756.24545                  22895538.2544
        11.0004          7.7504
  24683216.6414    3188431.76443   2367530.57943                  24683221.8444
         6.0004          2.5004
 00  5 16 15  9 30.0000000  0  7G 2G 4G 5G 7G 9G24G26
  22136723.6954    1542683.57646   1182093.46446                  22136729.8014
        18.2504         16.2504
  20866053.1254   -3320295.67047  -2527396.27147                  20866058.1884
        22.0004         28.0004
  24697463.1564    -323326.11143    -85456.99242                  24697469.1804
         5.7504          1.5004
  21488746.1644    1893039.05747   1448885.30347                  21488751.6604
        21.2504         26.7504
  21893007.9694   -3069126.44646  -2326699.89746                  21893012.6804
        19.7504         22.5004
  22885716.2664   -5222914.91045  -3860946.50145                  22885723.8524
        11.0004          7.2504
  24689969.2114    3223920.10643   2395183.74143                  24689977.6884
         6.0004          2.7504
 00  5 16 15  9 45.0000000  0  7G 2G 4G 5G 7G 9G24G26
  22140542.9454    1562754.08846   1197732.76946                  22140549.0044
        18.2504         16.2504
  20860792.7504   -3347938.18147  -2548935.86147                  20860797.7664
        22.0004         28.0004
  24689226.4454    -366610.92343   -119185.36942                  24689233.3404
         5.7504          2.0004
  21493083.9924    1915833.60647   1466647.26147                  21493089.4064
        21.2504         26.5004
  21888146.5234   -3094672.98946  -2346606.27746                  21888151.1294
        19.2504         22.7504
  22875912.8914   -5274427.82845  -3901086.35545                  22875920.1724
        11.2504          7.7504
  24696727.5314    3259434.74343   2422857.37743                  24696735.0474
         6.0004          3.2504
 00  5 16 15 10  0.0000000  0  7G 2G 4G 5G 7G 9G24G26
  22144378.0474    1582906.85346   1213436.16746                  22144384.1524
        18.0004         16.0004
  20855560.6644   -3375433.72147  -2570360.92847                  20855565.5864
        22.2504         28.5004
  24680990.4384    -409891.10143   -152910.16042                  24680996.2974
         5.2504          1.7504
  21497431.9304    1938683.16747   1484452.08447                  21497437.2624
        21.0004         26.5004
  21883310.9924   -3120084.04746  -2366407.08846                  21883315.5634
        19.2504         22.5004
  22866122.9694   -5325875.47145  -3941175.36245                  22866130.1454
        11.0004          7.2504
  24703490.5864    3294975.60143   2450551.48043                  24703498.7704
         6.0004          2.7504
 00  5 16 15 10 15.0000000  0  7G 2G 4G 5G 7G 9G24G26
  22148228.7584    1603142.02046   1229203.77746                  22148234.8054
        18.0004         16.0004
  20850356.4064   -3402782.20847  -2591671.40847                  20850361.0474
        22.2504         29.0004
  24672755.3204    -453166.51543   -186631.23742                  24672761.8364
         5.0004          2.0004
  21501790.6254    1961587.51847   1502299.60847                  21501796.0164
        21.2504         26.7504
  21878501.2274   -3145359.33646  -2386102.10546                  21878506.1024
        19.5004         22.7504
  22856344.8284   -5377257.46545  -3981213.18945                  22856352.3794
        10.7504          8.2504
  24710259.3594    3330542.27143   2478265.65843                  24710266.9224
         6.0004          2.7504
 00  5 16 15 10 30.0000000  0  7G 2G 4G 5G 7G 9G24G26
  22152094.9144    1623459.70546   1245035.67646                  22152100.9964
        18.0004         16.0004
  20845180.3134   -3429983.07747  -2612866.85947                  20845185.1174
        22.5004         29.0004
  24664520.8754    -496436.93143   -220348.40242                  24664528.0044
         5.0004          2.0004
  21506159.6414    1984546.53647   1520189.72747                  21506165.0204
        21.2504         26.7504
  21873717.5394   -3170498.61746  -2405691.14046                  21873722.3324
        19.2504         22.7504
  22846579.8674   -5428573.42045  -4021199.56945                  22846587.5124
        11.0004          8.5004
  24717032.1094    3366134.43043   2505999.73343                  24717041.7464
         6.0004          2.7504
 00  5 16 15 10 45.0000000  0  7G 2G 4G 5G 7G 9G24G26
  22155977.2504    1643859.02546   1260931.18646                  22155983.1804
        18.2504         16.2504
  20840031.9454   -3457037.15047  -2633947.93047                  20840036.8324
        22.5004         29.0004
  24656288.3054    -539703.23143   -254062.35042                  24656295.7154
         5.2504          2.2504
  21510538.9384    2007559.18447   1538121.64147                  21510544.3634
        21.0004         27.0004
  21868959.2194   -3195502.47046  -2425174.65246                  21868963.9774
        19.7504         22.7504
  22836826.8984   -5479823.87845  -4061134.89845                  22836834.5314
        11.2504          8.5004
  24723810.0394    3401750.80544   2533752.65443                  24723815.4304
         6.5004          2.5004
 00  5 16 15 11  0.0000000  0  7G 2G 4G 5G 7G 9G24G26
  22159874.5784    1664339.87446   1276890.22546                  22159880.6374
        18.5004         16.5004
  20834911.7114   -3483944.28647  -2654914.50147                  20834916.5274
        22.5004         29.0004
  24648055.1024    -582965.61943   -287773.25742                  24648061.4064
         5.2504          1.5004
  21514928.1724    2030625.04347   1556095.02147                  21514933.5044
        21.5004         27.2504
  21864227.0164   -3220370.99146  -2444552.70246                  21864231.6334
        19.7504         23.0004
  22827086.7194   -5531008.79845  -4101019.17445                  22827094.0234
        11.5004          8.5004
  24730592.2814    3437390.84344   2561524.02343                  24730599.4454
         7.0004          3.0004
 00  5 16 15 11 15.0000000  0  7G 2G 4G 5G 7G 9G24G26
  22163787.7274    1684903.29246   1292913.61246                  22163793.9144
        18.2504         16.0004
  20829819.8834   -3510703.47047  -2675765.78147                  20829824.9454
        22.5004         29.2504
  24639823.2424    -626223.12842   -321480.32942                  24639830.4884
         4.7504          1.7504
  21519327.5394    2053744.91247   1574110.48647                  21519332.9414
        21.5004         27.2504
  21859520.5944   -3245102.99046  -2463824.37746                  21859525.3054
        19.5004         22.7504
  22817359.5394   -5582126.76645  -4140851.27745                  22817366.5864
        11.7504          8.2504
  24737379.0864    3473055.19944   2589314.33943                  24737386.6844
         7.0004          3.0004
 00  5 16 15 11 30.0000000  0  7G 2G 4G 5G 7G 9G24G26
  22167716.3134    1705548.89746   1309001.03746                  22167722.3594
        18.7504         16.0004
  20824755.7814   -3537314.62347  -2696501.72147                  20824760.5984
        22.7504         30.0004
  24631592.4774    -669475.95542   -355183.79042                  24631597.6564
         4.5004          2.0004
  21523737.5314    2076918.31347   1592167.65947                  21523742.9104
        21.2504         27.0004
  21854840.1024   -3269698.64346  -2482989.80846                  21854844.6724
        19.5004         23.5004
  22807644.6024   -5633177.72546  -4180631.17145                  22807651.6484
        12.0004          8.5004
  24744170.0944    3508743.15144   2617123.07343                  24744175.8714
         7.0004          3.0004
 00  5 16 15 11 45.0000000  0  7G 2G 4G 5G 7G 9G24G26
  22171660.6414    1726274.90446   1325151.11546                  22171666.8054
        18.5004         16.5004
  20819719.5474   -3563779.56747  -2717123.73147                  20819724.4344
        22.7504         29.7504
  24623362.4454    -712725.80042   -388884.91642                  24623367.8134
         4.7504          1.7504
  21528156.9534    2100143.12347   1610264.89247                  21528162.4264
        21.7504         26.7504
  21850185.3914   -3294159.67646  -2502050.34346                  21850189.9614
        19.7504         23.2504
  22797942.6414   -5684163.36546  -4220360.16345                  22797949.8164
        12.2504          9.2504
  24750965.7734    3544452.38144   2644948.36843                  24750972.4774
         7.0004          3.0004
 00  5 16 15 12  0.0000000  0  7G 2G 4G 5G 7G 9G24G26
  22175620.2034    1747083.33146   1341365.40746                  22175626.2734
        18.7504         16.2504
  20814711.6254   -3590096.15747  -2737630.14047                  20814716.5704
        22.5004         29.2504
  24615133.7034    -755970.72143   -422582.26442                  24615141.7934
         5.0004          2.0004
  21532586.7424    2123421.09847   1628403.55347                  21532592.0274
        21.5004         26.5004
  21845556.7194   -3318483.80747  -2521004.19746                  21845561.2424
        20.2504         24.0004
  22788252.9064   -5735081.40246  -4260036.46545                  22788259.8134
        12.2504          8.7504
  24757764.8444    3580184.53244   2672791.50643                  24757771.4184
         6.5004          2.5004
 00  5 16 15 12 15.0000000  0  7G 2G 4G 5G 7G 9G24G26
  22179595.5474    1767973.44646   1357643.36846                  22179601.6994
        18.7504         16.5004
  20809731.8524   -3616264.84447  -2758021.30247                  20809736.8914
        22.2504         29.0004
  24606905.7114    -799211.44443   -456276.23842                  24606913.5204
         5.2504          1.5004
  21537026.3364    2146751.36647   1646582.96446                  21537031.6914
        21.2504         25.5004
  21840953.8204   -3342671.63947  -2539851.84246                  21840958.3674
        20.2504         24.0004
  22778576.4224   -5785932.20646  -4299660.39245                  22778583.4924
        12.2504          8.2504
  24764569.2034    3615938.41944   2700651.57143                  24764576.2974
         6.7504          2.7504
 00  5 16 15 12 30.0000000  0  7G 2G 4G 5G 7G 9G24G26
  22183586.7194    1788947.05146   1373986.38146                  22183592.6134
        18.0004         16.0004
  20804780.6174   -3642283.69647  -2778295.71147                  20804785.6804
        22.5004         29.2504
  24598677.5944    -842446.16143   -489965.66242                  24598687.1024
         5.7504          2.2504
  21541476.2194    2170135.45947   1664804.31646                  21541481.5634
        21.0004         25.5004
  21836377.3204   -3366721.21147  -2558591.75746                  21836382.0434
        20.2504         24.5004
  22768912.8984   -5836713.57546  -4339230.21545                  22768919.8984
        12.2504          8.7504
  24771377.1024    3651715.50044   2728529.73743                  24771385.0744
         6.7504          2.5004
 00  5 16 15 12 45.0000000  0  7G 2G 4G 5G 7G 9G24G26
  22187593.5864    1810003.29746   1390393.78946                  22187599.6214
        18.2504         16.0004
  20799857.9534   -3668153.37947  -2798453.88447                  20799862.7814
        23.5004         30.0004
  24590450.8914    -885675.72943   -523650.99342                  24590455.0864
         5.0004          2.0004
  21545936.1414    2193572.26447   1683066.74546                  21545941.6024
        21.0004         25.5004
  21831827.0474   -3390633.22747  -2577224.48346                  21831831.7344
        20.0004         24.2504
  22759262.5864   -5887426.36146  -4378746.58645                  22759270.2544
        13.0004          9.5004
  24778189.6644    3687514.49244   2756424.97043                  24778197.1914
         6.2504          2.5004
 00  5 16 15 13  0.0000000  0  7G 2G 4G 5G 7G 9G24G26
  22191616.2424    1831140.77346   1406864.49946                  22191622.3244
        18.2504         16.0004
  20794963.3914   -3693875.17647  -2818496.82347                  20794968.1724
        23.2504         30.5004
  24582225.4384    -928901.52842   -557333.37842                  24582233.4574
         4.5004          1.5004
  21550405.6414    2217060.12947   1701368.95446                  21550411.0904
        21.0004         25.2504
  21827302.9304   -3414408.96847  -2595751.02946                  21827307.6414
        20.5004         24.7504
  22749625.4844   -5938071.59746  -4418210.33345                  22749632.8714
        13.2504         10.0004
  24785005.9924    3723333.50343   2784335.82343                  24785013.7894
         5.7504          2.5004
 00  5 16 15 13 15.0000000  0  7G 2G 4G 5G 7G 9G24G26
  22195653.9384    1852360.85046   1423399.55946                  22195660.0434
        18.2504         16.0004
  20790097.0784   -3719447.50747  -2838423.29347                  20790101.9414
        23.0004         30.0004
  24574001.4534    -972122.06342   -591011.63542                  24574008.7114
         4.7504          2.0004
  21554885.4304    2240600.21547   1719711.85846                  21554890.8794
        21.7504         25.5004
  21822804.7584   -3438046.98447  -2614170.25146                  21822809.4694
        20.2504         24.2504
  22740001.2274   -5988647.56846  -4457620.10045                  22740008.2034
        13.7504         10.2504
  24791826.1254    3759173.54644   2812263.02342                  24791833.6764
         6.2504          2.0004
 00  5 16 15 13 30.0000000  0  7G 2G 4G 5G 7G 9G24G26
  22199707.6094    1873663.07446   1439998.64246                  22199713.7504
        18.2504         16.0004
  20785259.0084   -3744870.78647  -2858233.62247                  20785263.8014
        23.0004         29.5004
  24565778.1334   -1015337.95843   -624686.34542                  24565784.3324
         5.5004          1.5004
  21559374.5784    2264191.82447   1738094.91347                  21559380.0984
        21.5004         26.0004
  21818332.5474   -3461547.55147  -2632482.37446                  21818337.1524
        20.2504         25.0004
  22730389.8594   -6039154.55146  -4496976.10845                  22730396.1174
        13.7504          9.7504
  24798650.2664    3795033.67444   2840205.89243                  24798658.3554
         6.2504          2.5004
 00  5 16 15 13 45.0000000  0  7G 2G 4G 5G 7G 9G24G26
  22203777.1724    1895047.41546   1456661.69546                  22203783.2664
        18.2504         15.2504
  20780449.5394   -3770144.77147  -2877927.61547                  20780454.0274
        23.7504         29.5004
  24557554.4694   -1058549.04143   -658357.28842                  24557560.0474
         5.7504          1.7504
  21563873.8914    2287834.69247   1756517.90547                  21563879.2584
        21.5004         25.7504
  21813886.9064   -3484910.50547  -2650687.26146                  21813891.2894
        20.5004         24.7504
  22720791.6644   -6089592.26146  -4536278.14845                  22720798.2274
        13.7504          9.5004
  24805477.4224    3830913.47144   2868164.08843                  24805485.0904
         6.2504          2.7504
 00  5 16 15 14  0.0000000  0  7G 2G 4G 5G 7G 9G24G26
  22207862.2114    1916514.42646   1473389.18646                  22207868.3754
        18.0004         15.2504
  20775668.6954   -3795268.77547  -2897504.74847                  20775673.2304
        23.5004         29.5004
  24549332.5164   -1101754.75243   -692024.01642                  24549340.5944
         5.7504          1.7504
  21568382.6804    2311529.21147   1774981.15347                  21568387.8014
        21.7504         26.2504
  21809467.3984   -3508135.13047  -2668784.36346                  21809471.7114
        20.7504         25.0004
  22711207.0634   -6139959.78146  -4575525.48845                  22711213.8594
        13.0004          9.2504
  24812309.1024    3866813.22643   2896137.84243                  24812316.7114
         6.0004          2.7504
 00  5 16 15 14 15.0000000  0  7G 2G 4G 5G 7G 9G24G26
  22211963.2664    1938063.95746   1490180.97146                  22211969.4304
        17.5004         15.2504
  20770916.1334   -3820242.82447  -2916965.02747                  20770920.9024
        23.2504         29.7504
  24541111.9924   -1144955.23343   -725686.70443                  24541119.1094
         5.7504          2.5004
  21572901.2274    2335274.92347   1793484.28347                  21572906.4774
        21.2504         26.0004
  21805074.1254   -3531221.46547  -2686773.70746                  21805078.2854
        21.0004         25.0004
  22701635.6334   -6190257.06946  -4614718.09145                  22701642.1024
        13.2504          9.0004
  24819144.4144    3902732.21643   2924126.57542                  24819153.9454
         6.0004          2.2504
 00  5 16 15 14 30.0000000  0  7G 2G 4G 5G 7G 9G24G26
  22216079.4534    1959696.41746   1507037.37546                  22216085.3954
        18.0004         15.2504
  20766192.2504   -3845066.33547  -2936308.00247                  20766197.0204
        23.2504         29.7504
  24532891.4694   -1188150.08743   -759344.97742                  24532898.2424
         5.2504          2.2504
  21577429.8204    2359072.12347   1812027.53046                  21577435.2234
        21.0004         25.2504
  21800707.2814   -3554169.00347  -2704654.89347                  21800711.5354
        21.0004         25.7504
  22692077.8134   -6240483.42846  -4653855.44845                  22692084.2704
        13.0004          8.7504
  24825983.2274    3938670.40143   2952130.28342                  24825991.3634
         5.7504          2.2504
 00  5 16 15 14 45.0000000  0  7G 2G 4G 5G 7G 9G24G26
  22220212.1644    1981412.46446   1523958.91646                  22220218.2934
        18.0004         14.7504
  20761497.4534   -3869738.39847  -2955532.97147                  20761502.1174
        23.5004         29.7504
  24524673.2814   -1231338.57843   -792998.28742                  24524679.5274
         5.5004          2.0004
  21581968.1804    2382921.13247   1830611.14946                  21581973.8634
        20.7504         25.0004
  21796367.1174   -3576976.85947  -2722427.24446                  21796371.4304
        21.0004         25.2504
  22682533.6484   -6290637.86946  -4692936.76045                  22682540.5314
        13.0004          8.7504
  24832826.6094    3974628.18143   2980149.24043                  24832836.3404
         5.7504          2.5004
 00  5 16 15 15  0.0000000  0  7G 2G 4G 5G 7G 9G24G26
  22224360.4924    2003212.09146   1540945.58546                  22224366.2704
        18.0004         14.5004
  20756831.4144   -3894259.05947  -2974639.96547                  20756835.8794
        23.5004         29.5004
  24516455.5944   -1274520.64743   -826646.64642                  24516462.1684
         5.7504          2.2504
  21586516.2894    2406821.73847   1849234.97046                  21586521.9494
        20.5004         24.5004
  21792053.4144   -3599644.92547  -2740090.66347                  21792058.0664
        20.7504         25.7504
  22673003.2974   -6340720.09646  -4731961.79845                  22673010.3204
        13.2504          8.7504
  24839672.7034    4010604.99743   3008183.02543                  24839682.1524
         5.7504          2.5004
 00  5 16 15 15 15.0000000  0  7G 2G 4G 5G 7G 9G24G26
  22228524.3284    2025094.40846   1557996.68246                  22228530.5274
        17.2504         15.0004
  20752193.8834   -3918628.93647  -2993629.46247                  20752198.3484
        23.5004         29.7504
  24508240.0004   -1317697.17443   -860290.68542                  24508245.5204
         5.7504          1.7504
  21591074.0864    2430772.86747   1867898.16346                  21591079.5944
        20.5004         24.5004
  21787766.2894   -3622174.01147  -2757645.78846                  21787771.0594
        20.5004         25.5004
  22663486.4774   -6390730.73546  -4770931.05645                  22663494.1094
        13.0004          9.5004
  24846522.2194    4046599.66143   3036230.70642                  24846530.6254
         5.7504          2.2504
 00  5 16 15 15 30.0000000  0  7G 2G 4G 5G 7G 9G24G26
  22232704.6884    2047060.28946   1575112.90446                  22232710.8054
        17.0004         15.0004
  20747585.3834   -3942847.06847  -3012500.72347                  20747589.9064
        23.5004         29.7504
  24500025.2664   -1360867.32843   -893929.69842                  24500030.7624
         6.0004          2.2504
  21595641.4924    2454775.08447   1886601.16746                  21595647.1174
        20.5004         24.2504
  21783505.9534   -3644563.11147  -2775091.83647                  21783510.3364
        21.5004         26.2504
  22653983.5004   -6440668.76446  -4809843.72345                  22653990.9804
        13.0004         10.0004
  24853374.7504    4082612.55143   3064292.59942                  24853384.5634
         5.2504          1.5004
 00  5 16 15 15 45.0000000  0  7G 2G 4G 5G 7G 9G24G26
  22236900.4614    2069109.67546   1592294.17646                  22236906.6134
        17.0004         14.5004
  20743005.7584   -3966913.34147  -3031253.64847                  20743010.3874
        23.7504         30.0004
  24491811.3284   -1404031.09043   -927563.73842                  24491817.8914
         6.0004          2.0004
  21600218.6024    2478828.09247   1905343.74646                  21600224.1094
        20.5004         24.0004
  21779272.1024   -3666811.97247  -2792428.59947                  21779276.4144
        21.2504         26.2504
  22644494.2664   -6490533.92046  -4848699.61545                  22644501.6174
        13.0004         10.0004
  24860231.7034    4118643.17643   3092368.34342                  24860241.2584
         5.2504          2.2504
 00  5 16 15 16  0.0000000  0  7G 2G 4G 5G 7G 9G24G26
  22241111.9614    2091241.58646   1609539.76446                  22241117.9264
        17.2504         14.7504
  20738454.7424   -3990828.54547  -3049888.85347                  20738459.1954
        24.2504         30.0004
  24483598.3914   -1447189.52144   -961193.70043                  24483606.0234
         6.2504          2.7504
  21604805.2034    2502930.85947   1924125.10246                  21604810.6294
        20.5004         24.5004
  21775064.6884   -3688921.48647  -2809656.78547                  21775069.0594
        21.2504         26.0004
  22635018.9224   -6540326.77646  -4887499.17245                  22635026.1684
        13.2504          9.5004
  24867090.6954    4154690.16843   3120456.79843                  24867099.4064
         5.2504          2.5004
 00  5 16 15 16 15.0000000  0  7G 2G 4G 5G 7G 9G24G26
  22245339.5314    2113456.91646   1626850.35346                  22245345.7424
        17.2504         14.5004
  20733932.6724   -4014591.69247  -3068405.58347                  20733937.1724
        23.7504         29.7504
  24475387.0164   -1490341.58143   -994818.64742                  24475394.6484
         6.0004          2.2504
  21609401.4384    2527083.90847   1942945.64446                  21609407.0044
        20.7504         24.5004
  21770884.0554   -3710890.61147  -2826775.57747                  21770888.5084
        21.0004         26.0004
  22625557.9454   -6590046.26246  -4926241.56645                  22625564.8634
        13.2504          9.5004
  24873953.8364    4190754.12143   3148558.49242                  24873962.1024
         5.5004          2.2504
 00  5 16 15 16 30.0000000  0  7G 2G 4G 5G 7G 9G24G26
  22249582.8834    2135755.78546   1644226.04346                  22249589.2344
        17.0004         14.2504
  20729439.8284   -4038202.45547  -3086803.56747                  20729444.5394
        23.5004         29.2504
  24467176.1564   -1533487.10443  -1028438.48942                  24467182.5314
         5.7504          2.0004
  21614007.0474    2551287.18947   1961805.33446                  21614012.5204
        20.2504         24.7504
  21766730.4694   -3732719.11947  -2843784.80347                  21766735.0274
        21.0004         26.0004
  22616110.4304   -6639691.92846  -4964926.41945                  22616116.9924
        13.0004          9.5004
  24880819.8674    4226834.62543   3176673.10143                  24880829.9964
         5.0004          2.5004
 00  5 16 15 16 45.0000000  0  7G 2G 4G 5G 7G 9G24G26
  22253842.0474    2158137.61546   1661666.36246                  22253848.2114
        17.0004         14.2504
  20724975.7584   -4061661.36647  -3105083.22247                  20724980.3754
        23.7504         29.5004
  24458967.5164   -1576626.65143  -1062053.67842                  24458976.3794
         5.0004          2.2504
  21618622.2274    2575539.96347   1980703.57346                  21618627.8524
        20.5004         24.7504
  21762603.3204   -3754407.40147  -2860684.75947                  21762607.8444
        21.2504         26.0004
  22606676.9454   -6689264.07946  -5003554.00945                  22606683.7074
        13.2504          9.2504
  24887688.8524    4262930.80743   3204799.86142                  24887698.2664
         5.2504          1.7504
 00  5 16 15 17  0.0000000  0  7G 2G 4G 5G 7G 9G24G26
  22258117.7814    2180605.25646   1679173.57646                  22258123.7584
        17.0004         14.2504
  20720541.0784   -4084965.30747  -3123242.12147                  20720545.5204
        24.0004         30.2504
  24450759.8054   -1619757.34043  -1095661.97342                  24450766.2854
         5.0004          2.2504
  21623247.4064    2599844.86147   1999642.43846                  21623253.1254
        20.5004         24.5004
  21758503.3984   -3775952.54247  -2877473.16747                  21758507.8164
        21.2504         26.2504
  22597258.6954   -6738759.52746  -5042121.82445                  22597265.2464
        13.7504          9.5004
  24894561.7664    4299045.04043   3232940.75142                  24894571.2274
         5.5004          2.0004
 00  5 16 15 17 15.0000000  0  7G 2G 4G 5G 7G 9G24G26
  22262409.0164    2203157.68346   1696746.84146                  22262415.2154
        16.7504         14.5004
  20716135.8524   -4108115.18547  -3141280.97147                  20716140.3754
        24.2504         30.5004
  24442553.8984   -1662880.15543  -1129264.12042                  24442561.2734
         5.7504          2.2504
  21627882.0634    2624200.56846   2018620.89246                  21627887.8984
        19.7504         24.5004
  21754430.4614   -3797355.46847  -2894150.77247                  21754434.9734
        21.2504         26.5004
  22587854.3364   -6788179.05046  -5080630.49145                  22587860.7464
        14.0004         10.0004
  24901437.2344    4335175.95043   3261094.62042                  24901447.6334
         5.2504          2.0004
 00  5 16 15 17 30.0000000  0  7G 2G 4G 5G 7G 9G24G26
  22266716.6094    2225793.62446   1714385.19046                  22266723.0204
        16.7504         14.7504
  20711759.7664   -4131112.13947  -3159200.66947                  20711764.0434
        23.7504         30.0004
  24434348.4844   -1705996.32443  -1162861.09942                  24434356.0234
         5.2504          1.7504
  21632526.4224    2648605.54946   2037637.73846                  21632532.1644
        19.7504         24.2504
  21750384.4144   -3818617.32647  -2910718.44447                  21750388.7624
        21.7504         26.5004
  22578464.1644   -6837523.71946  -5119080.81745                  22578470.9494
        14.0004         10.7504
  24908315.7664    4371321.68543   3289260.00443                  24908324.9224
         5.5004          2.5004
 00  5 16 15 17 45.0000000  0  7G 2G 4G 5G 7G 9G24G26
  22271040.2584    2248513.37546   1732088.83346                  22271046.7384
        17.0004         15.5004
  20707412.6954   -4153955.75947  -3177000.87747                  20707416.9614
        24.0004         30.2504
  24426145.6564   -1749105.46343  -1196452.56942                  24426153.1604
         5.5004          2.2504
  21637179.6174    2673060.01146   2056693.13746                  21637185.1374
        19.7504         24.0004
  21746365.3674   -3839737.52847  -2927175.74047                  21746370.0204
        21.2504         26.7504
  22569088.4224   -6886792.88646  -5157472.30745                  22569095.2424
        14.0004         10.7504
  24915195.9534    4407482.34243   3317437.04143                  24915206.0474
         6.0004          2.5004
 00  5 16 15 18  0.0000000  0  7G 2G 4G 5G 7G 9G24G26
  22275379.9224    2271317.06146   1749857.88046                  22275386.4494
        17.2504         15.5004
  20703094.8674   -4176645.77447  -3194681.39547                  20703099.4144
        23.7504         29.7504
  24417943.4454   -1792207.41843  -1230038.50643                  24417948.6954
         5.5004          2.5004
  21641842.8594    2697563.77846   2075786.95846                  21641848.4964
        19.7504         24.2504
  21742373.2814   -3860715.92247  -2943522.53947                  21742377.9104
        21.7504         26.7504
  22559727.0314   -6935986.13346  -5195804.64445                  22559734.0554
        13.2504         10.5004
  24922080.2504    4443657.55243   3345625.41643                  24922087.5434
         6.0004          2.5004
 00  5 16 15 18 15.0000000  0  7G 2G 4G 5G 7G 9G24G26
  22279735.3134    2294206.04246   1767693.39646                  22279741.4184
        17.2504         15.5004
  20698806.4844   -4199180.79147  -3212241.13647                  20698811.0784
        24.2504         30.2504
  24409742.6564   -1835300.81843  -1263617.75642                  24409750.0084
         5.0004          1.7504
  21646515.2814    2722117.89047   2094920.01246                  21646521.0004
        20.0004         24.2504
  21738408.6024   -3881551.03447  -2959757.68247                  21738413.2304
        22.0004         27.0004
  22550380.7504   -6985101.94046  -5234076.65745                  22550387.7624
        12.7504         10.0004
  24928967.7504    4479848.24643   3373825.87342                  24928975.9574
         6.0004          2.2504
 00  5 16 15 18 30.0000000  0  7G 2G 4G 5G 7G 9G24G26
  22284106.8444    2317178.09646   1785593.64046                  22284113.2424
        17.0004         15.5004
  20694547.4614   -4221562.68547  -3229681.56147                  20694551.7734
        23.7504         30.5004
  24401543.6724   -1878387.88142  -1297192.00942                  24401547.4924
         4.7504          1.7504
  21651196.9614    2746720.18847   2114090.60946                  21651202.6454
        20.2504         24.0004
  21734470.7814   -3902244.92747  -2975882.78947                  21734475.4104
        21.7504         27.5004
  22541048.5634   -7034142.08046  -5272289.69245                  22541055.9384
        12.5004         10.2504
  24935857.3284    4516051.77343   3402036.34242                  24935865.2544
         6.0004          2.2504
 00  5 16 15 18 45.0000000  0  7G 2G 4G 5G 7G 9G24G26
  22288494.4924    2340235.50946   1803560.39746                  22288500.5864
        17.2504         15.2504
  20690317.7584   -4243789.20947  -3247000.92147                  20690322.1054
        23.5004         30.0004
  24393346.1024   -1921466.20043  -1330759.53842                  24393353.0084
         5.0004          1.7504
  21655888.1804    2771372.51347   2133300.20046                  21655893.8524
        21.0004         24.2504
  21730560.0864   -3922795.18547  -2991895.97447                  21730564.6454
        21.2504         27.0004
  22531731.5084   -7083104.10546  -5310441.87245                  22531738.2934
        13.2504         10.5004
  24942749.0164    4552270.09944   3430258.32542                  24942758.1604
         6.2504          2.2504
 00  5 16 15 19  0.0000000  0  7G 2G 4G 5G 7G 9G24G26
  22292898.4694    2363377.91046   1821593.37846                  22292904.7854
        17.2504         15.5004
  20686117.8524   -4265860.41047  -3264199.25147                  20686122.4574
        23.2504         29.5004
  24385150.6564   -1964536.17243  -1364320.48542                  24385155.9774
         5.7504          1.7504
  21660588.7274    2796074.32647   2152548.34746                  21660594.1294
        20.5004         24.0004
  21726676.7504   -3943202.00847  -3007797.38947                  21726681.4964
        21.5004         26.7504
  22522429.1484   -7131988.04546  -5348533.20345                  22522435.9344
        13.2504         10.5004
  24949643.4224    4588502.48144   3458491.27142                  24949651.4304
         6.2504          2.2504
 00  5 16 15 19 15.0000000  0  7G 2G 4G 5G 7G 9G24G26
  22297318.1334    2386604.85546   1839692.25546                  22297324.4264
        17.0004         15.7504
  20681947.1484   -4287776.74347  -3281276.90147                  20681951.7424
        23.5004         29.5004
  24376955.9384   -2007598.13443  -1397875.21843                  24376963.6994
         6.0004          2.5004
  21665298.7194    2820825.12947   2171834.66046                  21665304.1804
        20.5004         24.2504
  21722820.7504   -3963465.71847  -3023587.28847                  21722825.2624
        22.0004         27.0004
  22513141.2974   -7180794.00146  -5386563.75745                  22513147.7774
        13.5004         10.2504
  24956540.9064    4624748.07643   3486734.46442                  24956551.1644
         6.0004          2.2504
 00  5 16 15 19 30.0000000  0  7G 2G 4G 5G 7G 9G24G26
  22301754.8834    2409918.06546   1857858.33546                  22301761.3634
        16.7504         15.7504
  20677806.5004   -4309536.26547  -3298232.35847                  20677811.1174
        23.2504         29.5004
  24368763.4304   -2050650.27043  -1431422.30642                  24368771.0634
         5.5004          2.2504
  21670018.2584    2845626.30947   2191160.23446                  21670023.6724
        20.7504         24.2504
  21718992.2664   -3983584.45547  -3039264.21147                  21718996.5204
        21.7504         27.2504
  22503869.5394   -7229519.95646  -5424531.97945                  22503875.7504
        13.7504         10.7504
  24963441.2194    4661008.21843   3514989.07642                  24963450.3754
         6.0004          2.0004
 00  5 16 15 19 45.0000000  0  7G 2G 4G 5G 7G 9G24G26
  22306206.7114    2433313.92346   1876088.83146                  22306213.2384
        17.2504         15.7504
  20673695.0474   -4331142.42447  -3315068.31847                  20673699.6054
        23.0004         29.7504
  24360572.0554   -2093696.11643  -1464964.49242                  24360578.7934
         6.0004          2.0004
  21674746.5944    2870474.10247   2210522.13546                  21674752.1484
        20.2504         23.5004
  21715190.5474   -4003561.66747  -3054830.86947                  21715195.1294
        21.7504         27.0004
  22494611.5944   -7278169.33046  -5462440.53245                  22494617.9454
        13.7504         11.0004
  24970343.0394    4697278.88844   3543251.84942                  24970350.7194
         6.2504          1.7504
 00  5 16 15 20  0.0000000  0  7G 2G 4G 5G 7G 9G24G26
  22310675.2034    2456794.28346   1894385.16346                  22310681.7194
        16.5004         15.7504
  20669613.0554   -4352593.35147  -3331783.31447                  20669617.6604
        23.2504         29.5004
  24352382.2424   -2136733.83144  -1498500.30342                  24352390.0984
         6.2504          2.0004
  21679484.1884    2895370.10546   2229921.59846                  21679489.8364
        19.5004         23.5004
  21711416.5004   -4023395.40447  -3070285.72647                  21711421.1174
        21.5004         27.0004
  22485368.9694   -7326739.89246  -5500287.66145                  22485375.5904
        14.0004         10.2504
  24977248.0944    4733561.42044   3571523.83042                  24977259.0314
         6.2504          2.2504
 00  5 16 15 20 15.0000000  0  7G 2G 4G 5G 7G 9G24G26
  22315159.7664    2480361.21246   1912748.94146                  22315166.8134
        16.2504         15.7504
  20665561.0474   -4373886.85147  -3348375.64447                  20665565.5474
        23.2504         29.0004
  24344194.1334   -2179761.33943  -1532028.23043                  24344200.1334
         6.0004          2.5004
  21684231.4384    2920316.15647   2249360.05046                  21684237.0394
        20.0004         23.5004
  21707669.8524   -4043083.45247  -3085627.05547                  21707674.4924
        21.0004         27.2504
  22476141.7974   -7375229.33446  -5538071.60245                  22476148.8094
        13.5004         10.7504
  24984154.7974    4769857.60544   3599806.47442                  24984163.7194
         6.2504          2.0004
 00  5 16 15 20 30.0000000  0  7G 2G 4G 5G 7G 9G24G26
  22319660.7344    2504013.76646   1931179.44146                  22319667.6524
        16.2504         15.2504
  20661538.8204   -4395023.56847  -3364845.80147                  20661543.1804
        23.0004         29.2504
  24336008.0234   -2222779.51543  -1565548.84242                  24336012.3594
         6.0004          1.7504
  21688987.8834    2945311.17847   2268836.66546                  21688993.5554
        20.2504         23.5004
  21703950.8914   -4062626.69947  -3100855.55947                  21703955.5904
        21.7504         27.5004
  22466929.8594   -7423638.39946  -5575792.92545                  22466936.8134
        13.5004         11.0004
  24991064.2504    4806166.10444   3628098.73442                  24991072.8324
         6.7504          2.0004
 00  5 16 15 20 45.0000000  0  7G 2G 4G 5G 7G 9G24G26
  22324178.0394    2527751.90946   1949676.64446                  22324184.6844
        16.5004         15.5004
  20657546.5474   -4416003.56347  -3381193.83947                  20657551.2704
        22.7504         29.0004
  24327824.1724   -2265788.38244  -1599062.20942                  24327829.7854
         6.5004          1.7504
  21693753.5704    2970354.89547   2288351.23046                  21693759.3484
        20.2504         24.2504
  21700259.6414   -4082024.98447  -3115971.10247                  21700264.2814
        21.2504         27.5004
  22457733.1804   -7471966.64846  -5613451.25245                  22457739.8714
        13.2504         11.2504
  24997975.7894    4842486.46644   3656400.21442                  24997983.9144
         6.2504          1.7504
 00  5 16 15 21  0.0000000  0  7G 2G 4G 5G 7G 9G24G26
  22328711.3984    2551574.35646   1968239.54546                  22328718.0434
        16.5004         15.0004
  20653583.8364   -4436827.97147  -3397420.63447                  20653588.4184
        23.2504         29.5004
  24319640.4614   -2308789.16644  -1632569.28542                  24319648.0354
         6.2504          2.0004
  21698528.2664    2995445.79547   2307902.55546                  21698533.9964
        20.5004         24.2504
  21696595.3754   -4101279.39747  -3130974.54447                  21696600.0274
        21.2504         27.2504
  22448551.8524   -7520215.22546  -5651047.50145                  22448558.2384
        14.0004         11.5004
  25004889.4304    4878816.92844   3684709.63742                  25004897.2974
         6.2504          2.0004
 00  5 16 15 21 15.0000000  0  7G 2G 4G 5G 7G 9G24G26
  22333261.1564    2575483.52046   1986870.01246                  22333268.1334
        16.2504         15.0004
  20649651.1564   -4457494.20447  -3413524.18647                  20649655.3634
        23.5004         29.2504
  24311460.8674   -2351779.34244  -1666068.08042                  24311466.0944
         6.5004          2.2504
  21703312.0944    3020586.22247   2327492.47646                  21703317.7894
        20.2504         24.5004
  21692959.6414   -4120387.42547  -3145863.91047                  21692964.1414
        21.7504         27.2504
  22439386.2344   -7568381.45146  -5688579.59145                  22439392.9844
        14.2504         11.7504
  25011804.7734    4915159.61143   3713028.48142                  25011814.2464
         5.7504          1.7504
 00  5 16 15 21 30.0000000  0  7G 2G 4G 5G 7G 9G24G26
  22337827.5784    2599479.11346   2005567.81946                  22337834.2934
        16.2504         15.0004
  20645748.3914   -4478002.49547  -3429504.66647                  20645752.6914
        23.0004         29.7504
  24303281.1334   -2394759.28444  -1699558.91642                  24303288.2154
         6.2504          2.0004
  21708105.6804    3045775.42447   2347120.40346                  21708111.6684
        20.0004         24.2504
  21689351.1174   -4139349.30447  -3160639.39747                  21689355.4534
        21.2504         27.2504
  22430235.8204   -7616465.28846  -5726047.47146                  22430242.6914
        14.2504         12.5004
  25018723.9144    4951513.84343   3741356.38242                  25018731.4534
         5.7504          2.0004
 00  5 16 15 21 45.0000000  0  7G 2G 4G 5G 7G 9G24G26
  22342410.0004    2623560.77346   2024332.69646                  22342416.7154
        16.5004         15.2504
  20641875.8134   -4498353.01847  -3445362.20347                  20641880.3714
        22.5004         29.5004
  24295104.7664   -2437729.25844  -1733041.93142                  24295111.2464
         6.2504          2.2504
  21712908.2034    3071012.98547   2366786.01546                  21712914.1094
        20.5004         24.7504
  21685770.7584   -4158165.36147  -3175301.25447                  21685775.1524
        21.7504         27.2504
  22421101.8134   -7664466.89646  -5763451.27546                  22421108.2344
        14.2504         12.0004
  25025643.2344    4987878.75943   3769692.61742                  25025650.7034
         5.0004          1.7504
 00  5 16 15 22  0.0000000  0  7G 2G 4G 5G 7G 9G24G26
  22347008.7734    2647727.36546   2043163.76046                  22347015.6454
        16.2504         15.2504
  20638033.0084   -4518546.81947  -3461097.61747                  20638037.8364
        22.7504         29.5004
  24286928.5234   -2480690.21944  -1766517.96742                  24286935.9574
         6.7504          2.2504
  21717719.7814    3096297.58047   2386488.27946                  21717725.7114
        20.2504         24.2504
  21682217.4844   -4176836.43447  -3189850.13647                  21682222.0904
        21.2504         27.2504
  22411982.6724   -7712387.06646  -5800791.62146                  22411989.4104
        14.2504         12.5004
  25032565.2664    5024252.95443   3798036.07741                  25032573.7304
         5.0004          1.2504
 00  5 16 15 22 15.0000000  0  7G 2G 4G 5G 7G 9G24G26
  22351624.2814    2671981.28346   2062062.85846                  22351631.2234
        15.7504         14.7504
  20634220.6254   -4538581.42947  -3476708.99447                  20634225.0784
        23.5004         30.0004
  24278756.1484   -2523639.80744  -1799985.17442                  24278762.1724
         6.7504          2.2504
  21722540.7734    3121631.43447   2406228.91246                  21722546.4454
        21.0004         24.0004
  21678692.5784   -4195360.04447  -3204284.11947                  21678697.1724
        21.7504         27.0004
  22402879.7814   -7760223.05846  -5838066.37645                  22402886.6524
        14.0004         11.5004
  25039489.5394    5060638.34542   3826388.18041                  25039500.8404
         4.5004          1.2504
 00  5 16 15 22 30.0000000  0  7G 2G 4G 5G 7G 9G24G26
  22356255.8914    2696320.21646   2081028.19946                  22356262.7114
        15.7504         14.2504
  20630438.0474   -4558458.82247  -3492197.86647                  20630442.4774
        23.5004         30.0004
  24270584.5004   -2566580.20744  -1833445.19643                  24270590.1724
         6.7504          2.5004
  21727370.4844    3147011.96447   2426005.92646                  21727376.2974
        21.0004         24.2504
  21675195.3364   -4213738.41547  -3218604.91947                  21675200.0704
        21.2504         26.7504
  22393792.5084   -7807976.95246  -5875277.17045                  22393799.3054
        14.2504         11.5004
  25046415.1884    5097032.30842   3854747.01541                  25046422.1884
         4.5004          1.0004
 00  5 16 15 22 45.0000000  0  7G 2G 4G 5G 7G 9G24G26
  22360904.0004    2720746.45446   2100061.58446                  22360910.3634
        16.2504         13.5004
  20626685.7504   -4578176.73547  -3507562.46447                  20626690.5084
        22.5004         29.2504
  24262415.5554   -2609508.93244  -1866896.10842                  24262421.4264
         7.0004          2.2504
  21732209.2034    3172441.36247   2445821.02546                  21732214.6294
        21.0004         24.2504
  21671726.2664   -4231969.00347  -3232810.57347                  21671731.0234
        21.0004         26.7504
  22384721.4224   -7855645.96646  -5912421.81446                  22384728.1134
        14.7504         12.0004
  25053342.4614    5133436.89842   3883114.08641                  25053348.6484
         4.5004          1.2504
 00  5 16 15 23  0.0000000  0  7G 2G 4G 5G 7G 9G24G26
  22365568.8284    2745259.98946   2119162.98546                  22365575.1684
        16.2504         13.7504
  20622964.2114   -4597735.05847  -3522802.69647                  20622969.2274
        22.7504         29.7504
  24254248.5084   -2652426.15444  -1900338.06342                  24254255.5204
         6.5004          2.2504
  21737057.8444    3197919.41047   2465674.03046                  21737063.3874
        21.2504         24.2504
  21668285.2584   -4250051.78647  -3246901.04647                  21668289.7464
        21.5004         26.2504
  22375666.3284   -7903230.10046  -5949500.33546                  22375673.1604
        14.5004         12.5004
  25060271.8834    5169851.44642   3911489.03441                  25060279.3284
         4.5004          1.2504
 00  5 16 15 23 15.0000000  0  7G 2G 4G 5G 7G 9G24G26
  22370250.2894    2769859.89146   2138331.68646                  22370257.1724
        16.2504         13.5004
  20619272.4224   -4617134.57747  -3537919.19447                  20619276.9924
        23.5004         30.5004
  24246083.5864   -2695332.73444  -1933771.69043                  24246089.6094
         6.2504          2.7504
  21741915.0084    3223444.82547   2485563.93946                  21741920.5634
        21.0004         23.7504
  21664872.0314   -4267987.53547  -3260876.94647                  21664876.5554
        21.2504         26.5004
  22366627.2504   -7950729.96546  -5986513.17546                  22366634.1914
        14.7504         12.5004
  25067204.2894    5206274.76542   3939870.78741                  25067210.7814
         4.5004          1.2504
 00  5 16 15 23 30.0000000  0  7G 2G 4G 5G 7G 9G24G26
  22374947.9064    2794546.51546   2157567.96246                  22374954.3284
        15.7504         13.5004
  20615611.1804   -4636374.76947  -3552911.54447                  20615615.6804
        23.7504         30.5004
  24237921.4534   -2738228.12344  -1967196.62242                  24237929.0164
         6.7504          2.0004
  21746781.6414    3249017.95947   2505491.03646                  21746787.1724
        20.7504         23.5004
  21661487.2274   -4285775.78447  -3274737.91747                  21661491.7974
        21.2504         26.2504
  22357604.5634   -7998144.78946  -6023459.75046                  22357611.5044
        14.7504         12.7504
  25074135.3594    5242706.82142   3968259.29541                  25074140.3984
         4.5004          1.2504
 00  5 16 15 23 45.0000000  0  7G 2G 4G 5G 7G 9G24G26
  22379662.0234    2819318.31646   2176870.60746                  22379668.9414
        16.2504         13.5004
  20611979.9774   -4655457.23647  -3567780.99047                  20611984.7464
        23.5004         30.2504
  24229760.4454   -2781113.84444  -2000614.06143                  24229766.4694
         6.2504          2.5004
  21751656.6414    3274636.97747   2525453.88646                  21751662.2194
        21.2504         23.7504
  21658129.8204   -4303418.02647  -3288485.11247                  21658134.4024
        21.0004         26.2504
  22348597.6174   -8045475.83146  -6060341.04046                  22348604.0634
        14.7504         12.7504
  25081070.1094    5279145.57442   3996652.99941                  25081075.4064
         4.2504          1.2504
 00  5 16 15 24  0.0000000  0  6G 2G 4G 5G 7G 9G24
  22384392.1174    2844176.36846   2196240.46846                  22384398.9494
        16.2504         13.7504
  20608378.8914   -4674380.73047  -3582526.55747                  20608383.6604
        23.0004         30.5004
  24221601.5784   -2823988.76944  -2034023.03542                  24221608.0354
         6.2504          2.2504
  21756540.6484    3300302.77747   2545453.19846                  21756546.2154
        20.5004         23.7504
  21654800.7894   -4320913.06147  -3302117.60447                  21654805.2424
        21.0004         26.0004
  22339607.0314   -8092721.90546  -6097156.11846                  22339613.7814
        14.2504         12.2504
 00  5 16 15 24 15.0000000  0  6G 2G 4G 5G 7G 9G24
  22389139.0554    2869121.74846   2215678.36146                  22389146.3714
        16.7504         13.5004
  20604808.3364   -4693143.88947  -3597147.19147                  20604813.0824
        23.2504         30.5004
  24213444.4924   -2866851.79443  -2067422.74143                  24213450.6914
         5.7504          2.5004
  21761433.8284    3326016.22847   2565489.62946                  21761439.4534
        20.7504         23.5004
  21651499.6564   -4338259.64347  -3315634.41247                  21651504.0864
        21.2504         26.0004
  22330632.7274   -8139881.54946  -6133903.85646                  22330639.3014
        14.2504         12.2504
 00  5 16 15 24 30.0000000  0  6G 2G 4G 5G 7G 9G24
  22393902.8134    2894153.75846   2235183.75946                  22393909.0234
        17.2504         13.5004
  20601268.2664   -4711747.31447  -3611643.35147                  20601272.9304
        23.5004         31.0004
  24205289.9384   -2909703.49543  -2100813.64443                  24205294.5784
         6.0004          2.5004
  21766336.2114    3351776.48947   2585562.53146                  21766341.6374
        21.0004         23.5004
  21648227.0944   -4355458.33847  -3329035.99647                  21648231.5124
        20.7504         25.7504
  22321674.9844   -8186955.07246  -6170584.48645                  22321681.4534
        14.2504         11.5004
 00  5 16 15 24 45.0000000  0  6G 2G 4G 5G 7G 9G24
  22398682.7814    2919272.55846   2254756.79646                  22398689.0164
        17.0004         13.5004
  20597758.5164   -4730190.86147  -3626014.93747                  20597763.2154
        23.5004         31.0004
  24197138.0864   -2952543.61943  -2134195.54343                  24197145.3674
         5.7504          3.0004
  21771246.8204    3377583.55547   2605671.90546                  21771252.2584
        20.7504         23.5004
  21644982.2894   -4372508.81847  -3342322.08147                  21644986.9654
        21.2504         26.0004
  22312733.6414   -8233942.12546  -6207197.74445                  22312740.2734
        14.7504         11.7504
 00  5 16 15 25  0.0000000  0  6G 2G 4G 5G 7G 9G24
  22403479.4924    2944479.84946   2274398.77746                  22403485.9494
        17.0004         13.5004
  20594279.5704   -4748472.61847  -3640260.45447                  20594284.3164
        23.5004         31.0004
  24188988.8054   -2995370.43843  -2167567.00443                  24188996.6134
         5.7504          2.7504
  21776167.2664    3403438.85547   2625818.86246                  21776172.9844
        20.5004         23.7504
  21641766.2734   -4389409.33847  -3355491.30847                  21641770.6804
        20.7504         26.2504
  22303809.2584   -8280840.52046  -6243741.91146                  22303815.5864
        15.0004         12.2504
 00  5 16 15 25 15.0000000  0  6G 2G 4G 5G 7G 9G24
  22408292.9144    2969774.27646   2294108.65746                  22408299.4774
        17.0004         14.2504
  20590831.3134   -4766593.85747  -3654380.88947                  20590835.8954
        23.5004         31.0004
  24180840.8524   -3038185.28743  -2200929.17543                  24180847.3444
         5.2504          2.7504
  21781095.9774    3429340.93647   2646002.27646                  21781101.7774
        20.5004         23.5004
  21638578.3914   -4406161.16547  -3368544.67847                  21638583.0204
        21.0004         25.7504
  22294901.1724   -8327651.62446  -6280218.06346                  22294907.4184
        15.5004         12.2504
 00  5 16 15 25 30.0000000  0  6G 2G 4G 5G 7G 9G24
  22413122.9774    2995155.10746   2313885.86446                  22413130.2234
        16.7504         14.0004
  20587413.1804   -4784555.31747  -3668376.81947                  20587417.7854
        23.5004         31.0004
  24172696.1024   -3080988.73543  -2234282.48043                  24172703.5004
         5.7504          2.5004
  21786033.9534    3455288.85547   2666221.41146                  21786039.8594
        20.5004         23.5004
  21635418.7894   -4422764.88147  -3381482.63347                  21635423.4064
        21.0004         26.0004
  22286010.5234   -8374375.79646  -6316626.48046                  22286017.0514
        15.5004         12.7504
 00  5 16 15 25 45.0000000  0  6G 2G 4G 5G 7G 9G24
  22417969.5634    3020623.79446   2333731.53046                  22417976.6094
        17.0004         14.0004
  20584026.0634   -4802355.17647  -3682246.83047                  20584030.6914
        23.7504         31.2504
  24164553.0084   -3123779.20943  -2267625.63042                  24164560.0664
         5.5004          2.2504
  21790980.6094    3481283.85847   2686477.23446                  21790986.2934
        20.2504         23.2504
  21632287.6804   -4439218.93147  -3394303.97447                  21632292.2154
        21.2504         25.7504
  22277135.2584   -8421011.25246  -6352965.74946                  22277141.7504
        15.5004         12.7504
 00  5 16 15 26  0.0000000  0  6G 2G 4G 5G 7G 9G24
  22422832.5234    3046181.00346   2353646.16846                  22422839.4184
        16.5004         14.2504
  20580669.7034   -4819993.02147  -3695990.59547                  20580674.2154
        24.0004         31.5004
  24156412.8984   -3166556.09043  -2300958.25443                  24156419.4844
         5.7504          2.5004
  21795936.2274    3507326.40847   2706770.10646                  21795942.0044
        20.2504         23.2504
  21629185.3594   -4455522.54147  -3407008.07747                  21629189.7774
        21.7504         26.5004
  22268278.4224   -8467556.99546  -6389235.12346                  22268285.2074
        15.5004         12.5004
 00  5 16 15 26 15.0000000  0  6G 2G 4G 5G 7G 9G24
  22427712.8594    3071825.47446   2373628.81546                  22427720.1524
        16.2504         14.2504
  20577344.1414   -4837469.80147  -3709608.85447                  20577348.7464
        24.2504         31.2504
  24148275.0864   -3209320.57643  -2334281.16443                  24148281.3324
         6.0004          3.0004
  21800901.0164    3533415.00747   2727098.86246                  21800906.7344
        20.2504         23.0004
  21626111.0704   -4471676.86147  -3419595.85547                  21626115.3364
        21.7504         26.5004
  22259437.5784   -8514014.19946  -6425435.51146                  22259444.1174
        15.5004         12.5004
 00  5 16 15 26 30.0000000  0  6G 2G 4G 5G 7G 9G24
  22432609.5634    3097557.32046   2393679.52246                  22432616.7034
        16.2504         14.2504
  20574049.0944   -4854785.26947  -3723101.42147                  20574053.6524
        24.0004         31.2504
  24140140.0394   -3252072.38944  -2367594.23943                  24140147.0634
         6.7504          2.7504
  21805873.9694    3559549.70047   2747463.53246                  21805879.5704
        20.2504         23.0004
  21623065.6254   -4487681.59047  -3432067.06847                  21623069.9384
        21.7504         26.5004
  22250613.8754   -8560382.14646  -6461566.34246                  22250620.4024
        15.0004         13.2504
 00  5 16 15 26 45.0000000  0  6G 2G 4G 5G 7G 9G24
  22437522.8204    3123376.49846   2413798.29946                  22437530.0084
        16.2504         14.2504
  20570784.5864   -4871939.48447  -3736468.33147                  20570789.1564
        24.2504         31.0004
  24132006.4144   -3294811.48744  -2400897.37343                  24132014.2114
         6.7504          2.7504
  21810855.9614    3585730.17047   2767863.87646                  21810861.7624
        20.0004         22.2504
  21620048.5084   -4503536.66347  -3444421.66747                  21620053.0084
        21.0004         26.0004
  22241807.3054   -8606660.91246  -6497627.68546                  22241814.1994
        14.7504         13.0004
 00  5 16 15 27  0.0000000  0  6G 2G 4G 5G 7G 9G24
  22442452.8834    3149283.98546   2433985.87846                  22442460.0004
        15.7504         14.0004
  20567551.1884   -4888931.34647  -3749708.73647                  20567555.5704
        24.5004         31.0004
  24123875.4774   -3337536.91044  -2434189.88443                  24123880.7504
         6.7504          3.0004
  21815846.8834    3611957.16047   2788300.46146                  21815852.8134
        20.0004         22.2504
  21617060.1174   -4519241.09047  -3456658.89047                  21617064.6414
        21.0004         26.2504
  22233018.0314   -8652849.06946  -6533618.41646                  22233024.7464
        15.2504         12.5004
 00  5 16 15 27 15.0000000  0  6G 2G 4G 5G 7G 9G24
  22447399.8594    3175279.53046   2454242.08546                  22447407.2704
        15.5004         14.0004
  20564348.7974   -4905760.77647  -3762822.57047                  20564353.0634
        24.5004         31.0004
  24115748.2344   -3380248.63544  -2467471.70143                  24115754.5514
         6.5004          3.0004
  21820846.6644    3638230.43747   2808773.10946                  21820852.3714
        20.2504         22.2504
  21614100.2974   -4534794.88647  -3468778.72947                  21614104.4454
        21.7504         26.0004
  22224245.9454   -8698946.51746  -6569538.46446                  22224252.7664
        15.2504         13.5004
 00  5 16 15 27 30.0000000  0  6G 2G 4G 5G 7G 9G24
  22452363.1884    3201363.66146   2474567.31446                  22452370.5984
        15.5004         14.0004
  20561177.2894   -4922427.30847  -3775809.47147                  20561181.6374
        24.0004         30.5004
  24107623.6724   -3422946.06644  -2500742.35343                  24107631.4804
         6.7504          3.0004
  21825854.9924    3664550.34147   2829282.10046                  21825860.8284
        20.0004         22.2504
  21611169.2734   -4550197.42347  -3480780.70547                  21611173.2704
        22.0004         26.7504
  22215491.4144   -8744952.41146  -6605387.16646                  22215497.5084
        15.5004         13.0004
 00  5 16 15 27 45.0000000  0  6G 2G 4G 5G 7G 9G24
  22457344.0704    3227537.72546   2494962.61546                  22457351.2234
        15.5004         13.7504
  20558036.8524   -4938929.32447  -3788668.17247                  20558041.2464
        24.2504         30.7504
  24099500.8754   -3465627.89944  -2534000.92844                  24099507.0744
         6.7504          3.5004
  21830872.6804    3690918.04647   2849828.33846                  21830878.4224
        20.5004         22.2504
  21608267.4064   -4565447.26747  -3492663.69047                  21608271.6374
        21.7504         26.7504
  22206754.3594   -8790865.23246  -6641163.35846                  22206760.5004
        15.7504         13.5004
 00  5 16 15 28  0.0000000  0  6G 2G 4G 5G 7G 9G24
  22462341.9534    3253799.85546   2515426.55346                  22462349.4924
        15.0004         14.2504
  20554927.6024   -4955268.74147  -3801400.18047                  20554932.0204
        24.5004         31.0004
  24091381.7504   -3508295.87144  -2567248.63743                  24091388.0784
         7.0004          3.2504
  21835899.0554    3717331.43047   2870410.17046                  21835904.8554
        20.5004         22.7504
  21605394.0944   -4580546.16947  -3504429.06847                  21605398.4884
        21.2504         26.7504
  22198034.8594   -8836686.46646  -6676868.17846                  22198041.1644
        15.2504         13.2504
 00  5 16 15 28 15.0000000  0  6G 2G 4G 5G 7G 9G24
  22467356.2734    3280151.10446   2535959.92346                  22467363.6254
        15.0004         13.5004
  20551849.5864   -4971444.40547  -3814004.58347                  20551853.8054
        24.2504         31.2504
  24083265.3364   -3550948.85644  -2600484.68243                  24083271.4884
         7.2504          3.2504
  21840934.0234    3743791.34447   2891028.25846                  21840939.7774
        20.2504         22.7504
  21602549.7974   -4595492.85247  -3516075.83647                  21602554.3094
        21.5004         26.5004
  22189333.1174   -8882414.83846  -6712500.63146                  22189339.3404
        15.5004         13.5004
 00  5 16 15 28 30.0000000  0  6G 2G 4G 5G 7G 9G24
  22472387.9064    3306592.69546   2556563.69246                  22472395.3634
        15.7504         14.5004
  20548802.8674   -4987454.87547  -3826480.26647                  20548807.2854
        24.2504         30.2504
  24075151.8054   -3593585.53944  -2633708.03043                  24075157.3364
         7.2504          3.0004
  21845978.7034    3770298.92947   2911683.49746                  21845984.6454
        20.5004         23.5004
  21599734.7114   -4610286.05347  -3527603.00047                  21599739.0944
        21.5004         26.5004
  22180649.1484   -8928048.75546  -6748059.48946                  22180655.6764
        15.5004         14.0004
 00  5 16 15 28 45.0000000  0  6G 2G 4G 5G 7G 9G24
  22477436.6644    3333122.88546   2577236.45046                  22477445.0124
        15.7504         12.0004
  20545787.0234   -5003301.99847  -3838828.66747                  20545791.3244
        24.2504         30.2504
  24067040.9694   -3636207.48745  -2666919.92243                  24067046.7934
         7.5004          3.0004
  21851031.2974    3796852.23647   2932374.37046                  21851036.8874
        20.7504         22.5004
  21596948.9694   -4624927.45447  -3539011.88947                  21596953.3404
        21.7504         26.7504
  22171982.8834   -8973589.78446  -6783545.96646                  22171989.1994
        15.5004         13.7504
 00  5 16 15 29  0.0000000  0  6G 2G 4G 5G 7G 9G24
  22482502.2504    3359741.88646
        16.0004
  20542802.7504   -5018985.40947  -3851049.49947                  20542806.8984
        24.5004         30.7504
  24058932.5634   -3678814.47645  -2700120.11944                  24058938.8204
         7.5004          3.5004
  21856093.0234    3823451.35247   2953100.91146                  21856098.8594
        20.7504         22.7504
  21594191.2664   -4639416.67047  -3550302.18447                  21594195.5904
        21.5004         27.0004
  22163334.5394   -9019037.30446  -6818959.57846                  22163341.2424
        15.5004         14.0004
 00  5 16 15 29 15.0000000  0  6G 2G 4G 5G 7G 9G24
  22487583.9774    3386446.81046
        15.7504
  20539848.8364   -5034507.79647  -3863144.86247                  20539853.1024
        24.2504         31.0004
  24050827.2814   -3721409.35345  -2733310.90143                  24050833.3404
         7.7504          3.2504
  21861162.8834    3850093.14747   2973860.71746                  21861168.7774
        20.5004         22.7504
  21591462.8594   -4653756.50847  -3561476.08447                  21591467.0204
        21.7504         27.0004
  22154703.4224   -9064393.92646  -6854302.36146                  22154709.9964
        15.5004         13.7504
 00  5 16 15 29 30.0000000  0  6G 2G 4G 5G 7G 9G24
  22492682.5554    3413240.34946     11141.49456                  22492689.6484
        16.2504         13.5004
  20536926.4384   -5049866.43947  -3875112.62947                  20536930.8554
        24.0004         30.2504
  24042725.0234   -3763989.28645  -2766490.02043                  24042730.8594
         7.7504          3.0004
  21866241.0474    3876780.17547   2994655.77446                  21866246.9414
        20.5004         23.0004
  21588762.9304   -4667944.18347  -3572531.41647                  21588767.0434
        22.0004         27.2504
  22146090.0474   -9109656.72046  -6889572.02546                  22146096.3874
        15.7504         14.2504
 00  5 16 15 29 45.0000000  0  6G 2G 4G 5G 7G 9G24
  22497798.3984    3440123.19346     32089.09646                  22497805.5864
        16.2504         13.7504
  20534034.8134   -5065060.66447  -3886952.27847                  20534039.2774
        23.5004         30.2504
  24034625.3754   -3806553.50145  -2799656.91943                  24034631.7974
         8.2504          3.2504
  21871328.3204    3903512.85847   3015486.40346                  21871334.2274
        20.2504         22.5004
  21586092.0634   -4681978.95547  -3583467.60347                  21586096.4344
        22.0004         27.5004
  22137494.9384   -9154824.80646  -6924767.89246                  22137501.3594
        16.2504         14.5004
 00  5 16 15 30  0.0000000  0  6G 2G 4G 5G 7G 9G24
  22502930.6724    3467095.49746     53106.41046                  22502937.6954
        16.2504         12.7504
  20531174.7894   -5080090.22147  -3898663.61147                  20531179.3484
        24.0004         30.2504
  24026528.3594   -3849101.85045  -2832811.47943                  24026533.4924
         7.7504          2.7504
  21876424.0634    3930291.10947   3036352.53946                  21876430.1214
        20.0004         22.5004
  21583450.6484   -4695860.65847  -3594284.51547                  21583454.8204
        22.0004         27.5004
  22128917.9694   -9199897.74546  -6959889.61946                  22128924.6024
        16.2504         15.0004
 00  5 16 15 30 15.0000000  0  6G 2G 4G 5G 7G 9G24
  22508080.7584    3494156.86846     74193.11246                  22508088.0514
        16.0004         13.5004
  20528346.2274   -5094955.30447  -3910246.78947                  20528350.4454
        24.2504         30.2504
  24018434.4924   -3891634.57245  -2865953.80243                  24018440.6684
         8.0004          3.0004
  21881528.1954    3957114.49047   3057253.84546                  21881534.1954
        20.2504         22.5004
  21580838.1724   -4709589.60147  -3604982.39247                  21580842.3554
        21.7504         27.0004
  22120358.6334   -9244875.55246  -6994937.21046                  22120365.2194
        15.7504         15.2504
 00  5 16 15 30 30.0000000  0  6G 2G 4G 5G 7G 9G24
  22513247.4924    3521308.15646     95349.88046                  22513254.5044
        15.7504         12.5004
  20525548.7894   -5109654.97547  -3921701.07647                  20525553.0204
        24.0004         30.2504
  24010343.2034   -3934150.69944  -2899083.24743                  24010348.3834
         7.2504          2.7504
  21886641.3674    3983983.62146   3078190.80146                  21886647.2504
        19.7504         22.5004
  21578254.7734   -4723164.72147  -3615560.41347                  21578259.0394
        21.5004         27.2504
  22111818.0474   -9289757.09346  -7029909.79546                  22111824.7734
        15.7504         15.0004
 00  5 16 15 30 45.0000000  0  6G 2G 4G 5G 7G 9G24
  22518430.6174    3548546.73046    116574.66946                  22518437.1564
        15.7504         12.2504
  20522782.4304   -5124191.77747  -3933028.44647                  20522786.7074
        24.0004         30.2504
  24002256.0554   -3976652.73045  -2932201.66343                  24002261.8674
         7.5004          2.7504
  21891762.7664    4010895.85847   3099161.33346                  21891768.6844
        20.0004         22.2504
  21575700.3284   -4736588.51947  -3626020.51547                  21575704.7464
        21.5004         27.2504
  22103295.0784   -9334544.77746  -7064809.25046                  22103301.6524
        16.0004         15.0004
 00  5 16 15 31  0.0000000  0  6G 2G 4G 5G 7G 9G24
  22523631.5234    3575875.25646    137869.54246                  22523638.3444
        15.5004         12.0004
  20520047.8524   -5138563.02247  -3944226.81247                  20520052.2344
        24.2504         30.2504
  23994171.2974   -4019137.88144  -2965306.93543                  23994176.8874
         6.7504          2.5004
  21896892.7034    4037853.65247   3120167.36946                  21896898.5634
        20.2504         22.5004
  21573175.1564   -4749858.20047  -3636360.52447                  21573179.4924
        21.7504         27.2504
  22094791.1024   -9379235.55746  -7099633.20146                  22094797.6764
        15.7504         14.7504
 00  5 16 15 31 15.0000000  0  6G 2G 4G 5G 7G 9G24
  22528848.9774    3603293.18146    159234.07845                  22528855.9534
        15.2504         11.7504
  20517344.6484   -5152769.05647  -3955296.44447                  20517348.9144
        24.2504         30.0004
  23986089.6254   -4061606.61544  -2998399.42343                  23986095.9304
         7.0004          2.5004
  21902031.2814    4064856.30947   3141208.37346                  21902037.1294
        20.0004         22.0004
  21570679.2734   -4762974.25647  -3646580.82747                  21570683.6214
        21.7504         27.7504
  22086304.4924   -9423829.62946  -7134381.77746                  22086311.1844
        16.0004         15.0004
 00  5 16 15 31 30.0000000  0  6G 2G 4G 5G 7G 9G24
  22534083.2894    3630800.48046    180668.26745                  22534090.7234
        14.7504         11.5004
  20514672.7504   -5166809.86947  -3966237.32847                  20514677.0164
        24.2504         30.5004
  23978011.8134   -4104059.02444  -3031479.18843                  23978018.3984
         7.2504          3.0004
  21907178.0084    4091903.52147   3162284.09846                  21907184.0204
        20.2504         22.0004
  21568212.5004   -4775936.61847  -3656681.37347                  21568217.0354
        21.7504         27.7504
  22077837.4064   -9468326.78846  -7169054.84346                  22077843.7704
        16.2504         15.2504
 00  5 16 15 31 45.0000000  0  6G 2G 4G 5G 7G 9G24
  22539335.1644    3658398.59646    202173.21545                  22539342.7274
        15.0004         11.2504
  20512032.5704   -5180683.97347  -3977048.31747                  20512036.8714
        23.7504         30.2504
  23969936.2034   -4146493.41945  -3064544.88243                  23969943.4844
         7.5004          2.7504
  21912333.7974    4118996.64147   3183395.58246                  21912339.7274
        20.2504         21.7504
  21565775.4454   -4788743.78047  -3666660.98247                  21565779.9104
        22.0004         27.7504
  22069388.1884   -9512725.43246  -7203651.14846                  22069394.7384
        16.0004         15.2504
 00  5 16 15 32  0.0000000  0  6G 2G 4G 5G 7G 9G24
  22544603.8364    3686085.28446    223747.19445                  22544611.3874
        14.5004         11.7504
  20509423.6724   -5194393.62347  -3987731.15447                  20509427.9614
        23.7504         30.2504
  23961863.7274   -4188911.92444  -3097598.27443                  23961869.6914
         7.0004          2.7504
  21917497.6484    4146133.30247   3204540.99446                  21917503.6484
        20.0004         21.7504
  21563367.4064   -4801397.85647  -3676521.29647                  21563371.9064
        22.0004         28.2504
  22060958.0784   -9557027.35846  -7238172.07846                  22060964.5474
        16.5004         16.0004
 00  5 16 15 32 15.0000000  0  6G 2G 4G 5G 7G 9G24
  22549889.2664    3713860.45946    245390.10745                  22549896.6644
        14.5004         11.5004
  20506846.0234   -5207938.59547  -3998285.67047                  20506850.4774
        23.7504         29.7504
  23953795.1414   -4231314.54444  -3130639.21143                  23953801.3634
         7.0004          2.7504
  21922669.9924    4173313.23747   3225720.12346                  21922675.8874
        20.2504         22.5004
  21560988.5084   -4813898.83447  -3686262.32247                  21560993.1024
        21.7504         28.0004
  22052545.8284   -9601232.50346  -7272617.60346                  22052552.4614
        16.2504         16.2504
 00  5 16 15 32 30.0000000  0  6G 2G 4G 5G 7G 9G24
  22555191.7734    3741724.74846    267102.47345                  22555198.7854
        14.5004         11.2504
  20504299.8674   -5221318.30647  -4008711.41547                  20504304.2154
        23.7504         30.0004
  23945729.9924   -4273700.52144  -3163667.21943                  23945736.9804
         6.2504          2.7504
  21927850.5864    4200536.89146   3246933.32846                  21927856.4574
        19.7504         22.0004
  21558638.9384   -4826245.92547  -3695883.43847                  21558643.3324
        21.5004         27.7504
  22044152.7194   -9645339.70246  -7306986.80246                  22044159.3404
        16.2504         16.2504
 00  5 16 15 32 45.0000000  0  6G 2G 4G 5G 7G 9G24
  22560511.3674    3769679.73546    288885.50645                  22560518.1414
        14.2504         11.2504
  20501785.5004   -5234531.09047  -4019007.09047                  20501790.0234
        23.5004         30.0004
  23937666.8984   -4316068.28344  -3196681.00643                  23937673.7584
         6.5004          3.0004
  21933039.5784    4227805.67346   3268181.69446                  21933045.4844
        19.7504         22.0004
  21556319.0864   -4838437.47847  -3705383.35547                  21556323.8094
        21.7504         28.2504
  22035778.5164   -9689347.34446  -7341278.42746                  22035784.8674
        16.5004         16.0004
 00  5 16 15 33  0.0000000  0  6G 2G 4G 5G 7G 9G24
  22565848.5704    3797725.84446    310739.54145                  22565855.7234
        14.7504         11.2504
  20499303.2584   -5247576.45147  -4029172.29947                  20499307.6994
        23.2504         29.2504
  23929607.9454   -4358417.25744  -3229680.20543                  23929615.3204
         6.5004          2.7504
  21938237.2974    4255119.88846   3289465.47746                  21938243.2274
        19.5004         22.2504
  21554028.9614   -4850473.01647  -3714761.69847                  21554033.6024
        22.0004         28.2504
  22027422.9534   -9733254.55046  -7375491.79046                  22027429.3284
        16.5004         15.7504
 00  5 16 15 33 15.0000000  0  6G 2G 4G 5G 7G 9G24
  22571202.6174    3825861.69446    332663.49346                  22571209.7234
        15.2504         12.2504
  20496852.3204   -5260455.67447  -4039208.05147                  20496856.8324
        23.5004         29.0004
  23921553.2274   -4400748.70445  -3262665.68643                  23921559.3094
         7.5004          2.7504
  21943443.3914    4282477.96846   3310783.42246                  21943449.2734
        19.0004         21.5004
  21551768.1094   -4862353.88247  -3724019.51647                  21551772.6094
        21.7504         28.2504
  22019086.5474   -9777062.52346  -7409627.82746                  22019092.9694
        17.0004         16.2504
 00  5 16 15 33 30.0000000  0  6G 2G 4G 5G 7G 9G24
  22576573.8054    3854086.33646    354656.64246                  22576581.6604
        15.0004         12.7504
  20494432.9224   -5273169.68447  -4049115.06847                  20494437.4344
        23.5004         29.2504
  23913500.5084   -4443063.45244  -3295638.19043                  23913507.2464
         7.2504          3.0004
  21948657.6724    4309878.77646   3332134.65446                  21948663.7074
        19.5004         21.2504
  21549536.2734   -4874080.90147  -3733157.45047                  21549540.6804
        21.7504         28.5004
  22010769.0234   -9820771.95246  -7443687.08046                  22010775.4224
        16.7504         15.7504
 00  5 16 15 33 45.0000000  0  6G 2G 4G 5G 7G 9G24
  22581962.1414    3882402.31646    376720.96546                  22581969.7734
        15.7504         12.7504
  20492045.5164   -5285715.86047  -4058891.30147                  20492050.0744
        23.5004         29.2504
  23905451.9384   -4485358.78145  -3328595.54143                  23905457.5634
         8.2504          3.2504
  21953880.2894    4337324.79446   3353521.13746                  21953886.2774
        19.0004         21.0004
  21547334.4774   -4885651.36847  -3742173.39947                  21547338.9304
        21.5004         28.5004
  22002470.6564   -9864379.80046  -7477667.18046                  22002477.3594
        17.0004         16.0004
 00  5 16 15 34  0.0000000  0  6G 2G 4G 5G 7G 9G24
  22587367.8674    3910808.35346    398855.45646                  22587375.2194
        16.0004         12.7504
  20489689.7114   -5298095.29447  -4068537.60947                  20489694.1054
        23.2504         29.2504
  23897406.9774   -4527635.83845  -3361538.66643                  23897413.8954
         7.7504          3.0004
  21959111.5474    4364814.59746   3374941.70946                  21959117.6174
        19.0004         20.5004
  21545162.4774   -4897066.50447  -3751068.31347                  21545166.8364
        22.0004         28.0004
  21994191.6414   -9907887.25046  -7511569.03946                  21994198.0164
        17.2504         16.2504
 00  5 16 15 34 15.0000000  0  6G 2G 4G 5G 7G 9G24
  22592790.7504    3939305.90146    421061.25446                  22592797.9734
        16.2504         13.2504
  20487366.0314   -5310306.42647  -4078052.76747                  20487370.3794
        23.5004         29.0004
  23889366.0084   -4569893.02445  -3394466.29144                  23889371.6454
         8.2504          3.5004
  21964351.4064    4392349.53646   3396397.47646                  21964357.3244
        19.0004         20.5004
  21543019.9304   -4908324.69247  -3759840.92447                  21543024.5594
        21.7504         28.7504
  21985931.6564   -9951292.28546  -7545391.10346                  21985938.0664
        17.5004         16.2504
 00  5 16 15 34 30.0000000  0  6G 2G 4G 5G 7G 9G24
  22598231.0704    3967893.59546    443337.29846                  22598238.1764
        16.5004         13.0004
  20485074.1024   -5322350.65647  -4087437.87547                  20485078.4734
        23.2504         28.7504
  23881327.8594   -4612131.66644  -3427379.49243                  23881334.1764
         7.2504          3.2504
  21969599.3204    4419928.06546   3417887.20246                  21969605.2974
        19.0004         20.0004
  21540907.1334   -4919427.23947  -3768492.25947                  21540911.7034
        22.0004         28.2504
  21977691.2504   -9994596.27146  -7579134.42546                  21977697.4964
        17.2504         16.5004
 00  5 16 15 34 45.0000000  0  6G 2G 4G 5G 7G 9G24
  22603688.0164    3996571.95246    465683.98146                  22603695.2504
        16.2504         13.0004
  20482814.0554   -5334227.29647  -4096692.39547                  20482818.6484
        23.2504         29.2504
  23873294.1884   -4654351.07745  -3460277.70844                  23873300.7154
         7.7504          3.7504
  21974855.7034    4447550.55346   3439411.18946                  21974861.8444
        19.7504         20.7504
  21538824.3984   -4930373.50147  -3777021.81147                  21538828.9344
        21.7504         28.2504
  21969470.1724  -10037798.20846  -7612798.23246                  21969476.4884
        17.7504         16.5004
 00  5 16 15 35  0.0000000  0  6G 2G 4G 5G 7G 9G24
  22609162.6884    4025340.33346    488100.81746                  22609170.0744
        15.7504         13.0004
  20480585.8914   -5345936.90047  -4105816.75447                  20480590.4144
        23.5004         28.7504
  23865264.1644   -4696551.80145  -3493161.36044                  23865270.0354
         8.2504          3.5004
  21980120.5234    4475216.21647   3460968.79646                  21980126.4064
        20.2504         21.0004
  21536770.9924   -4941164.06447  -3785430.05247                  21536775.5864
        22.0004         28.7504
  21961268.4064  -10080898.46046  -7646382.80946                  21961274.4534
        17.0004         16.0004
 00  5 16 15 35 15.0000000  0  6G 2G 4G 5G 7G 9G24
  22614654.4304    4054200.64246    510589.28046                  22614662.1094
        15.2504         12.5004
  20478389.7584   -5357477.60947  -4114809.50847                  20478394.1174
        23.5004         29.0004
  23857237.0314   -4738731.83645  -3526028.90344                  23857242.8914
         8.0004          4.0004
  21985393.6644    4502926.87147   3482561.48446                  21985399.5234
        20.2504         21.0004
  21534747.7114   -4951796.84947  -3793715.33747                  21534752.2814
        22.0004         28.5004
  21953086.4224  -10123894.95146  -7679886.52146                  21953092.4804
        17.0004         16.5004
 00  5 16 15 35 30.0000000  0  6G 2G 4G 5G 7G 9G24
  22620163.6254    4083150.24846    533147.33045                  22620171.2234
        15.5004         11.7504
  20476225.2664   -5368851.91647  -4123672.59947                  20476229.6954
        23.2504         28.7504
  23849213.6724   -4780893.71145  -3558882.25644                  23849219.9534
         7.7504          3.7504
  21990674.8054    4530679.62346   3504186.96246                  21990680.8054
        19.7504         21.0004
  21532753.8204   -4962274.47747  -3801879.72547                  21532758.4264
        22.2504         28.7504
  21944923.5314  -10166789.89846  -7713311.11046                  21944929.6484
        17.0004         16.5004
 00  5 16 15 35 45.0000000  0  6G 2G 4G 5G 7G 9G24
  22625689.8914    4112190.11246    555775.71745                  22625696.8204
        14.7504         11.2504
  20474092.6174   -5380058.78047  -4132405.21447                  20474097.0704
        23.0004         28.7504
  23841194.0004   -4823036.26545  -3591720.57044                  23841199.5314
         8.2504          4.2504
  21995964.3984    4558475.33747   3525845.91946                  21995970.2114
        20.2504         21.0004
  21530789.7504   -4972595.87747  -3809922.37247                  21530794.2384
        21.7504         29.0004
  21936780.7274  -10209582.13746  -7746655.66646                  21936787.0084
        17.2504         16.5004
 00  5 16 15 36  0.0000000  0  6G 2G 4G 5G 7G 9G24
  22631233.1254    4141321.28446    578475.25845                  22631240.7934
        14.0004         11.0004
  20471992.0084   -5391097.20447  -4141006.57647                  20471996.3324
        23.5004         29.2504
  23833178.7584   -4865158.44245  -3624543.00844                  23833185.1564
         8.0004          3.7504
  22001262.1024    4586314.83946   3547538.99346                  22001267.9384
        19.7504         21.0004
  21528855.7114   -4982759.91447  -3817842.41347                  21528860.1884
        21.7504         28.7504
  21928657.3054  -10252270.37346  -7779919.18646                  21928663.6094
        17.2504         16.5004
 00  5 16 15 36 15.0000000  0  6G 2G 4G 5G 7G 9G24
  22636794.2344    4170543.67946    601245.86645                  22636802.1954
        13.7504         10.5004
  20469923.5394   -5401967.13147  -4149476.64647                  20469928.1214
        23.5004         29.2504
  23825166.7894   -4907260.12045  -3657349.47644                  23825171.7934
         8.2504          4.2504
  22006567.8284    4614197.88246   3569265.99846                  22006573.7464
        19.7504         21.0004
  21526951.4144   -4992766.74847  -3825639.94647                  21526955.7734
        22.7504         28.5004
  21920553.6884  -10294854.38446  -7813101.50146                  21920559.8984
        17.5004         16.2504
 00  5 16 15 36 30.0000000  0  6G 2G 4G 5G 7G 9G24
  22642372.5474    4199855.40946    624086.09645                  22642379.8634
        14.0004         10.5004
  20467886.5634   -5412670.41847  -4157816.86347                  20467891.3094
        23.5004         29.0004
  23817158.7034   -4949343.08345  -3690141.37244                  23817166.3714
         8.5004          4.0004
  22011882.0634    4642122.60046   3591025.48446                  22011888.0514
        19.2504         20.2504
  21525076.6174   -5002618.06747  -3833316.30147                  21525080.8484
        22.7504         29.0004
  21912469.6724  -10337335.63046  -7846203.73746                  21912476.0004
        17.2504         16.5004
 00  5 16 15 36 45.0000000  0  6G 2G 4G 5G 7G 9G24
  22647967.2974    4229257.41146    646996.66745                  22647974.4494
        14.0004         10.7504
  20465881.8204   -5423205.88647  -4166026.31247                  20465886.4264
        23.5004         29.2504
  23809154.7194   -4991406.31745  -3722917.89144                  23809160.6374
         8.5004          3.7504
  22017203.7194    4670089.76546   3612818.02846                  22017209.6844
        18.7504         20.5004
  21523231.7664   -5012312.73047  -3840870.58847                  21523236.1954
        22.2504         29.2504
  21904405.6564  -10379712.98946  -7879225.02046                  21904411.8914
        17.2504         17.0004
 00  5 16 15 37  0.0000000  0  6G 2G 4G 5G 7G 9G24
  22653579.7034    4258751.67546    669979.11545                  22653587.2074
        14.7504         11.0004
  20463909.2814   -5433571.69747  -4174103.56347                  20463913.7234
        23.7504         29.5004
  23801153.9534   -5033447.68945  -3755677.38944                  23801160.1764
         8.5004          4.0004
  22022534.2344    4698101.15746   3634645.05646                  22022540.3404
        18.2504         20.5004
  21521417.1884   -5021848.78347  -3848301.28347                  21521421.7344
        22.0004         29.2504
  21896361.8444  -10421984.12046  -7912163.52946                  21896368.2894
        17.5004         17.0004
 00  5 16 15 37 15.0000000  0  6G 2G 4G 5G 7G 9G24
  22659209.5704    4288335.31546    693031.22545                  22659217.2384
        14.7504         11.2504
  20461968.6564   -5443770.71047  -4182050.83947                  20461973.0634
        23.7504         29.2504
  23793157.4924   -5075469.94445  -3788421.95844                  23793163.5164
         8.2504          3.7504
  22027872.4384    4726153.79346   3656504.20446                  22027878.2274
        19.0004         20.5004
  21519632.2584   -5031229.09947  -3855610.62747                  21519636.5594
        22.5004         29.0004
  21888337.4224  -10464151.70346  -7945021.34546                  21888343.9494
        18.0004         17.5004
 00  5 16 15 37 30.0000000  0  6G 2G 4G 5G 7G 9G24
  22664856.2664    4318009.67246    716154.01045                  22664864.1334
        15.0004         11.5004
  20460059.8914   -5453801.39547  -4189866.95147                  20460064.4024
        23.7504         29.7504
  23785164.7114   -5117471.66845  -3821150.60642                  23785169.2934
         8.2504          2.2504
  22033218.8834    4754248.83846   3678396.40446                  22033224.8714
        19.5004         20.5004
  21517877.0704   -5040452.20747  -3862797.46547                  21517881.2544
        22.2504         28.7504
  21880333.3054  -10506214.09546  -7977797.19746                  21880340.1134
        18.0004         17.7504
 00  5 16 15 37 45.0000000  0  6G 2G 4G 5G 7G 9G24
  22670521.0164    4347777.18146    739349.38645                  22670528.7424
        15.0004         11.2504
  20458183.6884   -5463661.42447  -4197550.08147                  20458187.9884
        24.0004         29.7504
  23777176.3914   -5159450.19845  -3853861.15144                  23777182.2504
         8.0004          3.7504
  22038573.8054    4782388.54247   3700323.39746                  22038579.8054
        20.0004         20.7504
  21516152.3834   -5049515.61147  -3869859.86647                  21516156.7664
        22.2504         28.7504
  21872349.7584  -10548168.49246  -8010488.89546                  21872356.2034
        18.2504         18.0004
 00  5 16 15 38  0.0000000  0  6G 2G 4G 5G 7G 9G24
  22676203.1414    4377635.21746    762615.28946                  22676210.7624
        15.0004         12.0004
  20456339.1954   -5473353.06847  -4205102.01047                  20456343.5664
        24.0004         30.0004
  23769191.9224   -5201408.03645  -3886555.44344                  23769198.5784
         7.7504          3.7504
  22043936.8594    4810570.28847   3722283.16546                  22043943.0234
        20.2504         21.0004
  21514457.6484   -5058421.74247  -3876799.71647                  21514461.9494
        22.0004         28.7504
  21864386.2194  -10590017.23146  -8043098.25946                  21864392.3594
        18.0004         17.7504
 00  5 16 15 38 15.0000000  0  6G 2G 4G 5G 7G 9G24
  22681902.2194    4407584.28846    785952.13745                  22681910.6254
        14.7504         11.5004
  20454527.0864   -5482875.91047  -4212522.39847                  20454531.4804
        24.0004         29.7504
  23761211.8204   -5243344.54745  -3919233.21443                  23761217.9264
         7.5004          3.2504
  22049307.6644    4838794.36547   3744275.89346                  22049313.6644
        20.5004         20.7504
  21512792.8524   -5067170.14447  -3883616.65947                  21512797.0704
        22.2504         29.0004
  21856442.7664  -10631759.65946  -8075624.79646                  21856448.8594
        18.2504         17.2504
 00  5 16 15 38 30.0000000  0  6G 2G 4G 5G 7G 9G24
  22687618.3674    4437623.17246    809358.96445                  22687626.2464
        14.7504         11.7504
  20452746.8594   -5492231.12047  -4219812.16547                  20452751.0784
        24.0004         29.5004
  23753235.4384   -5285260.80645  -3951895.23844                  23753241.4264
         7.5004          3.5004
  22054686.4774    4867059.49047   3766300.60646                  22054692.3364
        20.5004         21.0004
  21511157.7584   -5075761.94347  -3890311.57147                  21511162.1994
        22.2504         28.7504
  21848519.3204  -10673396.49646  -8108069.04846                  21848525.4614
        18.0004         17.5004
 00  5 16 15 38 45.0000000  0  6G 2G 4G 5G 7G 9G24
  22693351.8674    4467751.61946    832835.58445                  22693359.7704
        14.2504         11.7504
  20450998.6024   -5501418.78047  -4226971.37747                  20451003.0664
        23.7504         29.2504
  23745263.0394   -5327157.01044  -3984541.58344                  23745267.8554
         7.2504          3.7504
  22060072.7504    4895365.22247   3788356.98546                  22060078.7034
        20.2504         20.0004
  21509552.7424   -5084197.21447  -3896884.51547                  21509557.0784
        22.2504         28.7504
  21840616.2664  -10714927.89946  -8140431.14046                  21840622.4184
        18.0004         18.2504
 00  5 16 15 39  0.0000000  0  6G 2G 4G 5G 7G 9G24
  22699102.0474    4497970.66346    856382.80145                  22699110.0664
        14.0004         11.0004
  20449282.3054   -5510438.00447  -4233999.33847                  20449286.8524
        23.5004         29.0004
  23737294.4064   -5369032.00145  -4017171.41443                  23737301.0864
         7.7504          3.2504
  22065467.1334    4923712.42946   3810445.66546                  22065473.0864
        19.7504         20.0004
  21507977.5474   -5092474.95447  -3903334.70647                  21507981.8134
        22.0004         28.7504
  21832733.4064  -10756352.44846  -8172709.97746                  21832739.3244
        18.2504         18.2504
 00  5 16 15 39 15.0000000  0  6G 2G 4G 5G 7G 9G24
  22704870.3204    4528281.79646    880001.79245                  22704878.1884
        13.7504         10.5004
  20447598.2274   -5519287.26647  -4240894.86247                  20447602.5514
        24.0004         29.7504
  23729330.0944   -5410884.18145  -4049783.49943                  23729336.4924
         7.7504          3.2504
  22070869.6254    4952102.55046   3832567.80246                  22070875.4844
        19.5004         19.5004
  21506432.6024   -5100593.49847  -3909660.85047                  21506436.9264
        21.7504         28.7504
  21824871.2344  -10797668.33046  -8204904.14246                  21824877.6334
        18.2504         18.0004
 00  5 16 15 39 30.0000000  0  6G 2G 4G 5G 7G 9G24
  22710656.0314    4558685.48246    903692.89445                  22710664.1094
        13.0004         10.5004
  20445947.0314   -5527965.85847  -4247657.39747                  20445951.3674
        24.2504         30.0004
  23721370.5084   -5452712.85245  -4082377.23244                  23721375.3834
         8.2504          3.5004
  22076280.2814    4980535.95946   3854723.66246                  22076286.2234
        18.7504         19.7504
  21504918.0164   -5108552.26547  -3915862.48947                  21504922.4104
        22.0004         28.0004
  21817029.6644  -10838874.79446  -8237013.03446                  21817035.8054
        18.0004         18.5004
 00  5 16 15 39 45.0000000  0  6G 2G 4G 5G 7G 9G24
  22716459.1174    4589180.86446    927455.43845                  22716467.3484
        12.5004         10.0004
  20444327.6954   -5536474.57147  -4254287.56147                  20444332.0664
        24.2504         30.0004
  23713414.7814   -5494518.67245  -4114953.15543                  23713421.1804
         7.7504          3.0004
  22081698.9844    5009011.68846   3876912.49946                  22081704.9964
        18.7504         20.0004
  21503433.8834   -5116352.05047  -3921940.25147                  21503438.3954
        22.0004         28.5004
  21809209.1094  -10879972.28846  -8269037.02646                  21809215.3324
        18.0004         19.0004
 00  5 16 15 40  0.0000000  0  6G 2G 4G 5G 7G 9G24
  22722279.3914    4619768.26146    951289.67245                  22722288.0204
        12.5004          9.7504
  20442740.8984   -5544813.19947  -4260785.18447                  20442745.3164
        24.5004         30.2504
  23705463.9064   -5536301.20145  -4147510.95944                  23705468.8524
         8.2504          3.5004
  22087125.9224    5037529.85246   3899134.40146                  22087131.9694
        18.2504         19.7504
  21501979.9534   -5123992.54747  -3927893.89447                  21501984.6054
        21.7504         28.2504
  21801409.2194  -10920960.40746  -8300975.77946                  21801415.4414
        17.7504         18.5004
 00  5 16 15 40 15.0000000  0  6G 2G 4G 5G 7G 9G24
  22728117.4144    4650444.77846    975193.37445                  22728125.2344
        13.2504          9.5004
  20441186.0164   -5552984.49147  -4267152.42147                  20441190.2114
        24.5004         30.2504
  23697516.6254   -5578063.19945  -4180052.75843                  23697522.4734
         8.0004          3.2504
  22092560.0554    5066087.44746   3921387.02546                  22092566.2074
        18.2504         19.5004
  21500555.8674   -5131476.46947  -3933725.52647                  21500560.2384
        22.2504         28.5004
  21793629.9224  -10961841.71646  -8332831.30346                  21793635.9804
        18.2504         18.7504
 00  5 16 15 40 30.0000000  0  6G 2G 4G 5G 7G 9G24
  22733971.9534    4681210.95946    999166.94945                  22733979.5514
        13.2504          9.5004
  20439662.9064   -5560987.88247  -4273388.82747                  20439667.0664
        25.0004         31.0004
  23689573.9224   -5619804.02445  -4212578.00944                  23689580.1914
         8.2504          3.7504
  22098002.2734    5094684.79446   3943670.61146                  22098008.3204
        18.7504         19.7504
  21499161.5314   -5138803.20647  -3939434.67547                  21499165.7854
        22.2504         28.0004
  21785870.8364  -11002615.39546  -8364602.97146                  21785876.8834
        18.2504         18.5004
 00  5 16 15 40 45.0000000  0  6G 2G 4G 5G 7G 9G24
  22739843.8284    4712067.28646   1023210.75645                  22739852.1994
        13.0004          9.5004
  20438172.1094   -5568822.84947  -4279493.99147                  20438176.3524
        24.5004         31.0004
  23681634.5474   -5661523.03645  -4245086.33144                  23681640.0434
         8.2504          3.7504
  22103451.9924    5123322.37846   3965985.56346                  22103457.9804
        19.2504         19.5004
  21497797.2814   -5145972.28547  -3945020.97347                  21497801.5944
        21.7504         27.7504
  21778132.3984  -11043280.65246  -8396290.15246                  21778138.5044
        18.0004         18.0004
 00  5 16 15 41  0.0000000  0  6G 2G 4G 5G 7G 9G24
  22745733.5004    4743015.54846   1047326.18145                  22745741.9654
        13.7504          9.7504
  20436713.6094   -5576487.54247  -4285466.46847                  20436717.9344
        24.7504         31.0004
  23673700.6024   -5703218.34545  -4277576.13244                  23673706.8834
         8.2504          3.7504
  22108909.5234    5152001.91246   3988333.19846                  22108915.5594
        19.7504         20.0004
  21496463.0704   -5152981.78047  -3950482.91947                  21496467.5704
        21.7504         28.2504
  21770415.2344  -11083835.37946  -8427891.20646                  21770421.2464
        18.0004         18.2504
 00  5 16 15 41 15.0000000  0  6G 2G 4G 5G 7G 9G24
  22751639.8134    4774054.93046   1071512.61945                  22751647.8444
        14.7504         10.2504
  20435287.1954   -5583982.65547  -4291306.81447                  20435291.3444
        24.7504         31.0004
  23665770.7504   -5744890.49745  -4310047.92744                  23665776.9264
         8.2504          3.7504
  22114374.8204    5180722.44246   4010712.78046                  22114380.9614
        19.7504         20.0004
  21495159.8204   -5159832.47247  -3955821.13047                  21495164.4734
        21.5004         28.0004
  21762718.8914  -11124280.03146  -8459406.48846                  21762725.1954
        18.2504         18.5004
 00  5 16 15 41 30.0000000  0  6G 2G 4G 5G 7G 9G24
  22757563.5164    4805184.03346   1095768.97545                  22757571.7934
        15.0004         10.7504
  20433893.1564   -5591309.65247  -4297016.15947                  20433897.2464
        24.5004         31.0004
  23657845.0004   -5786540.73845  -4342502.63044                  23657851.0234
         8.5004          4.2504
  22119847.6724    5209482.45647   4033123.12946                  22119853.7194
        20.2504         19.7504
  21493886.0314   -5166525.68747  -3961036.62747                  21493890.5314
        21.7504         27.7504
  21755043.2274  -11164615.73646  -8490836.87046                  21755049.3914
        18.0004         19.0004
 00  5 16 15 41 45.0000000  0  6G 2G 4G 5G 7G 9G24
  22763504.5784    4836401.87846   1120094.46745                  22763512.8094
        15.0004         10.7504
  20432530.5554   -5598469.44147  -4302595.20647                  20432534.7504
        24.2504         30.2504
  23649923.0234   -5828169.86845  -4374940.88644                  23649928.1564
         9.0004          4.2504
  22125327.9924    5238280.82647   4055563.35846                  22125334.0274
        20.0004         19.7504
  21492642.4614   -5173062.23947  -3966130.04847                  21492646.9264
        21.7504         27.5004
  21747387.8984  -11204843.19046  -8522182.90746                  21747394.1454
        18.2504         19.5004
 00  5 16 15 42  0.0000000  0  6G 2G 4G 5G 7G 9G24
  22769462.4144    4867709.63946   1144490.04545                  22769469.9304
        15.2504         11.0004
  20431200.0864   -5605460.75747  -4308042.98047                  20431204.3634
        24.5004         30.0004
  23642005.2974   -5869776.65745  -4407361.72344                  23642010.6414
         8.7504          4.2504
  22130815.6174    5267118.59547   4078034.31246                  22130821.5944
        20.0004         19.5004
  21491428.4384   -5179441.01247  -3971100.52547                  21491432.9494
        21.7504         28.2504
  21739753.8754  -11244961.02346  -8553443.51946                  21739760.2384
        18.2504         19.5004
 00  5 16 15 42 15.0000000  0  6G 2G 4G 5G 7G 9G24
  22775436.7504    4899104.55846   1168953.51745                  22775444.6294
        15.5004         11.2504
  20429901.1804   -5612286.29547  -4313361.57847                  20429905.3164
        24.2504         29.7504
  23634091.8054   -5911363.75445  -4439767.24744                  23634097.6054
         8.7504          4.0004
  22136310.0784    5295992.89646   4100533.71846                  22136316.0204
        19.7504         19.5004
  21490244.0634   -5185664.69647  -3975950.15847                  21490248.4454
        21.7504         27.2504
  21732140.0784  -11284971.61446  -8584620.56346                  21732146.4304
        18.7504         19.7504
 00  5 16 15 42 30.0000000  0  6G 2G 4G 5G 7G 9G24
  22781428.3444    4930590.18246   1193487.68845                  22781436.3634
        14.5004         10.7504
  20428634.5554   -5618942.66047  -4318548.35147                  20428638.8554
        24.2504         29.7504
  23626182.6254   -5952927.38645  -4472154.45245                  23626188.1564
         8.7504          4.5004
  22141812.4454    5324907.18646   4123064.29446                  22141818.5274
        19.0004         19.0004
  21489090.1254   -5191729.66047  -3980676.11047                  21489094.4734
        22.2504         27.5004
  21724547.5164  -11324871.18746  -8615711.10546                  21724553.7274
        19.0004         19.5004
 00  5 16 15 42 45.0000000  0  6G 2G 4G 5G 7G 9G24
  22787436.6484    4962166.36946   1218092.41545                  22787445.0084
        13.7504         10.0004
  20427400.0164   -5625429.90147  -4323603.33447                  20427404.3054
        24.2504         30.0004
  23618277.7344   -5994467.62845  -4504523.43744                  23618284.0274
         8.7504          4.2504
  22147322.2034    5353861.09246   4145625.71346                  22147328.0394
        19.0004         18.7504
  21487966.1644   -5197636.09247  -3985278.51647                  21487970.5704
        21.7504         27.7504
  21716976.1804  -11364659.66446  -8646715.08246                  21716982.4264
        19.0004         19.7504
 00  5 16 15 43  0.0000000  0  6G 2G 4G 5G 7G 9G24
  22793462.7584    4993832.15246   1242766.95645                  22793471.3874
        14.0004         11.0004
  20426197.6094   -5631748.86747  -4328527.19647                  20426201.8054
        24.5004         30.2504
  23610376.4924   -6035985.32345  -4536874.87444                  23610383.5394
         8.5004          4.2504
  22152839.4694    5382853.66646   4168217.27446                  22152845.3874
        18.7504         18.5004
  21486871.9774   -5203384.80047  -3989758.04047                  21486876.5824
        21.2504         27.5004
  21709425.4774  -11404337.62346  -8677632.94046                  21709431.5594
        19.2504         19.0004
 00  5 16 15 43 15.0000000  0  6G 2G 4G 5G 7G 9G24
  22799505.5784    5025587.38846   1267511.20845                  22799513.9024
        14.0004         10.5004
  20425027.0864   -5637899.69247  -4333320.04247                  20425031.2344
        24.7504         29.7504
  23602480.6954   -6077480.35545  -4569208.62244                  23602486.9064
         8.5004          4.2504
  22158363.6174    5411884.55646   4190838.70946                  22158369.5354
        18.2504         18.5004
  21485808.1644   -5208975.78647  -3994114.65847                  21485812.6054
        22.0004         28.0004
  21701895.9224  -11443904.84446  -8708464.50646                  21701902.0394
        19.2504         19.5004
 00  5 16 15 43 30.0000000  0  7G 2G 4G 5G 7G16G 9G24
  22805565.2814    5057431.69346   1292324.85845                  22805573.8874
        13.0004          9.7504
  20423888.6024   -5643882.72347  -4337982.13747                  20423892.6334
        25.0004         30.5004
  23594588.6334   -6118953.01845  -4601524.95744                  23594594.3754
         8.2504          4.2504
  22163895.4454    5440953.27446   4213489.61446                  22163901.4574
        18.0004         17.7504
  24697530.2504      -5206.38053
         5.0004
  21484774.1254   -5214409.49547  -3998348.72347                  21484778.3674
        22.5004         28.0004
  21694387.5554  -11483361.69446  -8739210.07846                  21694393.6254
        19.0004         19.2504
 00  5 16 15 43 45.0000000  0  7G 2G 4G 5G 7G16G 9G24
  22811641.7814    5089364.40246   1317207.40145                  22811650.3874
        13.0004          9.7504
  20422782.0164   -5649698.74447  -4342514.09547                  20422786.0474
        24.7504         30.7504
  23586700.9844   -6160403.89345  -4633824.28644                  23586706.9964
         8.5004          4.2504
  22169434.1804    5470059.10446   4236169.42346                  22169440.1564
        18.0004         18.0004
  24694573.3284     -20750.16842
         4.5004
  21483769.8914   -5219686.55447  -4002460.71447                  21483774.3554
        21.7504         28.2504
  21686900.1094  -11522708.29646  -8769869.72546                  21686906.1454
        19.0004         19.5004
 00  5 16 15 44  0.0000000  0  7G 2G 4G 5G 7G16G 9G24
  22817735.5164    5121384.13346   1342157.75945                  22817743.7344
        14.0004         10.0004
  20421706.6484   -5655348.84047  -4346916.76047                  20421710.8794
        24.5004         31.0004
  23578817.1094   -6201834.08945  -4666107.54345                  23578822.8284
         8.5004          4.5004
  22174979.5234    5499200.53146   4258876.98246                  22174985.6414
        18.2504         18.0004
  24691636.7814     -36178.38843
         5.0004
  21482795.5164   -5224808.20047  -4006451.61747                  21482800.0394
        22.0004         28.0004
  21679433.4304  -11561945.89946  -8800444.44446                  21679439.4774
        19.0004         19.5004
 00  5 16 15 44 15.0000000  0  7G 2G 4G 5G 7G16G 9G24
  22823845.5554    5153494.56346   1367178.78345                  22823854.0084
        13.7504          9.7504
  20420664.0394   -5660829.45447  -4351187.36047                  20420668.4924
        24.7504         31.0004
  23570937.9144   -6243239.65445  -4698371.56944                  23570944.1374
         8.5004          4.0004
  22180532.6254    5528381.14446   4281615.07846                  22180538.5904
        18.2504         18.2504
  24688723.3984     -51486.98643
         5.5004
  21481851.1644   -5229770.67247  -4010318.48247                  21481855.5704
        22.2504         28.2504
  21671988.2894  -11601070.39746  -8830931.02846                  21671994.2544
        19.2504         19.7504
 00  5 16 15 44 30.0000000  0  7G 2G 4G 5G 7G16G 9G24
  22829973.0084    5185693.84046   1392269.03245                  22829981.3094
        13.2504          9.2504
  20419652.7504   -5666142.42147  -4355327.33047                  20419657.0274
        25.0004         31.2504
  23563062.8984   -6284622.32345  -4730617.77945                  23563068.7704
         8.5004          4.5004
  22186092.5164    5557599.03246   4304382.20446                  22186098.4924
        18.7504         18.2504
  24685833.2894     -66677.66943      -785.60951                  24685848.1884
         5.7504          1.2504
  21480936.5164   -5234575.89947  -4014062.81747                  21480940.8754
        22.7504         28.5004
  21664564.2274  -11640083.41446  -8861330.74746                  21664570.2854
        19.5004         20.0004
 00  5 16 15 44 45.0000000  0  7G 2G 4G 5G 7G16G 9G24
  22836117.4924    5217981.88546   1417428.43945                  22836125.9694
        13.7504          9.5004
  20418673.5394   -5671287.62447  -4359336.57447                  20418677.6174
        24.7504         31.2504
  23555192.0004   -6325982.09945  -4762846.13645                  23555198.6334
         8.7504          4.5004
  22191659.6414    5586854.06346   4327178.28246                  22191665.6994
        18.5004         18.7504
  24682965.2194     -81750.18242    -12530.33041                  24682981.9454
         4.7504          1.0004
  21480052.3204   -5239223.73147  -4017684.50747                  21480056.7974
        22.2504         28.2504
  21657161.5314  -11678984.68046  -8891643.38046                  21657167.5554
        19.2504         20.0004
 00  5 16 15 45  0.0000000  0  7G 2G 4G 5G 7G16G 9G24
  22842278.8674    5250357.98946   1442656.46345                  22842286.4304
        14.7504         10.0004
  20417726.4144   -5676265.95147  -4363215.78647                  20417730.7384
        24.2504         30.5004
  23547326.2664   -6367319.48545  -4795057.06045                  23547332.3134
         9.0004          4.5004
  22197233.5004    5616145.30546   4350002.57046                  22197239.5594
        18.7504         18.5004
  24680119.3674     -96704.93743    -24183.24941                  24680136.6564
         5.5004          1.0004
  21479197.6564   -5243714.87447  -4021184.11247                  21479202.0394
        22.7504         28.2504
  21649780.2344  -11717774.53546  -8921869.20246                  21649786.5164
        19.0004         19.7504
 00  5 16 15 45 15.0000000  0  7G 2G 4G 5G 7G16G 9G24
  22848456.3134    5282822.30346   1467953.25345                  22848464.1914
        14.2504          9.7504
  20416810.7974   -5681077.02147  -4366964.66247                  20416815.0984
        24.5004         30.0004
  23539464.2584   -6408634.17745  -4827250.31545                  23539470.1524
         8.7504          4.5004
  22202814.3284    5645472.89846   4372855.19346                  22202820.3754
        18.7504         18.0004
  24677295.5634    -111541.29943    -35743.98742                  24677312.2194
         5.5004          1.5004
  21478372.9844   -5248049.16247  -4024561.48547                  21478377.5434
        22.7504         28.7504
  21642419.8204  -11756452.68046  -8952007.97746                  21642425.9494
        19.0004         19.5004
 00  5 16 15 45 30.0000000  0  7G 2G 4G 5G 7G16G 9G24
  22854650.7344    5315374.45646   1493318.46745                  22854659.4574
        13.0004          9.2504
  20415926.9924   -5685721.33047  -4370583.60247                  20415931.1174
        24.7504         30.5004
  23531606.8364   -6449926.45145  -4859426.05745                  23531612.3444
         8.7504          4.7504
  22208402.2344    5674836.25146   4395735.69646                  22208408.2934
        18.7504         18.2504
  24674494.6564    -126259.61442    -47212.70042                  24674510.5744
         4.5004          1.5004
  21477578.0944   -5252226.92147  -4027816.88747                  21477582.2664
        23.0004         29.0004
  21635080.9384  -11795019.19346  -8982059.77646                  21635086.9844
        19.5004         20.0004
 00  5 16 15 45 45.0000000  0  7G 2G 4G 5G 7G16G 9G24
  22860861.8054    5348013.70746   1518751.53145                  22860870.5274
        13.0004          8.7504
  20415074.7664   -5690199.45447  -4374073.04547                  20415079.0664
        24.5004         30.0004
  23523753.2504   -6491196.76745  -4891584.71545                  23523758.9924
         8.7504          4.7504
  22213996.7814    5704234.71346   4418643.52646                  22214002.8754
        19.2504         18.2504
  24671716.9924    -140860.06643    -58589.56542                  24671729.6524
         5.0004          1.7504
  21476812.5864   -5256248.72647  -4030950.76447                  21476816.9104
        23.0004         28.7504
  21627763.1804  -11833474.56246  -9012024.96346                  21627769.2384
        19.0004         20.5004
 00  5 16 15 46  0.0000000  0  7G 2G 4G 5G 7G16G 9G24
  22867090.5164    5380743.66646   1544255.30945                  22867098.6294
        13.7504          9.2504
  20414255.0314   -5694507.90447  -4377430.27447                  20414259.5434
        24.2504         30.0004
  23515904.2584   -6532441.28845  -4923723.28645                  23515910.4104
         8.5004          4.5004
  22219598.2974    5733671.68446   4441581.38246                  22219604.2974
        19.0004         18.5004
  24668960.9064    -155338.94842    -69871.77241                  24668974.5394
         4.7504          1.2504
  21476077.5784   -5260110.95847  -4033960.29847                  21476081.8324
        22.7504         29.0004
  21620467.3594  -11871814.75046  -9041900.39446                  21620473.3834
        19.5004         20.5004
 00  5 16 15 46 15.0000000  0  7G 2G 4G 5G 7G16G 9G24
  22873335.3984    5413560.05746   1569826.43045                  22873343.5704
        13.2504          9.2504
  20413466.5554   -5698650.79647  -4380658.49647                  20413470.8094
        24.2504         30.2504
  23508060.0234   -6573664.16645  -4955844.95945                  23508066.1994
         8.5004          4.7504
  22225206.5314    5763142.80446   4464545.83546                  22225212.4844
        19.5004         17.7504
  24666228.5634    -169700.20442    -81062.27241                  24666244.1414
         4.2504          1.2504
  21475372.1724   -5263817.83947  -4036848.78047                  21475376.6604
        22.7504         29.0004
  21613192.2584  -11910043.86846  -9071689.26646                  21613198.2814
        19.7504         22.0004
 00  5 16 15 46 30.0000000  0  7G 2G 4G 5G 7G16G 9G24
  22879596.6884    5446464.85446   1595466.43445                  22879604.4144
        13.0004          9.0004
  20412710.0944   -5702626.31047  -4383756.29447                  20412714.2774
        24.7504         30.0004
  23500219.7034   -6614863.39645  -4987948.20745                  23500225.6914
         9.0004          4.7504
  22230821.7584    5792649.82846   4487538.26146                  22230827.8984
        19.7504         18.5004
  24663517.8444    -183941.66642    -92159.37041                  24663533.5864
         4.2504          1.2504
  21474696.6484   -5267367.33647  -4039614.62847                  21474701.0434
        23.2504         29.0004
  21605939.2344  -11948159.63247  -9101389.82546                  21605945.2814
        20.2504         21.7504
 00  5 16 15 46 45.0000000  0  7G 2G 4G 5G 7G16G 9G24
  22885874.8834    5479454.94346   1621172.89945                  22885883.5594
        13.2504          9.5004
  20411984.7974   -5706437.51347  -4386726.06147                  20411988.8054
        24.7504         30.5004
  23492383.7114   -6656041.88545  -5020035.31645                  23492389.4534
         8.7504          4.5004
  22236442.8204    5822189.66646   4510556.27146                  22236448.6564
        19.7504         18.2504
  24660829.6174    -198066.15942   -103165.49041                  24660843.4964
         4.2504          1.2504
  21474050.6334   -5270762.55347  -4042260.25547                  21474055.0514
        23.0004         29.2504
  21598707.2504  -11986164.83847  -9131004.23446                  21598713.2624
        20.2504         21.7504
 00  5 16 15 47  0.0000000  0  7G 2G 4G 5G 7G16G 9G24
  22892169.1334    5512531.07846   1646946.42345                  22892176.9184
        13.5004          9.2504
  20411291.0474   -5710083.57447  -4389567.14547                  20411295.2194
        24.7504         30.0004
  23484551.7114   -6697198.61545  -5052105.47344                  23484558.2734
         9.0004          4.2504
  22242070.6024    5851762.94446   4533600.32546                  22242076.6604
        19.7504         18.2504
  24658164.0704    -212072.56942   -114079.42241                  24658177.5394
         4.0004          1.2504
  21473434.3134   -5274002.61947  -4044784.99047                  21473438.5084
        23.0004         29.5004
  21591496.1954  -12024058.46846  -9160531.69346                  21591502.2424
        19.7504         20.7504
 00  5 16 15 47 15.0000000  0  7G 2G 4G 5G 7G16G 9G24
  22898480.2504    5545695.05446   1672788.40645                  22898488.5394
        13.2504          9.5004
  20410628.8984   -5713562.58447  -4392278.05447                  20410633.0124
        24.7504         30.0004
  23476724.2034   -6738331.64745  -5084157.16444                  23476730.1334
         8.7504          4.2504
  22247704.8364    5881371.47046   4556671.86446                  22247710.8014
        19.7504         18.0004
  24655521.1414    -225958.82742   -124899.74341                  24655537.2114
         4.2504          1.0004
  21472847.5474   -5277085.63947  -4047187.35147                  21472851.6844
        23.0004         29.2504
  21584306.8054  -12061838.41046  -9189970.56746                  21584312.8524
        19.7504         21.0004
 00  5 16 15 47 30.0000000  0  7G 2G 4G 5G 7G16G 9G24
  22904806.7974    5578944.54746   1698696.99645                  22904815.5904
        13.0004          9.2504
  20409998.3444   -5716877.01847  -4394860.72647                  20410002.4344
        24.7504         30.2504
  23468901.4224   -6779443.17945  -5116192.09145                  23468907.3874
         9.2504          4.7504
  22253345.5864    5911012.66846   4579768.83646                  22253351.5514
        19.0004         18.0004
  24652902.6024    -239727.00842   -135628.12741                  24652919.9844
         4.2504          1.0004
  21472290.0864   -5280014.02047  -4049469.20647                  21472294.3164
        22.7504         29.2504
  21577138.7194  -12099506.81946  -9219322.53646                  21577144.9774
        19.7504         21.5004
 00  5 16 15 47 45.0000000  0  7G 2G 4G 5G 7G16G 9G24
  22911150.7114    5612278.97046   1724671.76445                  22911159.0704
        13.7504          9.7504
  20409398.8914   -5720027.25347  -4397315.45147                  20409403.0044
        25.2504         30.5004
  23461082.3284   -6820533.45145  -5148210.46045                  23461088.0354
         9.5004          4.7504
  22258991.9924    5940686.04946   4602890.89846                  22258998.0044
        19.0004         17.7504
  24650303.7504    -253377.23042   -146264.58242                  24650317.4654
         4.2504          1.5004
  21471762.1094   -5282788.23847  -4051630.94047                  21471766.3164
        23.0004         29.2504
  21569991.9924  -12137063.79347  -9248587.65646                  21569998.0984
        20.7504         21.5004
 00  5 16 15 48  0.0000000  0  7G 2G 4G 5G 7G16G 9G24
  22917510.5864    5645699.43846   1750713.59245                  22917518.5824
        14.0004          9.7504
  20408830.8204   -5723012.23747  -4399641.41247                  20408834.8754
        25.0004         30.7504
  23453267.0864   -6861601.19045  -5180211.25645                  23453273.1684
         9.7504          4.5004
  22264645.0864    5970392.58646   4626038.80646                  22264651.1454
        18.7504         17.7504
  24647729.4064    -266908.26342   -156808.22341                  24647740.3324
         4.2504          0.7504
  21471263.8524   -5285407.18447  -4053671.68347                  21471268.1174
        22.2504         29.2504
  21562866.5704  -12174508.00847  -9277764.94746                  21562872.5354
        21.0004         22.2504
 00  5 16 15 48 15.0000000  0  7G 2G 4G 5G 7G16G 9G24
  22923886.5634    5679206.54146   1776822.92745                  22923894.8524
        13.2504          9.2504
  20408294.3444   -5725831.42447  -4401838.18147                  20408298.3754
        25.0004         30.5004
  23445456.1564   -6902645.70245  -5212193.99545                  23445462.1094
         9.5004          4.5004
  22270304.6724    6000132.69746   4649212.86546                  22270310.6134
        18.7504         17.5004
  24645177.1724    -280319.24242   -167258.20541                  24645196.6294
         4.0004          1.0004
  21470795.1564   -5287870.16847  -4055590.89747                  21470799.6454
        23.0004         29.0004
  21555762.5784  -12211838.56547  -9306853.65346                  21555768.5664
        21.0004         22.2504
 00  5 16 15 48 30.0000000  0  7G 2G 4G 5G 7G16G 9G24
  22930278.7584    5712798.51046   1802998.38845                  22930287.1054
        12.5004          8.7504
  20407789.1024   -5728486.47847  -4403907.05447                  20407793.2154
        24.5004         30.5004
  23437650.1024   -6943668.66845  -5244159.89645                  23437655.0354
         9.7504          4.7504
  22275970.2274    6029904.51846   4672411.63746                  22275976.3554
        18.5004         17.5004
  24642647.8444    -293611.61043   -177615.75341                  24642664.6174
         5.0004          1.0004
  21470356.1724   -5290178.96247  -4057389.96747                  21470360.5664
        22.7504         29.5004
  21548680.1094  -12249057.09747  -9335855.05646                  21548686.1684
        21.0004         22.7504
 00  5 16 15 48 45.0000000  0  7G 2G 4G 5G 7G16G 9G24
  22936688.1564    5746476.43246   1829240.82545                  22936696.7034
        13.0004          8.2504
  20407315.3594   -5730976.45747  -4405847.29447                  20407319.4734
        24.5004         30.5004
  23429848.0554   -6984668.71945  -5276107.98445                  23429853.6684
         9.5004          4.5004
  22281642.0004    6059709.14846   4695635.97846                  22281648.0474
        18.5004         17.2504
  24640140.4224    -306784.05942   -187880.01141                  24640155.6134
         4.2504          1.2504
  21469946.2274   -5292332.43447  -4059068.00947                  21469950.6684
        22.7504         29.0004
  21541619.2584  -12286162.23247  -9364768.11646                  21541625.2114
        20.2504         21.7504
 00  5 16 15 49  0.0000000  0  7G 2G 4G 5G 7G16G 9G24
  22943113.3204    5780240.68546   1855550.52745                  22943122.5354
        13.2504          8.5004
  20406872.8364   -5733300.79047  -4407658.46347                  20406877.0314
        24.7504         30.5004
  23422050.0314   -7025645.25445  -5308037.71045                  23422055.8794
         9.2504          5.0004
  22287319.7504    6089546.93946   4718886.15446                  22287325.7384
        18.5004         17.2504
  24637657.4454    -319835.81343   -198050.06341                  24637670.0004
         5.0004          1.0004
  21469565.7734   -5294330.11247  -4060624.64947                  21469570.2154
        22.2504         28.7504
  21534579.9304  -12323153.06547  -9393592.09046                  21534585.8594
        20.2504         22.5004
 00  5 16 15 49 15.0000000  0  7G 2G 4G 5G 7G16G 9G24
  22949554.5004    5814090.79946   1881927.12245                  22949563.7034
        12.5004          8.5004
  20406462.0554   -5735459.98047  -4409340.96347                  20406466.2384
        24.2504         30.2504
  23414257.2424   -7066598.58545  -5339949.38545                  23414262.9964
         9.0004          4.7504
  22293003.9924    6119417.17846   4742161.60746                  22293010.0744
        18.5004         17.0004
  24635196.3204    -332767.13742   -208126.42041                  24635212.3204
         4.7504          1.2504
  21469215.3594   -5296172.40047  -4062060.22447                  21469219.6724
        22.2504         28.7504
  21527562.5394  -12360029.88447  -9422327.25346                  21527568.4574
        20.7504         22.0004
 00  5 16 15 49 30.0000000  0  7G 2G 4G 5G 7G16G 9G24
  22956012.7734    5848027.76746   1908371.37945                  22956021.6484
        12.0004          8.2504
  20406082.7344   -5737453.18247  -4410894.12147                  20406087.1294
        24.0004         29.7504
  23406469.0554   -7107527.57745  -5371842.12545                  23406474.6684
         9.2504          5.0004
  22298694.5864    6149320.81646   4765463.07546                  22298700.5744
        18.2504         16.7504
  24632759.0314    -345576.76743   -218107.95341                  24632773.1684
         6.0004          1.0004
  21468894.3364   -5297858.30247  -4063373.93247                  21468898.7544
        21.7504         28.2504
  21520567.1094  -12396791.48647  -9450972.64546                  21520573.1804
        20.7504         22.2504
 00  5 16 15 49 45.0000000  0  7G 2G 4G 5G 7G16G 9G24
  22962486.6174    5882049.31846   1934881.51145                  22962495.3984
        12.2504          8.2504
  20405734.4774   -5739282.46947  -4412319.56847                  20405738.8134
        23.7504         30.5004
  23398684.6804   -7148434.25545  -5403717.48545                  23398690.6454
         9.7504          5.2504
  22304390.7734    6179255.60746   4788788.78546                  22304396.9734
        18.2504         17.0004
  24630344.4304    -358266.76743   -227996.19142                  24630357.6174
         5.7504          1.5004
  21468603.3444   -5299389.99347  -4064567.50747                  21468607.7034
        22.2504         28.7504
  21513593.0394  -12433439.80447  -9479529.77346                  21513599.1564
        20.7504         22.7504
 00  5 16 15 50  0.0000000  0  7G 2G 4G 5G 7G16G 9G24
  22968977.0704    5916154.91746   1961457.16645                  22968985.5944
        13.0004          8.0004
  20405417.6724   -5740948.44347  -4413617.74747                  20405421.8444
        24.2504         30.2504
  23390904.7034   -7189318.98645  -5435575.72545                  23390910.0944
        10.0004          5.0004
  22310093.3524    6209220.79646   4812138.21246                  22310099.5744
        18.2504         16.7504
  24627951.4614    -370837.21243   -237791.35841                  24627963.5474
         5.0004          1.0004
  21468340.9064   -5300768.07447  -4065641.36147                  21468345.3484
        22.2504         28.7504
  21506640.8054  -12469975.08647  -9507998.81546                  21506646.8524
        20.5004         23.0004
 00  5 16 15 50 15.0000000  0  7G 2G 4G 5G 7G16G 9G24
  22975483.5944    5950345.55546   1988099.10645                  22975492.2234
        12.5004          8.0004
  20405132.0704   -5742450.08347  -4414787.87147                  20405136.2664
        24.2504         30.0004
  23383128.7504   -7230180.49645  -5467415.85645                  23383134.1294
        10.2504          5.2504
  22315801.2424    6239217.45146   4835512.15146                  22315807.2544
        18.2504         16.2504
  24625582.8364    -383286.74843   -247492.25741                  24625598.9184
         5.2504          1.2504
  21468108.0704   -5301991.39447  -4066594.62147                  21468112.4654
        22.2504         29.0004
  21499709.9144  -12506396.01247  -9536378.72746                  21499716.0204
        20.2504         22.5004
 00  5 16 15 50 30.0000000  0  7G 2G 4G 5G 7G16G 9G24
  22982006.2034    5984623.62546   2014809.14445                  22982015.3954
        12.2504          8.0004
  20404878.0554   -5743785.03047  -4415828.10647                  20404882.2974
        24.5004         30.0004
  23375357.9694   -7271016.31245  -5499235.99145                  23375364.0634
         9.7504          5.2504
  22321515.9924    6269247.69246   4858912.26646                  22321522.1564
        18.2504         16.2504
  24623237.9924    -395613.05643   -257097.15741                  24623255.1764
         5.7504          1.2504
  21467905.1724   -5303057.56147  -4067425.42847                  21467909.8134
        22.0004         28.5004
  21492801.4064  -12542699.90247  -9564667.44746                  21492807.6294
        20.0004         23.2504
 00  5 16 15 50 45.0000000  0  7G 2G 4G 5G 7G16G 9G24
  22988545.8444    6018987.32346   2041585.90545                  22988554.8714
        12.7504          8.5004
  20404655.3054   -5744955.07547  -4416739.84747                  20404659.6414
        24.2504         30.2504
  23367591.3834   -7311828.10145  -5531037.36945                  23367597.2304
         9.7504          5.5004
  22327236.4774    6299309.74046   4882337.16746                  22327242.6414
        18.2504         16.7504
  24620915.2814    -407817.35343   -266606.96942                  24620932.6884
         6.0004          1.5004
  21467731.9064   -5303968.44247  -4068135.23647                  21467736.5594
        22.0004         28.5004
  21485915.0234  -12578888.48547  -9592866.31746                  21485921.1644
        20.2504         23.2504
 00  5 16 15 51  0.0000000  0  7G 2G 4G 5G 7G16G 9G24
  22995101.3134    6053437.18246   2068429.82945                  22995110.4344
        12.5004          8.7504
  20404464.1094   -5745959.62347  -4417522.61847                  20404468.3634
        24.2504         30.0004
  23359830.2584   -7352615.03445  -5562819.39845                  23359836.4224
         9.7504          5.2504
  22332963.5164    6329404.08746   4905787.24146                  22332969.7154
        18.0004         16.5004
  24618615.5084    -419898.90243   -276021.09141                  24618630.3594
         6.0004          1.2504
  21467588.2274   -5304723.35847  -4068723.49947                  21467592.6214
        22.0004         28.5004
  21479050.9304  -12614960.64847  -9620974.47246                  21479056.9304
        20.7504         23.5004
 00  5 16 15 51 15.0000000  0  7G 2G 4G 5G 7G16G 9G24
  23001673.0394    6087971.10446   2095339.26045                  23001682.1604
        12.2504          9.0004
  20404303.9384   -5746800.93747  -4418178.18647                  20404308.2854
        24.2504         30.0004
  23352072.6564   -7393379.07345  -5594583.57245                  23352078.6804
        10.0004          5.2504
  22338696.0164    6359528.55246   4929260.79146                  22338702.1454
        18.5004         16.7504
  24616339.7344    -431859.51544   -285340.99642                  24616355.2194
         6.2504          1.7504
  21467473.9454   -5305324.51847  -4069191.95047                  21467478.4924
        21.7504         28.2504
  21472208.2504  -12650918.39947  -9648993.47346                  21472214.2274
        21.0004         23.2504
 00  5 16 15 51 30.0000000  0  7G 2G 4G 5G 7G16G 9G24
  23008260.6094    6122589.04445   2122314.18445                  23008270.1294
        11.2504          8.2504
  20404175.1724   -5747478.90747  -4418706.47847                  20404179.3094
        24.5004         30.2504
  23344320.5474   -7434120.10045  -5626329.80945                  23344326.3134
        10.0004          5.0004
  22344434.0554    6389682.85946   4952757.60146                  22344440.3484
        18.0004         16.7504
  24614085.8674    -443699.22043   -294566.65442                  24614100.9414
         5.2504          1.5004
  21467388.6804   -5305771.86547  -4069540.54347                  21467393.3554
        21.5004         28.2504
  21465387.3054  -12686761.47847  -9676923.11846                  21465393.2344
        20.5004         23.2504
 00  5 16 15 51 45.0000000  0  7G 2G 4G 5G 7G16G 9G24
  23014864.3444    6157293.78645   2149356.70745                  23014874.2154
        11.2504          8.0004
  20404077.6954   -5747990.80547  -4419105.36647                  20404081.7974
        24.2504         30.0004
  23336572.1724   -7474834.98445  -5658055.67245                  23336578.0554
        10.0004          5.7504
  22350178.6724    6419869.98246   4976279.96746                  22350184.8834
        18.5004         16.7504
  24611857.1564    -455414.71543   -303695.55742                  24611867.6374
         6.0004          1.5004
  21467333.4534   -5306062.46347  -4069767.00347                  21467338.0594
        22.0004         28.7504
  21458589.0164  -12722486.76047  -9704760.95946                  21458595.0274
        20.0004         23.2504
 00  5 16 15 52  0.0000000  0  7G 2G 4G 5G 7G16G 9G24
  23021485.2114    6192083.16346   2176465.22345                  23021494.0864
        12.0004          8.0004
  20404011.4454   -5748338.63047  -4419376.39847                  20404015.5234
        24.0004         29.5004
  23328829.1804   -7515525.76045  -5689762.74345                  23328834.5474
         9.7504          5.2504
  22355928.5784    6450087.59946   4999826.11146                  22355935.0004
        18.2504         16.7504
  24609650.5634    -467007.86543   -312729.06342                  24609663.3524
         6.0004          2.0004
  21467307.6414   -5306198.50847  -4069873.01247                  21467311.9304
        22.5004         28.5004
  21451812.7974  -12758096.14847  -9732508.50146                  21451818.8914
        20.2504         23.0004
 00  5 16 15 52 15.0000000  0  7G 2G 4G 5G 7G16G 9G24
  23028121.4384    6226955.81445   2203638.62345                  23028130.4064
        11.7504          8.0004
  20403976.0944   -5748524.02247  -4419520.86247                  20403980.2664
        24.0004         29.0004
  23321090.2974   -7556193.58145  -5721451.93445                  23321096.0394
         9.2504          5.2504
  22361684.6024    6480334.25246   5023394.87446                  22361690.6254
        18.2504         16.7504
  24607467.6954    -478479.70144   -321668.06042                  24607483.9304
         6.2504          1.5004
  21467310.9924   -5306181.36847  -4069859.66747                  21467315.3284
        22.5004         28.7504
  21445058.3914  -12793590.66747  -9760166.53446                  21445064.4844
        20.2504         23.2504
 00  5 16 15 52 30.0000000  0  7G 2G 4G 5G 7G16G 9G24
  23034773.4774    6261913.21945   2230878.05245                  23034782.3984
        11.5004          8.0004
  20403971.8674   -5748545.28647  -4419537.43447                  20403976.0864
        24.2504         29.0004
  23313356.0234   -7596836.75345  -5753121.90345                  23313362.0824
         9.2504          5.0004
  22367446.2584    6510611.36746   5046987.37546                  22367452.5864
        18.0004         16.7504
  24605308.6254    -489828.52344   -330511.18842                  24605324.9774
         6.2504          1.5004
  21467343.7504   -5306009.46747  -4069725.73247                  21467348.0984
        22.5004         29.0004
  21438326.2344  -12828968.55747  -9787733.68746                  21438332.3054
        20.5004         23.2504
 00  5 16 15 52 45.0000000  0  7G 2G 4G 5G 7G16G 9G24
  23041441.4844    6296954.41945   2258182.76945                  23041450.9694
        11.7504          8.0004
  20403999.0704   -5748403.41747  -4419426.89147                  20404003.3244
        24.2504         29.2504
  23305626.1334   -7637456.15345  -5784773.35445                  23305632.3324
         9.0004          5.0004
  22373213.5234    6540917.93446   5070602.82946                  22373219.7934
        18.2504         16.5004
  24603172.7114    -501055.04643   -339259.13942                  24603187.8794
         6.0004          2.0004
  21467405.7034   -5305683.73147  -4069471.92247                  21467410.3204
        22.0004         28.7504
  21431616.0784  -12864230.50747  -9815210.50646                  21431621.9734
        20.5004         23.0004
 00  5 16 15 53  0.0000000  0  7G 2G 4G 5G 7G16G 9G24
  23048126.2814    6332078.62946   2285552.17045                  23048135.5664
        12.2504          8.7504
  20404056.9924   -5748099.27547  -4419189.89847                  20404061.2344
        24.2504         29.2504
  23297901.6334   -7678052.22845  -5816406.65345                  23297907.0234
         9.7504          5.2504
  22378986.0234    6571253.04846   5094240.52046                  22378992.1174
        18.0004         15.7504
  24601058.4384    -512159.77144   -347912.04542                  24601072.6564
         6.7504          1.7504
  21467496.6094   -5305204.91047  -4069098.83147                  21467500.9804
        22.7504         28.5004
  21424927.7424  -12899377.06847  -9842597.40446                  21424933.8954
        20.2504         23.0004
 00  5 16 15 53 15.0000000  0  7G 2G 4G 5G 7G16G 9G24
  23054826.1024    6367287.51546   2312987.54845                  23054834.8714
        13.2504          8.2504
  20404145.9384   -5747631.18847  -4418825.16247                  20404150.1454
        23.7504         29.7504
  23290181.2424   -7718623.10245  -5848020.28345                  23290187.3244
        10.0004          5.2504
  22384764.4844    6601618.35446   5117901.75746                  22384770.5904
        18.0004         15.5004
  24598969.2974    -523140.75944   -356468.58242                  24598986.5864
         6.7504          1.7504
  21467617.3674   -5304571.27647  -4068605.09747                  21467621.7504
        22.5004         29.5004
  21418261.8204  -12934406.34847  -9869892.91246                  21418267.9264
        20.0004         23.0004
 00  5 16 15 53 30.0000000  0  7G 2G 4G 5G 7G16G 9G24
  23061541.8134    6402580.32746   2340488.34445                  23061551.4494
        12.2504          8.2504
  20404266.2664   -5746999.85347  -4418333.21347                  20404270.4494
        23.7504         29.0004
  23282465.2814   -7759169.33145  -5879614.73245                  23282471.1644
        10.0004          5.2504
  22390548.4144    6632013.09146   5141585.91446                  22390554.4264
        18.0004         15.2504
  24596902.2344    -533998.42744   -364928.98242                  24596917.1684
         6.2504          1.7504
  21467767.3284   -5303783.61447  -4067991.33947                  21467771.5234
        23.0004         29.0004
  21411618.3834  -12969318.58547  -9897097.21846                  21411624.3594
        20.0004         23.0004
 00  5 16 15 53 45.0000000  0  7G 2G 4G 5G 7G16G 9G24
  23068273.9064    6437956.95745   2368054.41145                  23068283.3674
        11.7504          8.0004
  20404417.4844   -5746205.43647  -4417714.18947                  20404421.6684
        24.2504         29.7504
  23274753.6334   -7799690.92145  -5911189.97045                  23274758.5554
         9.7504          5.0004
  22396337.7734    6662436.93646   5165292.76346                  22396343.8674
        18.0004         15.7504
  24594860.4144    -544732.82845   -373293.36542                  24594876.1214
         7.5004          2.0004
  21467946.5164   -5302842.17447  -4067257.75847                  21467950.8404
        23.0004         29.2504
  21404996.8204  -13004113.77147  -9924210.32346                  21405002.8674
        20.5004         23.2504
 00  5 16 15 54  0.0000000  0  7G 2G 4G 5G 7G16G 9G24
  23075022.1174    6473417.41446   2395685.82445                  23075030.9344
        12.0004          7.2504
  20404599.6254   -5745247.89147  -4416968.05447                  20404603.7624
        24.2504         29.7504
  23267048.0004   -7840187.51445  -5942745.75245                  23267053.8834
         9.7504          5.2504
  22402133.0474    6692890.02646   5189022.39846                  22402139.2114
        17.7504         15.0004
  24592841.1254    -555343.44945   -381561.35042                  24592856.7974
         7.7504          2.0004
  21468154.9924   -5301746.69547  -4066404.14847                  21468159.2114
        23.5004         29.7504
  21398398.0394  -13038791.62947  -9951231.99746                  21398404.0394
        21.0004         24.0004
 00  5 16 15 54 15.0000000  0  7G 2G 4G 5G 7G16G 9G24
  23081785.9144    6508961.58945   2423382.47045                  23081794.8134
        11.7504          7.2504
  20404812.9534   -5744127.31347  -4416094.88447                  20404817.1844
        24.5004         30.0004
  23259346.5864   -7880659.02145  -5974281.95445                  23259352.3054
         9.7504          5.5004
  22407933.4924    6723372.10646   5212774.60646                  22407939.5744
        17.7504         14.5004
  24590845.2424    -565830.20145   -389732.71243                  24590861.2544
         7.5004          2.5004
  21468392.7194   -5300497.15347  -4065430.48247                  21468397.0084
        23.0004         29.5004
  21391821.5554  -13073351.85647  -9978162.01946                  21391827.5434
        21.0004         23.7504
 00  5 16 15 54 30.0000000  0  7G 2G 4G 5G 7G16G 9G24
  23088565.3594    6544587.82445   2451143.07845                  23088574.3984
        11.2504          6.5004
  20405056.9924   -5742845.36447  -4415095.96347                  20405061.2584
        24.2504         29.7504
  23251649.8364   -7921106.85245  -6005799.70345                  23251655.1804
         9.7504          5.5004
  22413739.2664    6753881.57046   5236548.17046                  22413745.2544
        17.7504         15.2504
  24588873.1174    -576194.40945   -397808.66942                  24588887.6644
         8.2504          2.2504
  21468659.6644   -5299095.20847  -4064338.07247                  21468664.0004
        23.5004         29.0004
  21385267.0864  -13107795.92647 -10005001.51846                  21385273.0744
        21.0004         23.7504
 00  5 16 15 54 45.0000000  0  7G 2G 4G 5G 7G16G 9G24
  23095360.7424    6580297.76645   2478968.91745                  23095370.0744
        10.0004          6.0004
  20405331.8914   -5741400.40947  -4413970.02347                  20405336.1684
        24.5004         30.2504
  23243957.5084   -7961529.12445  -6037297.56345                  23243963.3324
        10.0004          5.7504
  22419550.5474    6784419.93146   5260344.24846                  22419556.6524
        17.5004         15.0004
  24586924.8364    -586434.07545   -405787.57543                  24586939.7934
         8.7504          2.7504
  21468955.6024   -5297539.19347  -4063125.59947                  21468960.0314
        23.0004         29.2504
  21378734.9454  -13142121.85247 -10031748.96146                  21378740.9104
        20.7504         24.0004
 00  5 16 15 55  0.0000000  0  7G 2G 4G 5G 7G16G 9G24
  23102171.9304    6616091.50645   2506860.02745                  23102181.6484
         9.7504          6.5004
  20405637.7584   -5739792.58147  -4412717.17647                  20405641.9774
        24.7504         30.0004
  23236270.3364   -8001925.71845  -6068775.41945                  23236276.4184
        10.2504          5.7504
  22425367.5234    6814987.14146   5284162.81446                  22425373.7934
        17.2504         15.0004
  24584999.8284    -596549.08245   -413669.32743                  24585012.2424
         8.0004          2.5004
  21469280.9614   -5295829.11847  -4061793.07847                  21469285.3094
        23.5004         29.0004
  21372225.5554  -13176329.25547 -10058404.04546                  21372231.5084
        21.0004         23.7504
 00  5 16 15 55 15.0000000  0  7G 2G 4G 5G 7G16G 9G24
  23108999.6254    6651970.12645   2534817.29045                  23109009.9884
        10.2504          6.7504
  20405975.0554   -5738020.67547  -4411336.47347                  20405979.1564
        24.2504         29.5004
  23228588.2504   -8042295.28245  -6100232.18745                  23228594.4144
        10.5004          6.2504
  22431189.7584    6845584.16446   5308004.59946                  22431195.9804
        17.2504         15.0004
  24583098.2974    -606538.12845   -421452.92243                  24583113.8634
         7.5004          2.7504
  21469636.1724   -5293963.93547  -4060339.69947                  21469640.5084
        22.7504         28.7504
  21365738.7424  -13210416.88547 -10084965.81046                  21365744.9774
        21.0004         24.0004
 00  5 16 15 55 30.0000000  0  7G 2G 4G 5G 7G16G 9G24
  23115842.9064    6687930.55845   2562838.31345                  23115852.6844
        11.5004          7.0004
  20406342.8594   -5736087.78047  -4409830.32547                  20406347.0204
        24.2504         29.7504
  23220910.8524   -8082640.63345  -6131670.10745                  23220916.6414
        10.2504          6.2504
  22437017.2814    6876207.94346   5331867.23746                  22437023.3164
        17.2504         14.7504
  24581220.9534    -616403.84045   -429140.42143                  24581236.5204
         8.5004          2.5004
  21470020.0314   -5291946.66447  -4058767.81447                  21470024.1804
        23.5004         29.5004
  21359274.4924  -13244387.57647 -10111436.44446                  21359280.4344
        21.2504         24.7504
 00  5 16 15 55 45.0000000  0  7G 2G 4G 5G 7G16G 9G24
  23122701.8524    6723974.64946   2590924.50945                  23122711.5124
        12.0004          8.0004
  20406741.5474   -5733992.13247  -4408197.35447                  20406745.8594
        24.2504         30.2504
  23213238.2814   -8122959.69745  -6163087.55145                  23213243.9884
        10.5004          6.0004
  22442850.3134    6906860.30046   5355752.14346                  22442856.4184
        17.2504         15.2504
  24579367.3364    -626144.23245   -436730.28543                  24579381.1804
         9.2504          2.7504
  21470433.1174   -5289775.46147  -4057075.98047                  21470437.4534
        23.0004         29.2504
  21352832.6724  -13278239.23147 -10137814.33346                  21352838.8014
        21.2504         24.7504
 00  5 16 15 56  0.0000000  0  7G 2G 4G 5G 7G16G 9G24
  23129577.4304    6760103.00246   2619076.36945                  23129587.2304
        12.2504          8.2504
  20407171.3674   -5731732.98547  -4406436.98147                  20407175.7504
        23.7504         29.0004
  23205571.2974   -8163251.63745  -6194483.82245                  23205577.3094
        10.7504          6.7504
  22448689.0554    6937541.89546   5379659.84046                  22448695.3954
        17.0004         14.7504
  24577538.1724    -635758.23845   -444221.71643                  24577553.6564
         8.2504          3.0004
  21470875.7274   -5287449.60247  -4055263.62947                  21470880.1454
        23.5004         28.7504
  21346413.8364  -13311970.72447 -10164098.57846                  21346419.9534
        21.2504         25.0004
 00  5 16 15 56 15.0000000  0  7G 2G 4G 5G 7G16G 9G24
  23136468.5704    6796315.93146   2647294.14045                  23136477.7854
        12.2504          8.2504
  20407632.6484   -5729310.15047  -4404549.05647                  20407637.0434
        23.7504         28.7504
  23197908.9614   -8203515.90745  -6225858.55945                  23197914.5394
        10.7504          6.2504
  22454533.2114    6968252.96846   5403590.49746                  22454539.4454
        17.2504         15.5004
  24575732.7194    -645245.28445   -451614.11743                  24575747.0084
         7.7504          3.2504
  21471347.7894   -5284968.79647  -4053330.54347                  21471352.0904
        22.7504         28.2504
  21340017.8914  -13345581.52547 -10190288.78646                  21340023.8674
        21.5004         25.0004
 00  5 16 15 56 30.0000000  0  7G 2G 4G 5G 7G16G 9G24
  23143375.3134    6832612.47946   2675577.05045                  23143385.3714
        12.2504          8.0004
  20408124.5164   -5726724.47047  -4402534.24447                  20408128.8164
        23.7504         29.5004
  23190252.1564   -8243753.31245  -6257212.36545                  23190257.8284
        11.5004          6.5004
  22460382.7194    6998992.38446   5427543.23646                  22460389.0474
        16.7504         15.0004
  24573951.9144    -654606.14545   -458908.24443                  24573967.4924
         9.0004          3.2504
  21471849.0164   -5282333.99947  -4051277.46847                  21471853.3874
        23.0004         28.5004
  21333644.5314  -13379072.37647 -10216385.53146                  21333650.5554
        21.5004         25.2504
 00  5 16 15 56 45.0000000  0  7G 2G 4G 5G 7G16G 9G24
  23150299.0004    6868993.18146   2703925.54045                  23150309.1884
        12.2504          8.7504
  20408647.5864   -5723975.68247  -4400392.33147                  20408651.6884
        23.7504         29.2504
  23182600.2274   -8283963.13745  -6288544.67245                  23182606.2734
        11.0004          6.2504
  22466237.6174    7029760.67546   5451518.48246                  22466243.6174
        17.0004         14.5004
  24572193.8204    -663840.03145   -466103.44344                  24572206.8674
         8.0004          3.5004
  21472380.0474   -5279544.70147  -4049103.99847                  21472384.5124
        23.0004         29.0004
  21327294.4844  -13412442.50147 -10242388.18646                  21327300.4494
        21.2504         24.7504
 00  5 16 15 57  0.0000000  0  7G 2G 4G 5G 7G16G 9G24
  23157237.3204    6905456.41245   2732338.34145                  23157246.9694
        11.0004          7.2504
  20409201.4774   -5721065.19147  -4398124.41647                  20409205.8834
        23.7504         28.5004
  23174953.4224   -8324146.69745  -6319856.51945                  23174959.2114
        10.7504          6.5004
  22472097.9224    7060556.27446   5475515.00946                  22472104.0864
        16.5004         15.0004
  24570460.9304    -672948.21445   -473200.64143                  24570475.7934
         7.7504          3.2504
  21472939.8444   -5276602.38747  -4046811.30047                  21472944.1684
        23.5004         28.2504
  21320967.2424  -13445693.13847 -10268297.74646                  21320973.1724
        21.5004         25.0004
 00  5 16 15 57 15.0000000  0  7G 2G 4G 5G 7G16G 9G24
  23164191.8444    6942001.37445   2760814.83445                  23164202.5124
        10.0004          7.2504
  20409785.8524   -5717993.81247  -4395731.14747                  20409790.2344
        23.7504         26.2504
  23167311.9534   -8364304.57445  -6351148.35645                  23167318.0474
        11.0004          6.5004
  22477963.1024    7091378.29846   5499532.12346                  22477969.3364
        16.5004         14.7504
  24568751.5864    -681931.21145   -480200.33043                  24568766.2384
         8.2504          3.0004
  21473528.6884   -5273507.83547  -4044399.95247                  21473533.1644
        22.7504         26.2504
  21314662.4064  -13478824.79947 -10294114.58546                  21314668.2074
        22.0004         25.0004
 00  5 16 15 57 30.0000000  0  7G 2G 4G 5G 7G16G 9G24
  23171161.3674    6978628.94445   2789355.69245                  23171171.3444
         9.5004          6.2504
  20410401.1254   -5714760.85047  -4393211.94047                  20410405.4144
        23.7504         31.5004
  23159675.2664   -8404435.66145  -6382419.30045                  23159680.7034
        10.7504          6.7504
  22483833.9534    7122227.51746   5523570.41746                  22483840.3524
        17.0004         14.7504
  24567066.0084    -690787.87345   -487101.60443                  24567080.8594
         8.0004          3.0004
  21474146.6804   -5270260.07347  -4041869.26247                  21474151.2504
        23.0004         31.0004
  21308380.5634  -13511836.32947 -10319837.83246                  21308386.4924
        21.7504         25.0004
 00  5 16 15 57 45.0000000  0  7G 2G 4G 5G 7G16G 9G24
  23178146.7814    7015339.39245   2817961.13345                  23178156.9454
         9.2504          5.7504
  20411047.1564   -5711365.86647  -4390566.56547                  20411051.5864
        23.7504         26.5004
  23152043.2274   -8444539.40045  -6413668.94445                  23152049.3094
        11.0004          6.5004
  22489709.2504    7153104.20246   5547630.12946                  22489715.5664
        17.2504         14.7504
  24565404.9144    -699517.78845   -493904.05543                  24565418.6884
         7.7504          3.2504
  21474793.8444   -5266858.94347  -4039218.96646                  21474797.8054
        22.7504         25.5004
  21302121.4694  -13544727.24247 -10345467.08046                  21302127.5164
        21.5004         25.2504
 00  5 16 15 58  0.0000000  0  7G 2G 4G 5G 7G16G 9G24
  23185149.5234    7052135.00745   2846632.94945                  23185159.5354
        10.0004          5.5004
  20411724.4224   -5707806.80647  -4387793.29447                  20411726.8244
        24.0004         32.0004
  23144417.8914   -8484613.22045  -6444895.28145                  23144423.5984
        10.7504          6.2504
  22495590.7034    7184010.75046   5571713.10146                  22495597.1254
        17.2504         14.5004
  24563768.7194    -708118.22845   -500605.65543                  24563783.6414
         7.7504          3.0004
  21475470.6024   -5263302.06547
        23.0004
  21295885.9144  -13577494.95247 -10371000.32346                  21295891.8324
        21.0004         24.5004
 00  5 16 15 58 15.0000000  0  7G 2G 4G 5G 7G16G 9G24
  23192167.0394    7089011.59645   2875367.82145                  23192177.5664
        11.0004          6.5004
  20412432.2424   -5704087.75447  -4384895.22847                  20412436.1094
        23.7504         31.0004
  23136796.8054   -8524661.12645  -6476101.44145                  23136802.6764
        11.0004          6.5004
  22501476.5314    7214942.69746   5595815.88046                  22501482.7424
        17.2504         14.2504
  24562154.9774    -716593.25045   -507209.51544                  24562170.8714
         7.7504          3.5004
  21476176.6094   -5259593.68047
        22.7504
  21289673.2034  -13610143.31847 -10396440.57446                  21289679.1564
        20.5004         24.2504
 00  5 16 15 58 30.0000000  0  7G 2G 4G 5G 7G16G 9G24
  23199200.0314    7125967.92445   2904164.83745                  23199210.0314
        11.7504          6.5004
  20413170.1564   -5700210.05147  -4381873.67147                  20413174.1994
        23.7504         28.0004
  23129180.5474   -8564684.22345  -6507288.21445                  23129186.5594
        10.7504          6.7504
  22507367.7894    7245898.82946   5619937.48646                  22507373.8244
        17.2504         13.5004
  24560566.1174    -724943.98345   -513716.56344                  24560582.5634
         7.5004          3.5004
  21476910.6644   -5255735.09447       609.87757                  21476914.7894
        23.0004         27.7504
  21283482.6804  -13642673.44947 -10421788.68846                  21283488.7384
        20.5004         24.7504
 00  5 16 15 58 45.0000000  0  7G 2G 4G 5G 7G16G 9G24
  23206247.7814    7163003.08946   2933023.29745                  23206257.8524
        12.5004          6.7504
  20413937.8914   -5696174.55647  -4378729.12847                  20413942.1334
        23.7504         29.0004
  23121568.6804   -8604683.12945  -6538456.17545                  23121574.9144
        10.2504          6.7504
  22513262.7974    7276878.22246   5644077.23646                  22513269.0314
        17.0004         14.0004
  24559000.2344    -733170.72344   -520126.95343                  24559014.4534
         6.7504          2.7504
  21477673.4614   -5251727.09047      3732.97747                  21477678.0434
        22.2504         28.0004
  21277314.9384  -13675085.85847 -10447045.07446                  21277320.9144
        20.5004         24.7504
 00  5 16 15 59  0.0000000  0  7G 2G 4G 5G 7G16G 9G24
  23213311.0474    7200120.25546   2961945.64345                  23213321.2464
        12.5004          7.2504
  20414736.5234   -5691978.19447  -4375459.23247                  20414740.6954
        23.7504         30.2504
  23113963.1334   -8644654.42045  -6569602.61245                  23113969.1454
        10.2504          6.7504
  22519163.3134    7307884.08146   5668237.59846                  22519169.3364
        17.5004         13.5004
  24557459.0474    -741270.22644   -526438.21643                  24557475.3524
         7.2504          3.2504
  21478465.3204   -5247566.48647      6974.98347                  21478469.9734
        22.2504         29.2504
  21271170.1804  -13707377.15847 -10472207.09846                  21271176.2274
        21.0004         25.0004
 00  5 16 15 59 15.0000000  0  7G 2G 4G 5G 7G16G 9G24
  23220389.4774    7237318.69146   2990931.30945                  23220399.0784
        12.5004          7.7504
  20415565.5554   -5687621.64747  -4372064.52147                  20415569.8444
        24.0004         29.7504
  23106361.5554   -8684598.61145  -6600727.92245                  23106367.9304
        10.2504          6.7504
  22525068.2114    7338915.58146   5692417.95146                  22525074.2814
        16.7504         13.7504
  24555941.8444    -749242.99144   -532650.72443                  24555956.3094
         7.0004          3.0004
  21479285.7814   -5243254.05447     10335.30847                  21479290.3984
        22.2504         29.0004
  21265048.1334  -13739547.82147 -10497275.11446                  21265054.3204
        20.2504         24.5004
 00  5 16 15 59 30.0000000  0  7G 2G 4G 5G 7G16G 9G24
  23227484.3204    7274599.96046   3019981.53045                  23227494.3094
        12.0004          7.2504
  20416425.2974   -5683103.44247  -4368543.84647                  20416429.7384
        23.7504         29.2504
  23098766.2274   -8724513.90245  -6631830.71945                  23098772.4614
        10.5004          6.7504
  22530978.3204    7369974.16346   5716619.40146                  22530984.5664
        16.7504         13.7504
  24554448.8834    -757087.16144   -538763.01243                  24554464.0274
         6.7504          2.5004
  21480135.4924   -5238788.18747     13815.18847                  21480140.3674
        22.0004         28.0004
  21258949.5394  -13771595.84347 -10522247.56646                  21258955.6454
        20.5004         25.0004
 00  5 16 15 59 45.0000000  0  7G 2G 4G 5G 7G16G 9G24
  23234594.1884    7311960.99845   3049093.90345                  23234604.0004
        11.7504          7.5004
  20417315.1804   -5678426.44847  -4364899.43347                  20417319.8444
        23.5004         28.5004
  23091175.1884   -8764402.97445  -6662913.09845                  23091181.4344
        10.7504          6.7504
  22536893.4224    7401057.02846   5740839.77446                  22536899.4344
        16.5004         13.2504
  24552980.0474    -764805.37943   -544777.16243                  24552995.2504
         5.7504          2.7504
  21481014.2274   -5234171.87647     17412.30647                  21481019.1954
        22.0004         27.5004
  21252873.7894  -13803524.12647 -10547126.70946                  21252879.8714
        21.0004         25.0004
 00  5 16 16  0  0.0000000  0  7G 2G 4G 5G 7G16G 9G24
  23241718.6414    7349405.03845   3078270.96845                  23241728.9694
        10.7504          7.5004
  20418235.9694   -5673587.74247  -4361129.01347                  20418240.6214
        23.2504         29.0004
  23083590.2034   -8804262.50045  -6693972.42845                  23083596.4024
        10.7504          7.0004
  22542813.3754    7432167.09346   5765081.34446                  22542819.7154
        16.5004         13.2504
  24551536.7734    -772394.29544   -550690.53143                  24551551.9654
         6.2504          2.7504
  21481921.9384   -5229402.02447     21129.05247                  21481926.8364
        21.7504         28.7504
  21246821.4924  -13835329.14447 -10571909.80746                  21246827.5044
        21.0004         25.0004
 00  5 16 16  0 15.0000000  0  7G 2G 4G 5G 7G16G 9G24
  23248859.2194    7386928.12945   3107509.63445                  23248869.8874
        10.2504          7.5004
  20419186.9614   -5668591.24947  -4357235.64247                  20419191.4844
        23.5004         29.0004
  23076010.3134   -8844096.22045  -6725011.67145                  23076016.6174
        10.7504          7.2504
  22548738.1954    7463300.40646   5789341.02046                  22548744.4534
        16.7504         13.5004
  24550115.3834    -779857.59943   -556506.09143                  24550127.9844
         5.7504          2.7504
  21482858.0084   -5224482.55247     24962.39147                  21482862.8834
        22.2504         28.5004
  21240791.7504  -13867014.56747 -10596599.71946                  21240797.7274
        21.0004         25.5004
 00  5 16 16  0 30.0000000  0  7G 2G 4G 5G 7G16G 9G24
  23256015.8594    7424535.46545   3136813.93545                  23256026.1644
        10.2504          6.7504
  20420168.6414   -5663431.81247  -4353215.30147                  20420173.1294
        23.5004         28.2504
  23068436.0554   -8883898.71045  -6756026.56545                  23068442.3244
        11.0004          7.0004
  22554667.9534    7494462.19546   5813622.89046                  22554674.8834
        16.5004         13.5004
  24548720.8594    -787189.97343   -562219.57242                  24548734.4924
         5.2504          2.2504
  21483823.6254   -5219408.23147     28916.39547                  21483828.2894
        22.2504         28.0004
  21234785.9924  -13898575.02447 -10621192.24946                  21234791.9924
        21.0004         25.5004
 00  5 16 16  0 45.0000000  0  7G 2G 4G 5G 7G16G 9G24
  23263187.4774    7462222.90745   3166180.67045                  23263198.2154
        10.0004          6.5004
  20421180.7584   -5658113.58447  -4349071.23047                  20421185.2814
        23.7504         29.7504
  23060866.9844   -8923673.81945  -6787020.14445                  23060873.2544
        10.7504          7.0004
  22560602.2344    7525648.22946   5837923.65146                  22560608.5164
        16.2504         13.2504
  24547349.3284    -794395.15543   -567833.95443                  24547364.3914
         5.2504          2.5004
  21484817.8524   -5214183.12147     32987.89647                  21484822.6334
        21.7504         28.5004
  21228803.4774  -13930014.23147 -10645690.30347                  21228809.5234
        20.7504         25.7504
 00  5 16 16  1  0.0000000  0  7G 2G 4G 5G 7G16G 9G24
  23270375.2424    7499991.54645   3195610.65145                  23270386.4844
        10.2504          7.0004
  20422223.1804   -5652635.57347  -4344802.65647                  20422227.6214
        23.5004         29.2504
  23053303.8444   -8963420.17545  -6817991.31745                  23053309.6334
        11.0004          7.2504
  22566541.6414    7556859.58146   5862244.13846                  22566547.8524
        15.7504         13.5004
  24546002.2734    -801471.80542   -573348.16242                  24546019.5634
         4.7504          1.7504
  21485841.1644   -5208806.31747     37177.59747                  21485846.1094
        21.7504         28.0004
  21222843.9534  -13961330.90247 -10670092.86746                  21222850.0824
        21.0004         25.5004
 00  5 16 16  1 15.0000000  0  7G 2G 4G 5G 7G16G 9G24
  23277577.4614    7537840.66045   3225103.33445                  23277587.8364
        11.0004          6.5004
  20423296.0394   -5646998.52647  -4340410.15147                  20423300.5744
        23.2504         28.7504
  23045745.4774   -9003138.32045  -6848940.49345                  23045750.7974
        11.0004          7.2504
  22572485.7424    7588095.48746   5886583.75146                  22572492.0474
        15.7504         13.5004
  24544680.7114    -808420.26042   -578762.51242                  24544697.8954
         4.5004          1.7504
  21486893.0004   -5203278.46447     41484.99747                  21486897.9224
        21.7504         28.0004
  21216907.7664  -13992525.50847 -10694400.31446                  21216913.8134
        21.5004         25.5004
 00  5 16 16  1 30.0000000  0  7G 2G 4G 5G 7G16G 9G24
  23284795.9304    7575771.98446   3254660.06045                  23284805.5314
        12.2504          6.7504
  20424399.2504   -5641200.62747  -4335892.30747                  20424403.8324
        23.7504         29.5004
  23038192.8914   -9042826.19445  -6879866.08145                  23038198.8204
        11.2504          6.5004
  22578434.7274    7619357.74446   5910943.89446                  22578441.2424
        15.7504         13.2504
  24543382.9304    -815238.69242   -584075.51642                  24543399.1174
         4.2504          1.7504
  21487974.1414   -5197597.63547     45911.59647                  21487979.1564
        22.0004         28.2504
  21210995.1804  -14023596.04347 -10718611.09847                  21211001.1914
        21.2504         25.7504
 00  5 16 16  1 45.0000000  0  7G 2G 4G 5G 7G16G 9G24
  23292030.0084    7613785.75746   3284281.06645                  23292039.9614
        12.2504          6.7504
  20425533.1254   -5635241.59747  -4331248.91347                  20425537.4384
        24.0004         29.7504
  23030646.1724   -9082483.38045  -6910767.74445                  23030652.0554
        11.5004          6.7504
  22584388.9924    7650646.52246   5935324.71146                  22584395.2384
        16.2504         13.5004
  24542110.9534    -821926.53341   -589286.75242                  24542126.7074
         3.5004          1.7504
  21489084.2974   -5191763.72047     50457.49047                  21489089.1954
        22.0004         28.7504
  21205106.3594  -14054541.95347 -10742724.76147                  21205112.4304
        21.7504         26.0004
 00  5 16 16  2  0.0000000  0  7G 2G 4G 5G 7G16G 9G24
  23299278.3524    7651877.66345   3313962.91445                  23299288.1994
        11.7504          6.5004
  20426696.9614   -5629126.16347  -4326483.64447                  20426701.2384
        24.0004         29.7504
  23023105.0784   -9122113.94445  -6941648.70645                  23023110.7034
        11.7504          7.0004
  22590347.2344    7681957.47046   5959722.80146                  22590353.4104
        15.7504         13.2504
  24540861.4224    -828487.87541   -594399.42942                  24540876.4964
         3.5004          2.0004
  21490222.7664   -5185781.15047     55119.21447                  21490227.5004
        22.0004         28.7504
  21199240.6414  -14085367.35947 -10766744.53247                  21199246.6994
        22.0004         26.5004
 00  5 16 16  2 15.0000000  0  7G 2G 4G 5G 7G16G 9G24
  23306542.2034    7690049.02445   3343706.66145                  23306552.6254
        10.7504          5.7504
  20427890.7194   -5622852.79447  -4321595.30647                  20427895.0314
        23.7504         29.5004
  23015568.8204   -9161716.31745  -6972507.67945                  23015574.3874
        11.7504          6.7504
  22596310.1644    7713291.87046   5984139.16946                  22596316.3634
        16.2504         13.0004
  24539637.3134    -834921.07142   -599412.19742                  24539652.3754
         3.7504          1.7504
  21491389.8204   -5179648.55247     59897.84747                  21491394.4264
        22.5004         28.7504
  21193398.1024  -14116070.62547 -10790669.12347                  21193404.1254
        22.0004         26.2504
 00  5 16 16  2 30.0000000  0  7G 2G 4G 5G 7G16G 9G24
  23313822.0234    7728302.25445   3373514.22945                  23313832.7734
        10.5004          5.7504
  20429115.0314   -5616419.15447  -4316582.08347                  20429119.2624
        23.7504         30.0004
  23008038.7344   -9201287.80546  -7003342.57145                  23008043.8444
        12.2504          7.2504
  22602277.8054    7744652.15746   6008575.71246                  22602284.5204
        16.0004         13.2504
  24538437.8834    -841223.61642   -604323.30142                  24538452.6884
         3.7504          1.7504
  21492585.7274   -5173363.47047     64795.29947                  21492590.4144
        22.0004         28.7504
  21187579.0944  -14146649.09747 -10814496.47847                  21187585.0354
        22.2504         26.5004
 00  5 16 16  2 45.0000000  0  7G 2G 4G 5G 7G16G 9G24
  23321116.2894    7766636.05045   3403384.59145                  23321126.9454
        10.0004          6.2504
  20430369.5784   -5609826.53447  -4311444.97447                  20430374.1024
        23.7504         29.2504
  23000514.2814   -9240829.45446  -7034154.22845                  23000519.6844
        12.2504          7.5004
  22608250.1804    7776037.04646   6033031.41946                  22608256.6134
        16.5004         13.2504
  24537263.0634    -847396.38642   -609133.11942                  24537277.8914
         3.7504          1.7504
  21493810.6484   -5166927.22147     69810.53447                  21493815.5594
        22.2504         28.2504
  21181783.8594  -14177103.72447 -10838227.32847                  21181789.8134
        22.2504         26.5004
 00  5 16 16  3  0.0000000  0  7G 2G 4G 5G 7G16G 9G24
  23328426.3594    7805050.38145   3433317.68845                  23328436.7464
        10.2504          6.5004
  20431654.3134   -5603075.09847  -4306184.11147                  20431658.8834
        23.5004         29.2504
  22992995.4384   -9280341.02546  -7064942.43845                  22993000.5594
        12.2504          7.7504
  22614227.5864    7807446.48646   6057506.26446                  22614234.2544
        16.7504         13.2504
  24536112.5704    -853439.28442   -613841.84842                  24536128.3364
         3.7504          1.7504
  21495064.2034   -5160339.72947     74943.63247                  21495068.9844
        22.5004         29.0004
  21176012.0704  -14207434.18847 -10861861.42247                  21176017.9774
        22.0004         26.5004
 00  5 16 16  3 15.0000000  0  7G 2G 4G 5G 7G16G 9G24
  23335752.2584    7843545.15445   3463313.47245                  23335763.4064
        10.7504          6.7504
  20432969.3914   -5596164.81647  -4300799.47847                  20432973.8204
        23.7504         29.0004
  22985482.1954   -9319822.37345  -7095707.11645                  22985487.9964
        11.7504          7.5004
  22620208.8594    7838880.34246   6082000.14146                  22620215.2704
        16.2504         13.0004
  24534987.4144    -859352.00242   -618449.14542                  24535001.2584
         3.7504          1.7504
  21496346.4614   -5153601.13247     80194.47147                  21496351.1484
        22.7504         28.7504
  21170264.0634  -14237640.35947 -10885398.66647                  21170270.0514
        22.5004         26.2504
 00  5 16 16  3 30.0000000  0  7G 2G 4G 5G 7G16G 9G24
  23343092.6804    7882119.34145   3493371.15645                  23343103.5944
        10.2504          6.7504
  20434314.3134   -5589096.73247  -4295291.88247                  20434318.5784
        23.7504         29.2504
  22977975.1024   -9359274.18446  -7126448.76445                  22977981.2424
        12.0004          7.7504
  22626195.1024    7870337.65446   6106512.28346                  22626201.9224
        16.2504         13.0004
  24533887.8754    -865135.32142   -622955.47342                  24533904.0634
         4.7504          1.7504
  21497657.3914   -5146712.51747     85562.20947                  21497661.9614
        22.5004         28.7504
  21164539.5234  -14267723.08247 -10908839.72247                  21164545.4414
        22.2504         26.5004
 00  5 16 16  3 45.0000000  0  7G 2G 4G 5G 7G16G 9G24
  23350448.0704    7920772.59645   3523490.41645                  23350459.1024
        10.2504          7.0004
  20435689.3364   -5581871.41547  -4289661.76247                  20435693.6484
        23.5004         28.7504
  22970473.1644   -9398696.61946  -7157167.52145                  22970478.5554
        12.7504          7.7504
  22632185.6724    7901817.96046   6131042.34346                  22632192.5904
        15.7504         12.7504
  24532812.0314    -870789.58143   -627361.42942                  24532827.3754
         5.2504          2.2504
  21498996.7504   -5139674.17147     91046.62047                  21499001.2384
        22.7504         29.0004
  21158838.2034  -14297682.38447 -10932184.60447                  21158844.1684
        22.2504         26.5004
 00  5 16 16  4  0.0000000  0  7G 2G 4G 5G 7G16G 9G24
  23357819.0314    7959506.13345   3553672.23345                  23357830.4024
        11.0004          7.2504
  20437094.1884   -5574487.73347  -4283908.24747                  20437098.7234
        23.0004         28.5004
  22962977.1804   -9438088.21746  -7187862.25445                  22962981.8794
        12.5004          8.0004
  22638180.9304    7933322.44646   6155591.24046                  22638187.7034
        16.2504         12.7504
  24531760.2114    -876313.07643   -631665.38742                  24531776.2934
         5.2504          1.7504
  21500364.7664   -5132484.93147     96648.60847                  21500369.1844
        22.7504         28.7504
  21153160.8444  -14327516.83347 -10955432.19447                  21153166.7734
        22.2504         26.2504
 00  5 16 16  4 15.0000000  0  7G 2G 4G 5G 7G16G 9G24
  23365206.0394    7998321.54745   3583917.85645                  23365216.3204
        11.2504          7.2504
  20438529.8364   -5566944.21647  -4278030.18147                  20438534.3364
        23.0004         28.7504
  22955487.2194   -9477447.09646  -7218531.48245                  22955492.2814
        12.2504          8.5004
  22644180.9064    7964852.64946   6180160.17746                  22644187.3284
        15.7504         12.5004
  24530734.8674    -881704.11843   -635866.15042                  24530752.5314
         6.0004          2.2504
  21501761.9384   -5125143.31747    102369.32947                  21501766.2734
        22.7504         29.0004
  21147507.7734  -14357224.57147 -10978581.05147                  21147513.7734
        22.2504         26.5004
 00  5 16 16  4 30.0000000  0  7G 2G 4G 5G 7G16G 9G24
  23372607.1094    8037216.75145   3614225.64445                  23372617.4614
        11.0004          7.0004
  20439995.3054   -5559242.87747  -4272029.13747                  20439999.8284
        23.5004         28.5004
  22948003.5784   -9516775.14646  -7249176.68345                  22948009.1564
        12.5004          8.2504
  22650185.3364    7996406.52446   6204747.56246                  22650191.6994
        15.7504         12.5004
  24529733.7734    -886964.49043   -639965.09142                  24529747.0204
         6.0004          1.7504
  21503187.6414   -5117651.29147    108207.25547                  21503192.0944
        22.5004         29.0004
  21141878.2734  -14386807.46347 -11001632.62247                  21141884.3204
        22.0004         26.0004
 00  5 16 16  4 45.0000000  0  7G 2G 4G 5G 7G16G 9G24
  23380024.8754    8076194.32045   3644597.60845                  23380035.6254
        11.2504          6.5004
  20441491.3284   -5551381.07747  -4265903.06547                  20441495.6764
        23.2504         28.5004
  22940525.7894   -9556069.52446  -7279795.64245                  22940531.7894
        12.0004          8.0004
  22656195.0004    8027986.63546   6229355.38246                  22656201.7154
        15.5004         12.5004
  24528757.9924    -892091.29644   -643959.96843                  24528773.6764
         6.2504          2.7504
  21504642.5084   -5110006.33347    114164.34947                  21504646.9734
        23.0004         29.0004
  21136273.2034  -14416262.49947 -11024584.56347                  21136279.1564
        22.2504         26.2504
 00  5 16 16  5  0.0000000  0  7G 2G 4G 5G 7G16G 9G24
  23387456.8674    8115251.63545   3675031.72145                  23387467.0784
        10.2504          6.0004
  20443017.3054   -5543361.69447  -4259654.19847                  20443021.3484
        23.0004         28.5004
  22933054.2584   -9595332.55845  -7310390.19245                  22933060.3054
        11.5004          8.0004
  22662208.8204    8059590.43146   6253981.66846                  22662215.3244
        15.5004         12.2504
  24527808.0554    -897087.07344   -647852.73543                  24527823.7154
         7.0004          2.5004
  21506126.0084   -5102211.07547    120238.56947                  21506130.6844
        22.7504         29.2504
  21130691.8284  -14445592.29347 -11047438.92247                  21130697.6994
        22.0004         26.5004
 00  5 16 16  5 15.0000000  0  7G 2G 4G 5G 7G16G 9G24
  23394905.2734    8154390.89145   3705529.67045                  23394915.6024
        10.0004          5.5004
  20444573.8524   -5535182.40347  -4253280.73147                  20444577.9414
        23.0004         28.0004
  22925589.2504   -9634561.82245  -7340958.44345                  22925595.4494
        11.7504          8.2504
  22668227.9224    8091220.03346   6278628.05246                  22668234.3204
        15.5004         12.7504
  24526882.5474    -901949.16745   -651641.37943                  24526896.6374
         7.5004          2.7504
  21507638.2344   -5094263.36747    126431.56847                  21507642.8054
        22.7504         29.0004
  21125134.8134  -14474794.09247 -11070193.53147                  21125140.6954
        21.7504         26.2504
 00  5 16 16  5 30.0000000  0  7G 2G 4G 5G 7G16G 9G24
  23402368.8674    8193612.01545   3736091.41545                  23402378.8204
         9.7504          5.0004
  20446160.7814   -5526843.37647  -4246782.78947                  20446165.0824
        23.0004         27.7504
  22918130.6174   -9673757.02646  -7371500.13045                  22918136.6414
        12.2504          8.5004
  22674251.8674    8122875.39746   6303294.51846                  22674258.4304
        15.7504         12.7504
  24525982.2344    -906677.51644   -655325.75542                  24525995.6684
         7.0004          2.2504
  21509179.6954   -5086163.23047    132743.34847                  21509184.1484
        23.0004         28.7504
  21119602.1414  -14503867.76647 -11092848.30347                  21119608.1524
        21.2504         26.2504
 00  5 16 16  5 45.0000000  0  7G 2G 4G 5G 7G16G 9G24
  23409847.1644    8232912.50945   3766715.00645                  23409857.1054
         9.7504          5.0004
  20447777.6174   -5518347.17647  -4240162.37747                  20447781.8594
        23.0004         28.5004
  22910677.7194   -9712920.45546  -7402017.07445                  22910683.8134
        12.5004          8.7504
  22680280.1564    8154553.96746   6327979.06946                  22680286.6254
        15.5004         12.5004
  24525107.8754    -911274.29345   -658907.62142                  24525119.5044
         7.7504          2.2504
  21510749.4384   -5077913.16947    139171.95447                  21510753.9264
        23.0004         28.5004
  21114093.5634  -14532815.72947 -11115405.11947                  21114099.4804
        21.2504         26.0004
 00  5 16 16  6  0.0000000  0  7G 2G 4G 5G 7G16G 9G24
  23417340.8524    8272292.72845   3797400.71345                  23417351.7664
         9.5004          5.2504
  20449424.2274   -5509693.48047  -4233419.24047                  20449428.3284
        23.5004         28.7504
  22903231.6564   -9752051.51246  -7432508.76945                  22903237.2464
        12.5004          8.5004
  22686312.8674    8186256.12446   6352681.99346                  22686319.6994
        15.7504         12.7504
  24524259.1564    -915739.03145   -662386.64342                  24524271.9574
         8.2504          2.2504
  21512348.2814   -5069512.87247    145717.62147                  21512353.0514
        22.2504         28.2504
  21108609.0864  -14561637.17047 -11137863.36247                  21108615.0514
        21.2504         26.0004
 00  5 16 16  6 15.0000000  0  7G 2G 4G 5G 7G16G 9G24
  23424850.0474    8311751.88145   3828147.93545                  23424860.5044
        10.2504          4.7504
  20451100.8754   -5500883.01347  -4226553.95047                  20451105.0124
        23.5004         28.5004
  22895791.1804   -9791150.60746  -7462975.57645                  22895797.0514
        12.0004          8.2504
  22692350.0234    8217981.15146   6377402.74246                  22692356.7974
        16.2504         13.2504
  24523433.6954    -920072.08345   -665762.98143                  24523448.1604
         7.7504          2.7504
  21513975.2504   -5060963.00847    152379.82747                  21513979.9384
        22.7504         27.7504
  21103148.2344  -14590332.62747 -11160223.43247                  21103154.1884
        21.2504         26.5004
 00  5 16 16  6 30.0000000  0  7G 2G 4G 5G 7G16G 9G24
  23432373.7194    8351288.00345   3858955.17145                  23432383.9884
        10.0004          6.0004
  20452806.9224   -5491917.95347  -4219568.19047                  20452811.3054
        23.5004         28.5004
  22888357.0314   -9830219.52045  -7493418.86145                  22888363.0314
        11.7504          8.5004
  22698391.2974    8249726.98846   6402139.70046                  22698397.9184
        16.0004         13.0004
  24522633.7894    -924275.22645   -669038.15243                  24522647.0234
         8.2504          2.7504
  21515630.1884   -5052265.65247    159156.97747                  21515634.7344
        22.2504         28.2504
  21097711.3364  -14618903.85947 -11182486.69347                  21097717.2894
        21.0004         26.0004
 00  5 16 16  6 45.0000000  0  7G 2G 4G 5G 7G16G 9G24
  23439912.3524    8390903.13745   3889823.93545                  23439923.2894
        10.0004          5.2504
  20454542.4844   -5482796.29947  -4212460.40847                  20454546.8914
        23.5004         28.0004
  22880928.2274   -9869255.84645  -7523836.76745                  22880934.1094
        11.7504          8.7504
  22704436.3054    8281495.77646   6426894.53946                  22704443.4574
        16.5004         12.7504
  24521858.8594    -928346.20745   -672210.32943                  24521873.1254
         8.2504          2.7504
  21517313.7034   -5043418.68747    166050.68347                  21517318.4024
        22.7504         27.7504
  21092298.5704  -14647348.40547 -11204651.24047                  21092304.6054
        21.2504         26.7504
 00  5 16 16  7  0.0000000  0  7G 2G 4G 5G 7G16G 9G24
  23447465.5704    8430594.35145   3920752.00045                  23447475.9804
         9.7504          5.5004
  20456307.7114   -5473520.93647  -4205232.85447                  20456312.0124
        23.5004         28.5004
  22873506.0234   -9908262.23645  -7554231.32345                  22873511.7544
        11.7504          8.5004
  22710485.6884    8313284.52446   6451664.93046                  22710492.7344
        16.2504         13.7504
  24521109.2974    -932287.55045   -675281.44743                  24521123.9024
         8.5004          2.5004
  21519025.1024   -5034425.14347    173058.63347                  21519029.7424
        22.2504         27.7504
  21086909.5474  -14675669.07247 -11226719.25547                  21086915.5594
        22.2504         27.2504
 00  5 16 16  7 15.0000000  0  7G 2G 4G 5G 7G16G 9G24
  23455033.6564    8470363.21245   3951740.57745                  23455044.7704
        10.0004          5.7504
  20458102.2584   -5464090.41247  -4197884.39747                  20458106.2074
        23.7504         28.7504
  22866088.9694   -9947236.89846  -7584601.18245                  22866094.4654
        12.5004          9.0004
  22716538.9694    8345094.83846   6476452.12546                  22716545.6134
        16.5004         13.0004
  24520384.2584    -936097.77745   -678250.45543                  24520398.9104
         8.5004          2.7504
  21520764.9534   -5025283.41547    180182.03847                  21520769.6294
        22.7504         28.0004
  21081544.0314  -14703864.06047 -11248689.35947                  21081549.8674
        22.0004         27.7504
 00  5 16 16  7 30.0000000  0  7G 2G 4G 5G 7G16G 9G24
  23462616.8674    8510213.79545   3982792.81645                  23462629.5394
         9.7504          6.0004
  20459927.0554   -5454500.69047  -4190411.89347                  20459931.1914
        23.7504         28.7504
  22858679.0864   -9986175.54846  -7614942.95945                  22858684.3954
        12.5004          9.0004
  22722597.2664    8376930.73746   6501259.26846                  22722603.8524
        16.2504         12.7504
  24519684.9774    -939772.25145   -681113.62843                  24519700.4144
         8.0004          2.7504
  21522533.1724   -5015989.48747    187424.04747                  21522537.7424
        22.2504         27.2504
  21076203.4384  -14731928.97047 -11270558.08147                  21076209.3794
        21.7504         27.5004
 00  5 16 16  7 45.0000000  0  7G 2G 4G 5G 7G16G 9G24
  23470215.0704    8550142.83645   4013906.20245                  23470226.4064
        10.0004          5.5004
  20461781.5394   -5444755.12347  -4182817.95047                  20461785.6764
        23.2504         28.5004
  22851275.8754  -10025081.13246  -7645258.98545                  22851281.0314
        12.5004          8.5004
  22728659.7274    8408789.02346   6526083.84746                  22728666.4884
        16.2504         13.0004
  24519010.8984    -943314.34945   -683873.71443                  24519024.1214
         8.2504          3.0004
  21524330.4224   -5006546.69147    194782.05347                  21524335.1804
        22.0004         27.2504
  21070887.0234  -14759866.81547 -11292327.79447                  21070892.8714
        22.0004         27.2504
 00  5 16 16  8  0.0000000  0  7G 2G 4G 5G 7G16G 9G24
  23477828.8594    8590152.35045   4045082.30445                  23477840.1374
         9.5004          5.5004
  20463666.1414   -5434851.78847  -4175101.06747                  20463670.6174
        23.0004         28.2504
  22843878.8984  -10063951.34346  -7675547.44145                  22843884.5704
        12.2504          8.7504
  22734726.7734    8440671.75046   6550927.46946                  22734733.4774
        16.5004         12.7504
  24518362.5474    -946721.52145   -686528.57343                  24518375.7464
         8.2504          2.7504
  21526155.9384   -4996953.05247    202257.59847                  21526160.7544
        21.7504         27.2504
  21065595.3754  -14787675.26147 -11313996.68947                  21065601.3874
        23.0004         27.7504
 00  5 16 16  8 15.0000000  0  7G 2G 4G 5G 7G16G 9G24
  23485457.7194    8630239.61745   4076318.98445                  23485470.2504
         9.2504          5.2504
  20465580.1094   -5424793.48147  -4167263.42747                  20465584.5274
        23.2504         28.0004
  22836488.6804  -10102788.66946  -7705810.27745                  22836494.5164
        12.0004          8.7504
  22740798.1254    8472576.12046   6575787.95646                  22740805.0784
        16.5004         12.7504
  24517739.9454    -949996.31145   -689080.35343                  24517753.4494
         8.5004          3.0004
  21528009.6804   -4987211.31647    209848.54347                  21528014.5084
        22.0004         26.5004
  21060327.7274  -14815356.83047 -11335566.71947                  21060333.7274
        23.0004         28.5004
 00  5 16 16  8 30.0000000  0  7G 2G 4G 5G 7G16G 9G24
  23493101.0234    8670403.38945   4107615.26245                  23493113.0864
         9.7504          5.5004
  20467523.6094   -5414581.38247  -4159305.95047                  20467527.7114
        23.7504         28.7504
  22829103.8444  -10141594.00145  -7736048.18145                  22829109.8324
        11.7504          8.2504
  22746873.2114    8504500.89746   6600664.34846                  22746880.3284
        16.2504         12.7504
  24517141.1024    -953139.60545   -691529.64043                  24517156.7034
         8.0004          2.7504
  21529891.2974   -4977322.67347    217553.96547                  21529896.1254
        21.7504         26.7504
  21055084.0004  -14842912.50847 -11357038.65147                  21055090.0124
        22.2504         28.0004
 00  5 16 16  8 45.0000000  0  7G 2G 4G 5G 7G16G 9G24
  23500758.2274    8710643.19645   4138970.78145                  23500770.2304
        10.2504          5.7504
  20469496.0164   -5404216.16947  -4151229.17147                  20469500.2344
        23.5004         28.0004
  22821725.6024  -10180367.55646  -7766261.32245                  22821731.7194
        12.2504          8.5004
  22752952.2814    8536445.65846   6625556.30446                  22752959.3984
        15.7504         12.5004
  24516567.1414    -956151.82845   -693876.77842                  24516581.2774
         7.5004          2.2504
  21531800.9924   -4967287.53247    225373.53747                  21531805.5164
        22.2504         26.5004
  21049864.3444  -14870342.40847 -11378412.55547                  21049870.3914
        22.2504         27.7504
 00  5 16 16  9  0.0000000  0  7G 2G 4G 5G 7G16G 9G24
  23508430.2584    8750958.37445   4170385.05845                  23508441.7704
        10.2504          5.2504
  20471497.3914   -5393698.51447  -4143033.60147                  20471501.5634
        23.5004         28.2504
  22814353.4774  -10219109.70246  -7796449.98145                  22814359.5704
        12.2504          8.5004
  22759035.0084    8568409.71046   6650463.29646                  22759041.8794
        15.7504         12.5004
  24516019.0704    -959033.31145   -696122.06443                  24516033.6994
         7.7504          2.7504
  21533738.2114   -4957106.75647    233306.59247                  21533742.6174
        22.0004         27.0004
  21044668.3444  -14897647.08447 -11399688.90847                  21044674.1334
        23.0004         28.0004
 00  5 16 16  9 15.0000000  0  7G 2G 4G 5G 7G16G 9G24
  23516116.5164    8791351.49845   4201860.07945                  23516127.2774
        10.0004          5.2504
  20473528.1954   -5383025.97947  -4134717.34247                  20473532.6254
        23.2504         28.2504
  22806987.2424  -10257817.67646  -7826612.02645                  22806993.1724
        12.0004          8.5004
  22765121.6334    8600395.62746   6675387.32346                  22765128.5634
        15.7504         12.5004
  24515496.6484    -961781.49245   -698263.45843                  24515509.4844
         7.7504          2.7504
  21535704.0554   -4946777.76847    241355.12947                  21535708.6844
        21.7504         27.0004
  21039496.7274  -14924823.67447 -11420865.45947                  21039502.6914
        23.0004         28.7504
 00  5 16 16  9 30.0000000  0  7G 2G 4G 5G 7G16G 9G24
  23523818.4924    8831825.46745   4233398.09245                  23523829.7584
         9.7504          5.0004
  20475589.2814   -5372195.56147  -4126278.05247                  20475593.6884
        23.5004         28.2504
  22799628.8594  -10296488.21646  -7856744.88945                  22799634.7774
        12.0004          8.5004
  22771213.2584    8632406.37846   6700330.70846                  22771219.9494
        16.2504         12.5004
  24514999.3914    -964392.92845   -700298.30043                  24515013.7734
         7.5004          2.7504
  21537698.3444   -4936297.68547    249521.40247                  21537703.2894
        21.7504         27.0004
  21034350.1414  -14951869.04147 -11441939.73847                  21034356.0004
        22.7504         27.5004
 00  5 16 16  9 45.0000000  0  7G 2G 4G 5G 7G16G 9G24
  23531535.6724    8872378.60045   4264997.79845                  23531547.2424
         9.2504          5.2504
  20477679.9774   -5361209.18247  -4117717.24247                  20477684.2424
        23.7504         28.5004
  22792276.5634  -10335122.79645  -7886849.74345                  22792282.8554
        11.7504          8.5004
  22777309.3444    8664440.23446   6725292.09246                  22777316.3204
        16.2504         12.2504
  24514528.2734    -966869.34044   -702227.95143                  24514543.4064
         7.2504          3.0004
  21539721.0234   -4925668.24947    257804.05747                  21539725.8524
        21.7504         27.0004
  21029228.1884  -14978784.63047 -11462912.90247                  21029234.1884
        22.2504         27.7504
 00  5 16 16 10  0.0000000  0  7G 2G 4G 5G 7G16G 9G24
  23539267.5554    8913010.59245   4296658.94245                  23539279.3134
         9.0004          4.7504
  20479800.3444   -5350067.16047  -4109035.14947                  20479804.5864
        23.5004         29.0004
  22784931.5554  -10373721.35245  -7916926.52045                  22784937.5664
        11.7504          8.7504
  22783409.3444    8696496.87846   6750271.22746                  22783416.2154
        15.7504         12.7504
  24514082.0474    -969210.60544   -704052.24843                  24514094.4494
         6.5004          3.0004
  21541772.0864   -4914889.70947    266202.89947                  21541776.7734
        22.0004         27.2504
  21024130.9534  -15005570.45647 -11483784.94447                  21024137.0124
        22.5004         27.7504
 00  5 16 16 10 15.0000000  0  7G 2G 4G 5G 7G16G 9G24
  23547014.7194    8953721.26345   4328381.38845                  23547025.8794
         9.7504          5.2504
  20481950.0944   -5338769.79247  -4100232.00847                  20481954.0904
        23.5004         28.5004
  22777593.4534  -10412283.78946  -7946975.15145                  22777599.0554
        12.5004          9.0004
  22789513.8914    8728576.20846   6775268.03346                  22789520.9734
        16.0004         12.2504
  24513663.6024    -971416.57844   -705771.16643                  24513676.8364
         6.7504          2.5004
  21543851.5784   -4903962.25647    274717.78047                  21543856.1134
        22.2504         27.2504
  21019058.5004  -15032226.32747 -11504555.73247                  21019064.4884
        22.7504         28.2504
 00  5 16 16 10 30.0000000  0  7G 2G 4G 5G 7G16G 9G24
  23554776.6724    8994508.92945   4360163.82745                  23554788.0084
        10.0004          5.2504
  20484129.3054   -5327318.64947  -4091309.03847                  20484133.5234
        23.5004         27.7504
  22770262.0164  -10450811.53046  -7976996.77545                  22770267.8984
        12.7504          8.7504
  22795622.3364    8760676.56346   6800281.22345                  22795629.2664
        16.2504         11.7504
  24513268.3834    -973488.92444   -707385.96443                  24513281.6994
         6.7504          3.0004
  21545959.0004   -4892887.58647    283347.37747                  21545963.4534
        22.0004         27.5004
  21014010.6024  -15058753.77547 -11525226.44547                  21014016.6724
        22.7504         28.2504
 00  5 16 16 10 45.0000000  0  7G 2G 4G 5G 7G16G 9G24
  23562553.1254    9035374.71445   4392007.16145                  23562564.2854
        10.2504          5.5004
  20486337.5634   -5315712.81047  -4082265.52947                  20486341.6884
        23.2504         28.0004
  22762937.1724  -10489303.18846  -8006990.25745                  22762942.3874
        13.5004          9.5004
  22801735.0704    8792799.10846   6825311.71545                  22801741.3634
        16.5004         11.5004
  24512900.0704    -975426.13944   -708895.45443                  24512911.8164
         6.2504          3.0004
  21548094.6804   -4881664.57447    292092.56147                  21548099.2624
        22.0004         27.5004
  21008987.2814  -15085151.41547 -11545796.00947                  21008993.2584
        22.2504         27.5004
 00  5 16 16 11  0.0000000  0  7G 2G 4G 5G 7G16G 9G24
  23570345.0164    9076318.87945   4423911.55945                  23570357.6884
         9.7504          5.5004
  20488575.6174   -5303952.10447  -4073101.34747                  20488579.8834
        23.2504         28.2504
  22755619.4144  -10527758.23146  -8036955.20745                  22755625.0164
        13.7504          9.0004
  22807852.0784    8824944.06346   6850359.68345                  22807858.2304
        16.2504         11.5004
  24512556.7814    -977227.93944   -710299.39343                  24512572.3484
         6.5004          2.7504
  21550258.6564   -4870293.05847    300953.46447                  21550263.3674
        22.2504         28.2504
  21003988.7814  -15111418.63047 -11566263.93947                  21003994.8754
        22.0004         27.2504
 00  5 16 16 11 15.0000000  0  7G 2G 4G 5G 7G16G 9G24
  23578151.1254    9117340.64745   4455876.40945                  23578163.8444
         9.2504          5.0004
  20490843.0234   -5292037.33647  -4063817.11347                  20490847.5004
        23.5004         28.2504
  22748308.6254  -10566176.95046  -8066891.86745                  22748314.0164
        13.7504          9.5004
  22813973.3134    8857110.75846   6875424.56545                  22813980.2664
        16.0004         11.7504
  24512240.0704    -978894.56544   -711598.02743                  24512255.1334
         6.7504          3.0004
  21552450.8834   -4858773.79047    309929.49747                  21552455.6174
        22.2504         27.7504
  20999014.9614  -15137556.01547 -11586630.71247                  20999020.8324
        22.2504         27.7504
 00  5 16 16 11 30.0000000  0  7G 2G 4G 5G 7G16G 9G24
  23585971.6884    9158438.33345   4487900.43045                  23585983.7504
         9.0004          4.7504
  20493139.0554   -5279970.34247  -4054414.26347                  20493143.4614
        23.5004         28.5004
  22741004.0704  -10604560.82846  -8096801.36045                  22741009.2034
        13.2504          9.5004
  22820098.4924    8889297.48646   6900505.06045                  22820106.1954
        15.5004         11.5004
  24511948.3134    -980427.63544   -712792.59943                  24511960.7274
         7.0004          3.2504
  21554670.4304   -4847108.60547    319019.22647                  21554675.2114
        22.2504         28.0004
  20994065.7584  -15163564.99947 -11606897.42947                  20994071.8054
        22.2504         27.7504
 00  5 16 16 11 45.0000000  0  7G 2G 4G 5G 7G16G 9G24
  23593807.4384    9199614.28045   4519985.41845                  23593819.1954
         9.0004          5.0004
  20495464.7114   -5267748.73047  -4044890.93047                  20495469.1644
        22.7504         28.0004
  22733707.6024  -10642907.26646  -8126681.69045                  22733713.4614
        13.2504          9.2504
  22826227.3364    8921506.58546   6925602.98345                  22826234.5004
        15.5004         11.2504
  24511681.6564    -981824.62444   -713881.09544                  24511696.3914
         6.7504          3.5004
  21556918.6884   -4835295.13647    328224.50647                  21556923.6804
        22.2504         28.0004
  20989141.1024  -15189443.03947 -11627062.10847                  20989147.0554
        22.5004         28.2504
 00  5 16 16 12  0.0000000  0  7G 2G 4G 5G 7G16G 9G24
  23601658.5164    9240870.57245   4552133.04745                  23601669.7234
         9.0004          5.2504
  20497820.3984   -5255370.34447  -4035245.44147                  20497824.9344
        22.7504         28.2504
  22726417.9224  -10681213.80246  -8156530.92845                  22726423.5474
        13.5004          9.5004
  22832361.3444    8953740.17946   6950719.99045                  22832367.9654
        15.7504         11.2504
  24511441.5704    -983083.03444   -714861.67643                  24511454.7814
         6.7504          2.7504
  21559195.4144   -4823331.27447    337546.97047                  21559200.2894
        22.0004         27.5004
  20984242.2664  -15215187.78447 -11647122.93247                  20984248.1954
        22.2504         28.2504
 00  5 16 16 12 15.0000000  0  7G 2G 4G 5G 7G16G 9G24
  23609524.2274    9282205.13045   4584341.65345                  23609535.9384
         9.0004          5.2504
  20500205.2424   -5242837.67147  -4025479.72047                  20500209.3794
        23.0004         27.7504
  22719135.5004  -10719482.27546  -8186350.50045                  22719140.9144
        13.7504          9.5004
  22838499.8754    8985996.20646   6975854.48445                  22838506.0864
        16.2504         11.2504
  24511228.8364    -984204.84445   -715735.77743                  24511241.7664
         7.5004          3.0004
  21561500.0554   -4811219.17647    346984.94947                  21561504.9654
        22.2504         28.0004
  20979368.0314  -15240800.96947 -11667081.23147                  20979374.1024
        22.2504         28.0004
 00  5 16 16 12 30.0000000  0  7G 2G 4G 5G 7G16G 9G24
  23617403.8754    9323614.79845   4616608.75845                  23617417.0044
         8.5004          4.7504
  20502618.9924   -5230153.67847  -4015596.09647                  20502623.1054
        23.5004         27.7504
  22711859.9064  -10757715.46946  -8216142.59145                  22711865.4144
        13.7504         10.0004
  22844641.3594    9018271.58946   7001004.05745                  22844648.2664
        16.2504         11.2504
  24511041.3754    -985193.02945   -716505.75143                  24511055.7234
         7.7504          2.7504
  21563832.6094   -4798961.98147    356535.98847                  21563837.3554
        22.5004         28.0004
  20974518.3524  -15266285.49847 -11686939.28747                  20974524.2344
        22.2504         28.0004
 00  5 16 16 12 45.0000000  0  7G 2G 4G 5G 7G16G 9G24
  23625299.3364    9365103.37845   4648937.36045                  23625312.9694
         8.7504          4.5004
  20505062.3834   -5217314.74347  -4005591.74047                  20505066.7304
        23.2504         28.2504
  22704592.1954  -10795909.27846  -8245903.98545                  22704597.6454
        14.0004         10.0004
  22850787.6484    9050570.23746   7026171.76245                  22850794.5314
        15.7504         11.2504
  24510878.9774    -986043.33245   -717168.33343                  24510892.9494
         8.0004          3.0004
  21566193.6414   -4786555.91447    366203.03447                  21566198.7154
        22.0004         28.0004
  20969694.3834  -15291637.34747 -11706693.96147                  20969700.2894
        22.7504         28.2504
 00  5 16 16 13  0.0000000  0  7G 2G 4G 5G 7G16G 9G24
  23633209.3364    9406669.37745   4681326.29045                  23633220.7544
         9.5004          4.5004
  20507534.6024   -5204322.32947  -3995467.78547                  20507539.0204
        23.0004         28.0004
  22697331.0314  -10834064.90546  -8275635.62845                  22697336.4694
        13.7504         10.0004
  22856938.3134    9082890.53346   7051356.33045                  22856945.0514
        15.7504         11.0004
  24510743.0864    -986757.05045   -717724.45243                  24510756.2504
         8.5004          3.2504
  21568582.4614   -4774002.49247    375984.89247                  21568587.4304
        22.2504         28.2504
  20964894.7974  -15316857.72747 -11726346.18047                  20964900.7734
        22.2504         28.2504
 00  5 16 16 13 15.0000000  0  7G 2G 4G 5G 7G16G 9G24
  23641134.5394    9448314.84945   4713777.17044                  23641147.2114
         9.2504          4.0004
  20510036.5634   -5191174.53547  -3985222.75747                  20510040.9224
        23.5004         28.0004
  22690078.2424  -10872180.05446  -8305335.72845                  22690084.0434
        14.0004          9.7504
  22863093.0314    9115234.60446   7076559.42045                  22863100.6414
        15.2504         11.7504
  24510633.8674    -987332.10345   -718172.54243                  24510647.4534
         8.2504          3.2504
  21570999.7034   -4761299.83647    385883.04447                  21571004.9534
        22.0004         28.2504
  20960121.1334  -15341944.31447 -11745894.14847                  20960127.1214
        22.5004         28.5004
 00  5 16 16 13 30.0000000  0  7G 2G 4G 5G 7G16G 9G24
  23649074.0394    9490038.96745   4746289.29045                  23649086.2304
         8.7504          4.7504
  20512567.7814   -5177872.37647  -3974857.44647                  20512572.1524
        23.0004         28.0004
  22682832.7114  -10910255.18646  -8335004.65145                  22682837.9844
        13.7504         10.5004
  22869252.5784    9147601.68446   7101780.43845                  22869259.5554
        15.7504         11.5004
  24510551.0234    -987769.06245   -718512.99844                  24510564.8914
         8.7504          3.5004
  21573445.1644   -4748448.67647    395896.91147                  21573450.1804
        22.2504         28.5004
  20955372.4534  -15366897.74347 -11765338.35947                  20955378.3834
        23.0004         28.2504
 00  5 16 16 13 45.0000000  0  7G 2G 4G 5G 7G16G 9G24
  23657028.4694    9531838.58645   4778860.26644                  23657041.3054
         8.5004          4.2504
  20515127.7974   -5164418.94547  -3964374.25847                  20515132.1804
        23.2504         27.7504
  22675594.0704  -10948293.18146  -8364644.62345                  22675599.6604
        13.7504          9.7504
  22875415.6724    9179988.59046   7127016.90945                  22875422.5434
        15.7504         11.2504
  24510493.3594    -988070.81345   -718748.10444                  24510508.3874
         9.2504          3.7504
  21575918.1884   -4735452.25547    406023.97347                  21575923.1454
        22.0004         28.0004
  20950648.9144  -15391720.96147 -11784681.10947                  20950654.8674
        22.7504         28.7504
 00  5 16 16 14  0.0000000  0  7G 2G 4G 5G 7G16G 9G24
  23664997.5394    9573714.80845   4811490.91444                  23665010.8094
         8.2504          4.2504
  20517717.0084   -5150813.27747  -3953772.44247                  20517721.0634
        23.7504         28.2504
  22668363.2664  -10986292.58746  -8394254.54545                  22668369.1954
        13.7504         10.0004
  22881582.7194    9212396.48046   7152269.72045                  22881589.2934
        15.7504         11.7504
  24510461.7504    -988235.87145   -718876.74144                  24510474.5394
         9.2504          3.7504
  21578419.0314   -4722309.45047    416265.08747                  21578423.7544
        22.2504         28.2504
  20945950.0944  -15416412.46347 -11803921.21847                  20945956.0124
        22.7504         28.5004
 00  5 16 16 14 15.0000000  0  7G 2G 4G 5G 7G16G 9G24
  23672980.1884    9615667.16545   4844180.89844                  23672992.4734
         8.0004          4.2504
  20520334.9454   -5137055.99147  -3943052.49247                  20520338.5554
        24.2504         28.5004
  22661139.3984  -11024253.65246  -8423834.56945                  22661145.1644
        13.2504         10.0004
  22887753.5314    9244824.92446   7177538.56945                  22887760.9534
        15.7504         11.7504
  24510456.6564    -988264.84445   -718899.30043                  24510470.6294
         9.5004          3.0004
  21580947.9144   -4709020.82547    426619.83947                  21580952.7664
        21.5004         27.7504
  20941276.6564  -15440972.74947 -11823059.08447                  20941282.5394
        23.0004         28.7504
 00  5 16 16 14 30.0000000  0  7G 2G 4G 5G 7G16G 9G24
  23680979.0164    9657697.79945   4876931.88145                  23680992.0984
         8.7504          4.7504
  20522982.1884   -5123144.82747  -3932212.63347                  20522986.0204
        23.5004         28.5004
  22653923.5234  -11062173.76746  -8453382.68645                  22653929.2664
        13.2504          9.7504
  22893929.2274    9277276.23046   7202825.21545                  22893936.3554
        15.5004         11.7504
  24510477.7814    -988155.05445   -718813.73643                  24510491.1094
        10.0004          3.0004
  21583505.0004   -4695584.23047    437089.88047                  21583510.1564
        22.2504         27.2504
  20936628.3284  -15465399.09647 -11842092.57547                  20936634.3634
        23.0004         28.5004
 00  5 16 16 14 45.0000000  0  7G 2G 4G 5G 7G16G 9G24
  23688992.7504    9699807.36245   4909744.36045                  23689005.2584
         9.5004          5.2504
  20525658.8134   -5109079.32547  -3921252.50647                  20525662.9494
        23.5004         27.7504
  22646715.4384  -11100052.02546  -8482898.19945                  22646721.2734
        13.2504         10.0004
  22900108.5234    9309751.01346   7228130.15546                  22900116.0514
        15.5004         12.0004
  24510524.6414    -987905.72345   -718619.45843                  24510538.2504
         9.0004          2.7504
  21586090.0084   -4681999.06747    447675.69947                  21586094.9534
        22.0004         27.5004
  20932005.7274  -15489690.74747 -11861021.11647                  20932011.7504
        22.5004         28.7504
 00  5 16 16 15  0.0000000  0  7G 2G 4G 5G 7G16G 9G24
  23697020.3754    9741992.57545   4942615.80745                  23697032.5084
         9.7504          5.2504
  20528364.0314   -5094862.80947  -3910174.71147                  20528368.1684
        23.5004         27.7504
  22639514.4924  -11137891.50446  -8512383.48545                  22639520.3874
        13.2504         10.0004
  22906292.2584    9342245.88846   7253450.75246                  22906299.8444
        15.5004         12.2504
  24510597.6094    -987519.80645   -718318.70243                  24510611.1134
         9.0004          2.5004
  21588702.8984   -4668268.78347    458374.59447                  21588707.6684
        22.0004         27.5004
  20927408.1564  -15513850.77447 -11879847.09247                  20927414.0744
        22.7504         28.5004
 00  5 16 16 15 15.0000000  0  7G 2G 4G 5G 7G16G 9G24
  23705062.8364    9784254.71045   4975547.18445                  23705074.9454
         9.7504          5.5004
  20531098.2894   -5080494.02247  -3898978.26447                  20531102.5554
        23.5004         27.7504
  22632321.4694  -11175690.60446  -8541837.32245                  22632327.2114
        13.0004          9.5004
  22912479.9144    9374762.33446   7278788.15246                  22912487.1954
        15.2504         12.2504
  24510697.8594    -986996.07945   -717910.60443                  24510710.8014
         8.2504          2.7504
  21591343.5394   -4654392.09047    469187.56947                  21591348.4964
        21.7504         26.7504
  20922835.9774  -15537877.65747 -11898569.32447                  20922841.9884
        22.7504         28.5004
 00  5 16 16 15 30.0000000  0  7G 2G 4G 5G 7G16G 9G24
  23713119.1724    9826591.94345   5008537.09245                  23713131.3634
         9.7504          5.5004
  20533861.3914   -5065974.95747  -3887664.71647                  20533865.5634
        23.2504         28.0004
  22625135.9614  -11213450.71346  -8571260.75345                  22625142.1134
        13.2504          9.7504
  22918671.3674    9407298.64846   7304141.04245                  22918678.8014
        14.7504         11.5004
  24510823.5864    -986335.88645   -717396.16742                  24510837.4884
         8.0004          2.2504
  21594011.7894   -4640370.70247    480113.29747                  21594016.8404
        22.0004         26.7504
  20918288.8054  -15561772.85847 -11917188.94447                  20918294.8524
        22.5004         28.0004
 00  5 16 16 15 45.0000000  0  7G 2G 4G 5G 7G16G 9G24
  23721190.8594    9869006.31145   5041587.08645                  23721203.3914
         9.2504          5.5004
  20536653.0944   -5051303.70547  -3876232.58247                  20536657.1844
        23.2504         27.7504
  22617958.2584  -11251169.56346  -8600652.04545                  22617964.1524
        12.5004          9.5004
  22924867.1644    9439856.71846   7329510.87845                  22924874.1294
        14.7504         11.2504
  24510975.0314    -985537.13545   -716773.74142                  24510986.9654
         7.5004          2.2504
  21596707.6644   -4626202.67247    491153.29147                  21596712.6334
        22.0004         27.0004
  20913767.4774  -15585534.29447 -11935704.33047                  20913773.5704
        22.5004         28.2504
 00  5 16 16 16  0.0000000  0  7G 2G 4G 5G 7G16G 9G24
  23729276.1804    9911497.12345   5074696.64345                  23729288.9224
         9.7504          5.0004
  20539473.4924   -5036481.06047  -3864682.48447                  20539477.6524
        23.0004         27.2504
  22610788.6564  -11288847.34846  -8630011.35245                  22610794.1884
        12.0004          9.5004
  22931066.9144    9472436.01646   7354897.25845                  22931074.1024
        14.7504         11.2504
  24511153.5474    -984600.08844   -716043.55142                  24511167.7304
         7.2504          2.2504
  21599431.6334   -4611888.69647    502307.01047                  21599436.4734
        22.0004         26.7504
  20909270.9844  -15609162.09747 -11954115.58347                  20909276.9264
        22.7504         28.5004
 00  5 16 16 16 15.0000000  0  7G 2G 4G 5G 7G16G 9G24
  23737376.5234    9954064.79745   5107866.09545                  23737389.2074
         8.7504          4.7504
  20542323.2424   -5021506.46947  -3853013.98647                  20542327.5314
        22.5004         27.0004
  22603626.3204  -11326483.48946  -8659338.18645                  22603632.4494
        12.2504          9.5004
  22937270.7344    9505036.99646   7380300.52945                  22937277.8524
        15.0004         11.2504
  24511357.5004    -983524.29144   -715205.26743                  24511371.9774
         6.7504          2.5004
  21602183.4534   -4597428.49847    513574.66447                  21602188.2704
        21.2504         26.2504
  20904800.4614  -15632655.83947 -11972422.37647                  20904806.4734
        22.7504         28.7504
 00  5 16 16 16 30.0000000  0  7G 2G 4G 5G 7G16G 9G24
  23745491.4844    9996708.57245   5141094.86244                  23745503.8874
         8.5004          4.0004
  20545201.5004   -5006380.98547  -3841227.89947                  20545205.8714
        22.5004         26.7504
  22596472.4614  -11364078.48946  -8688632.97745                  22596478.1564
        13.0004          9.7504
  22943478.4224    9537658.93146   7405720.12745                  22943485.5864
        14.7504         11.2504
  24511589.3674    -982310.15344   -714259.15342                  24511604.7934
         6.2504          2.0004
  21604962.8914   -4582822.84247    524955.66647                  21604967.7074
        22.0004         25.7504
  20900354.9454  -15656015.89947 -11990625.00547                  20900360.8524
        23.0004         29.0004
 00  5 16 16 16 45.0000000  0  7G 2G 4G 5G 7G16G 9G24
  23753620.8594   10039426.07345   5174381.04744                  23753634.1054
         8.7504          4.2504
  20548108.1954   -4991107.00947  -3829326.11047                  20548112.5554
        23.0004         27.0004
  22589325.7274  -11401634.34746  -8717897.27345                  22589331.0824
        13.2504          9.7504
  22949689.6644    9570299.35846   7431154.14945                  22949697.4614
        14.2504         10.7504
  24511846.6024    -980959.99443   -713207.04842                  24511862.7304
         6.0004          2.0004
  21607769.3444   -4568074.12947    536448.13747                  21607773.9144
        22.0004         26.0004
  20895934.7194  -15679244.51447 -12008725.21147                  20895940.6254
        23.0004         28.7504
 00  5 16 16 17  0.0000000  0  7G 2G 4G 5G 7G16G 9G24
  23761764.3984   10082217.95745   5207725.20944                  23761776.5084
         9.2504          4.2504
  20551043.0944   -4975683.94147  -3817308.14947                  20551047.6054
        23.2504         27.5004
  22582186.6024  -11439150.10846  -8747130.32045                  22582191.4774
        14.0004         10.0004
  22955904.6954    9602959.16246   7456603.24845                  22955912.4224
        14.2504         10.7504
  24512128.7274    -979472.85143   -712048.17142                  24512143.8364
         6.0004          1.7504
  21610603.4384   -4553181.91947    548052.43047                  21610608.2194
        21.7504         25.7504
  20891539.7034  -15702340.71347 -12026722.22547                  20891545.7034
        22.5004         28.7504
 00  5 16 16 17 15.0000000  0  7G 2G 4G 5G 7G16G 9G24
  23769922.1254   10125088.08645   5241130.37144                  23769933.8244
         9.0004          4.2504
  20554006.9384   -4960108.09447  -3805171.13847                  20554011.4144
        23.0004         27.5004
  22575056.5234  -11476621.59546  -8776328.85645                  22575061.9734
        14.2504         10.5004
  22962124.2584    9635642.20846   7482070.46645                  22962131.9494
        14.5004         11.0004
  24512438.9224    -977844.62843   -710779.45742                  24512454.2664
         6.0004          2.0004
  21613465.3914   -4538142.22647    559771.64047                  21613470.0084
        22.0004         26.0004
  20887170.3134  -15725300.44447 -12044612.90347                  20887176.3834
        22.2504         28.0004
 00  5 16 16 17 30.0000000  0  7G 2G 4G 5G 7G16G 9G24
  23778094.1174   10168032.16845   5274593.11844                  23778106.8594
         9.0004          4.0004
  20556999.2584   -4944383.75547  -3792918.41847                  20557003.8054
        22.7504         27.0004
  22567933.3834  -11514052.85546  -8805496.06445                  22567938.3874
        14.7504         10.2504
  22968347.2114    9668344.11646   7507552.39945                  22968354.5164
        14.7504         10.5004
  24512774.6334    -976079.67044   -709404.09042                  24512788.0314
         6.2504          2.2504
  21616354.6484   -4522959.44847    571602.34847                  21616359.3364
        21.7504         25.7504
  20882826.5554  -15748127.86547 -12062400.48447                  20882832.3554
        22.5004         28.2504
 00  5 16 16 17 45.0000000  0  7G 2G 4G 5G 7G16G 9G24
  23786280.2814   10211051.39345   5308114.42644                  23786292.9064
         8.7504          4.2504
  20560020.0394   -4928509.93047  -3780549.22147                  20560024.5984
        22.2504         27.0004
  22560818.3134  -11551442.29746  -8834630.67745                  22560824.1484
        13.7504         10.2504
  22974574.3444    9701066.19146   7533050.03445                  22974581.9654
        15.2504         10.5004
  24513136.8594    -974176.34744   -707920.94342                  24513151.7114
         6.2504          2.2504
  21619271.1024   -4507632.48847    583545.39846                  21619275.9654
        21.5004         25.5004
  20878507.9774  -15770821.44547 -12080083.77347                  20878513.9534
        22.7504         28.2504
 00  5 16 16 18  0.0000000  0  7G 2G 4G 5G 7G16G 9G24
  23794480.4614   10254144.63245   5341693.40744                  23794493.9304
         7.7504          3.7504
  20563068.7504   -4912487.84947  -3768064.48747                  20563073.5554
        22.7504         27.2504
  22553711.0164  -11588790.68246  -8863733.30745                  22553717.0394
        13.5004         10.5004
  22980804.7974    9733807.40046   7558562.59145                  22980812.3364
        15.0004         10.5004
  24513525.6644    -972135.56344   -706330.66743                  24513538.5944
         6.5004          3.0004
  21622215.0944   -4492162.45347    595599.94047                  21622220.1334
        21.5004         25.7504
  20874215.0784  -15793382.04547 -12097663.45347                  20874220.9614
        22.2504         28.0004
 00  5 16 16 18 15.0000000  0  7G 2G 4G 5G 7G16G 9G24
  23802695.5004   10297313.49445   5375331.29944                  23802708.8754
         7.7504          4.2504
  20566146.2974   -4896315.79047  -3755462.89647                  20566151.0314
        23.0004         27.2504
  22546612.5634  -11626095.99246  -8892802.37045                  22546618.3634
        13.7504         10.7504
  22987039.3204    9766569.46346   7584091.37745                  22987046.8364
        15.0004         10.5004
  24513939.9064    -969955.37544   -704631.76543                  24513952.5904
         7.0004          3.0004
  21625186.6024   -4476547.74947    607767.20546                  21625191.6054
        21.5004         25.2504
  20869947.3674  -15815807.83447 -12115138.06847                  20869953.3794
        22.2504         28.0004
 00  5 16 16 18 30.0000000  0  7G 2G 4G 5G 7G16G 9G24
  23810924.6024   10340555.96945   5409026.57744                  23810938.2464
         7.7504          4.0004
  20569251.7894   -4879995.98047  -3742746.17847                  20569256.4064
        23.5004         27.7504
  22539521.2664  -11663359.93646  -8921839.18645                  22539527.2304
        13.7504         10.7504
  22993277.5004    9799350.34546   7609634.84945                  22993285.2154
        14.7504         10.2504
  24514381.1334    -967637.84944   -702825.87944                  24514395.9264
         7.2504          3.5004
  21628184.9384   -4460790.45147    620045.58946                  21628189.6374
        21.5004         25.5004
  20865705.3134  -15838100.55147 -12132508.99847                  20865711.2424
        22.5004         27.7504
 00  5 16 16 18 45.0000000  0  7G 2G 4G 5G 7G16G 9G24
  23819168.2664   10383874.61845   5442781.20544                  23819181.5704
         7.7504          4.0004
  20572386.0234   -4863525.93647  -3729912.39447                  20572390.7234
        23.0004         27.7504
  22532438.4614  -11700579.62946  -8950841.53245                  22532444.1684
        14.0004         11.2504
  22999519.9064    9832152.72846   7635195.06645                  22999527.3164
        15.0004         10.0004
  24514848.5474    -965180.00845   -700910.61344                  24514862.3794
         8.2504          3.5004
  21631211.1954   -4444888.12147    632436.98446                  21631216.0704
        22.0004         25.2504
  20861488.8134  -15860257.42547 -12149774.07847                  20861494.7544
        22.5004         28.2504
 00  5 16 16 19  0.0000000  0  7G 2G 4G 5G 7G16G 9G24
  23827425.6804   10427268.30745   5476594.30244                  23827438.2234
         7.7504          4.0004
  20575548.7344   -4846906.78547  -3716962.41947                  20575553.4344
        22.7504         27.7504
  22525364.2664  -11737755.96346  -8979810.07745                  22525369.5044
        14.2504         11.5004
  23005765.3364    9864975.47646   7660771.15345                  23005772.3134
        15.2504         10.0004
  24515342.2274    -962582.90445   -698886.87943                  24515354.2774
         8.5004          3.2504
  21634264.6644   -4428841.90047    644940.50246                  21634269.6214
        21.5004         25.0004
  20857298.3444  -15882279.28447 -12166933.95347                  20857304.2504
        22.7504         28.7504
 00  5 16 16 19 15.0000000  0  7G 2G 4G 5G 7G16G 9G24
  23835697.8594   10470737.21645   5510465.98944                  23835709.8984
         7.7504          3.5004
  20578739.6174   -4830138.68747  -3703896.37947                  20578744.3984
        23.0004         27.2504
  22518298.1024  -11774888.38046  -9008744.41545                  22518303.7974
        14.0004         11.5004
  23012015.5164    9897818.84746   7686363.31445                  23012023.7344
        15.0004         10.0004
  24515863.7424    -959846.03545   -696754.22044                  24515876.4734
         8.7504          3.5004
  21637345.6564   -4412651.65647    657556.25146                  21637350.8364
        21.2504         25.2504
  20853133.4774  -15904165.92147 -12183988.45247                  20853139.5474
        22.7504         28.5004
 00  5 16 16 19 30.0000000  0  7G 2G 4G 5G 7G16G 9G24
  23843984.7814   10514282.66245   5544397.34744                  23843996.9964
         8.2504          4.2504
  20581958.9844   -4813220.34747  -3690713.27047                  20581963.3794
        23.5004         28.0004
  22511240.6804  -11811975.22346  -9037643.24045                  22511246.2114
        14.2504         11.5004
  23018269.3524    9930684.20046   7711972.60145                  23018276.8204
        14.7504          9.7504
  24516411.2734    -956968.14045   -694511.62444                  24516424.8244
         9.2504          3.5004
  21640454.0314   -4396316.10347    670285.21046                  21640459.3054
        21.2504         25.2504
  20848994.5704  -15925915.58147 -12200936.22147                  20849000.4774
        22.7504         28.7504
 00  5 16 16 19 45.0000000  0  7G 2G 4G 5G 7G16G 9G24
  23852284.6414   10557901.01245   5578385.49344                  23852297.1254
         7.7504          3.7504
  20585206.4614   -4796155.33947  -3677415.87547                  20585210.5864
        23.7504         28.5004
  22504191.2194  -11849019.77546  -9066509.11645                  22504196.8914
        14.2504         11.7504
  23024527.1724    9963568.02246   7737596.28445                  23024534.6174
        14.5004         10.0004
  24516985.6484    -953952.36645   -692161.66244                  24516998.9414
         9.0004          3.7504
  21643589.6804   -4379839.02947    683124.45647                  21643594.8954
        21.5004         25.7504
  20844881.1254  -15947531.70147 -12217779.92847                  20844887.0904
        22.5004         28.2504
 00  5 16 16 20  0.0000000  0  7G 2G 4G 5G 7G16G 9G24
  23860599.3204   10601595.41445   5612432.92344                  23860612.4844
         7.5004          3.5004
  20588482.3594   -4778940.59647  -3664001.80847                  20588486.4384
        23.7504         28.2504
  22497150.5554  -11886018.49346  -9095339.27346                  22497156.3324
        14.7504         12.0004
  23030788.7504    9996473.51046   7763236.82745                  23030796.4064
        14.0004          9.2504
  24517586.2424    -950795.31745   -689701.58544                  24517599.3014
         9.2504          3.7504
  21646752.6884   -4363217.27147    696076.44247                  21646757.9144
        21.5004         25.7504
  20840793.8134  -15969010.83947 -12234516.90447                  20840799.8014
        22.7504         28.7504
 00  5 16 16 20 15.0000000  0  7G 2G 4G 5G 7G16G 9G24
  23868928.0944   10645364.30244   5646538.37344                  23868941.4924
         7.0004          3.7504
  20591786.3754   -4761577.90247  -3650472.45147                  20591790.5594
        23.2504         28.0004
  22490118.5234  -11922972.72746  -9124134.76546                  22490124.3244
        14.7504         12.0004
  23037054.6414   10029399.09746   7788893.04445                  23037061.8284
        14.2504          9.2504
  24518213.3984    -947498.50845   -687132.59144                  24518226.7154
         9.5004          3.5004
  21649942.9224   -4346452.52747    709139.84047                  21649948.2424
        21.0004         26.2504
  20836732.3204  -15990354.44047 -12251148.26547                  20836738.2624
        22.7504         28.5004
 00  5 16 16 20 30.0000000  0  7G 2G 4G 5G 7G16G 9G24
  23877270.9614   10689206.55044   5680700.98444                  23877284.9804
         7.0004          3.5004
  20595118.2814   -4744068.44147  -3636828.72747                  20595122.8984
        23.0004         28.0004
  22483094.9064  -11959883.31546  -9152896.25445                  22483100.7074
        14.7504         11.7504
  23043323.5864   10062343.73546   7814564.10345                  23043331.2664
        13.7504          9.0004
  24518867.4144    -944062.78745   -684455.35443                  24518880.0514
         9.0004          3.0004
  21653160.2734   -4329545.98747    722313.72347                  21653165.5004
        21.0004         26.0004
  20832696.4774  -16011563.28347 -12267674.61547                  20832702.5474
        22.7504         29.0004
 00  5 16 16 20 45.0000000  0  7G 2G 4G 5G 7G16G 9G24
  23885627.9454   10733118.28645   5714917.75244                  23885642.3754
         7.5004          3.5004
  20598477.3984   -4726416.25547  -3623073.79247                  20598481.9574
        23.0004         27.5004
  22476078.5704  -11996753.79946  -9181626.48746                  22476083.6804
        15.0004         12.7504
  23049595.8914   10095303.62046   7840247.04345                  23049603.3594
        13.7504          9.0004
  24519546.5704    -940492.00745   -681672.91843                  24519559.4414
         8.7504          2.7504
  21656403.9384   -4312501.56647    735595.05147                  21656409.1884
        21.7504         26.2504
  20828685.3364  -16032641.15347 -12284098.91047                  20828691.2894
        22.5004         29.0004
 00  5 16 16 21  0.0000000  0  7G 2G 4G 5G 7G16G 9G24
  23893998.2504   10777103.66345   5749191.89644                  23894012.4224
         7.7504          3.5004
  20601864.3524   -4708617.18147  -3609204.40047                  20601868.8284
        23.5004         27.7504
  22469071.1094  -12033579.58946  -9210321.89646                  22469076.6644
        15.0004         12.2504
  23055871.8984   10128282.99446   7865945.17845                  23055880.2114
        13.2504          9.5004
  24520253.0234    -936781.68145   -678781.70843                  24520266.5044
         8.5004          2.7504
  21659674.1884   -4295314.98547    748987.15847                  21659679.6134
        21.7504         26.5004
  20824700.2194  -16053583.47947 -12300417.58747                  20824706.2074
        23.0004         28.7504
 00  5 16 16 21 15.0000000  0  7G 2G 4G 5G 7G16G 9G24
  23902382.5784   10821163.92145   5783524.38044                  23902396.5394
         8.2504          3.5004
  20605279.4924   -4690670.08147  -3595219.66447                  20605283.8984
        23.0004         27.7504
  22462071.8134  -12070359.04946  -9238981.21046                  22462077.2154
        15.0004         12.2504
  23062151.4614   10161283.18746   7891659.52745                  23062159.7734
        13.0004          9.0004
  24520986.0634    -932930.34145   -675780.61943                  24520999.0634
         7.7504          2.5004
  21662972.0234   -4277985.10247    762490.91847                  21662977.2854
        21.0004         26.7504
  20820741.0394  -16074388.92047 -12316629.60447                  20820747.0044
        23.0004         28.2504
 00  5 16 16 21 30.0000000  0  7G 2G 4G 5G 7G16G 9G24
  23910782.2814   10865299.60245   5817915.62444                  23910793.6644
         8.5004          3.5004
  20608723.1174   -4672574.47147  -3581119.20947                  20608727.4064
        23.0004         27.0004
  22455081.9304  -12107091.33846  -9267603.74845                  22455087.5904
        15.0004         11.7504
  23068435.3444   10194304.75946   7917390.52945                  23068443.5394
        13.0004          8.7504
  24521745.1484    -928937.33745   -672669.14342                  24521757.9964
         7.7504          2.2504
  21666297.0784   -4260511.57747    776106.59947                  21666302.6564
        21.2504         26.5004
  20816807.8914  -16095056.72547 -12332734.36747                  20816813.8094
        22.7504         28.5004
 00  5 16 16 21 45.0000000  0  7G 2G 4G 5G 7G16G 9G24
  23919194.6644   10909507.85545   5852363.44344                  23919206.6334
         8.7504          3.7504
  20612194.3204   -4654333.38947  -3566905.40047                  20612198.6094
        22.7504         27.5004
  22448100.2504  -12143778.93546  -9296191.48246                  22448105.8404
        15.5004         12.0004
  23074722.4614   10227345.02146   7943136.10645                  23074730.5394
        13.0004          8.2504
  24522531.9064    -924805.10345   -669449.18542                  24522546.1134
         7.5004          2.0004
  21669649.1954   -4242897.24647    789832.01347                  21669654.6334
        21.7504         27.0004
  20812900.8594  -16115589.35947 -12348733.80047                  20812906.7894
        22.7504         29.0004
 00  5 16 16 22  0.0000000  0  7G 2G 4G 5G 7G16G 9G24
  23927619.8444   10953784.69645   5886864.70844                  23927633.0314
         8.5004          3.5004
  20615692.2194   -4635950.89447  -3552581.39947                  20615696.6374
        22.7504         27.2504
  22441126.8914  -12180425.60946  -9324747.32146                  22441132.2584
        15.5004         12.0004
  23081012.7974   10260399.96246   7968893.11645                  23081020.5124
        13.0004          8.7504
  24523343.9774    -920537.57144   -666123.83142                  24523357.2584
         6.2504          2.2504
  21673026.9454   -4225146.18947    803663.96947                  21673032.1954
        21.7504         27.5004
  20809018.5394  -16135990.69147 -12364630.92647                  20809024.4224
        23.0004         28.5004
 00  5 16 16 22 15.0000000  0  7G 2G 4G 5G 7G16G 9G24
  23936060.1484   10998138.81244   5921426.16644                  23936072.9734
         7.2504          3.7504
  20619219.0234   -4617418.40447  -3538140.51847                  20619223.4184
        22.2504         27.0004
  22434162.7194  -12217022.24946  -9353264.16346                  22434167.8874
        15.5004         12.0004
  23087307.4844   10293478.36846   7994668.41245                  23087315.7034
        13.0004          9.0004
  24524182.6724    -916125.83243   -662686.00842                  24524197.3834
         5.7504          2.0004
  21676432.5704   -4207249.68547    817609.25847                  21676437.9024
        21.2504         27.5004
  20805162.9694  -16156251.82947 -12380418.81247                  20805168.8754
        23.0004         28.2504
 00  5 16 16 22 30.0000000  0  7G 2G 4G 5G 7G16G 9G24
  23944514.6484   11042565.75444   5956044.38243                  23944528.7734
         7.0004          3.2504
  20622773.2274   -4598740.47947  -3523586.30547                  20622777.5864
        22.7504         27.0004
  22427207.3054  -12253572.98346  -9381745.24446                  22427212.6724
        15.2504         12.0004
  23093605.6724   10326575.85646   8020458.57945                  23093613.9964
        13.0004          9.0004
  24525049.7274    -911574.27944   -659139.31542                  24525065.0004
         6.5004          1.7504
  21679865.0004   -4189212.34647    831664.28747                  21679870.4384
        21.2504         27.0004
  20801333.3284  -16176376.92647 -12396100.68647                  20801339.3164
        22.7504         28.2504
 00  5 16 16 22 45.0000000  0  7G 2G 4G 5G 7G16G 9G24
  23952982.6804   11087064.86345   5990718.81344                  23952998.6334
         7.5004          3.5004
  20626355.1334   -4579917.74547  -3508919.26347                  20626359.5394
        22.7504         26.7504
  22420260.6094  -12290078.04046  -9410190.73246                  22420265.9534
        15.0004         12.0004
  23099908.1334   10359691.87746   8046263.17645                  23099916.0594
        13.7504          9.0004
  24525941.8674    -906883.28244   -655483.94942                  24525955.3834
         6.5004          2.2504
  21683324.3444   -4171034.88047    845828.51347                  21683329.8634
        21.2504         27.0004
  20797529.4384  -16196366.42547 -12411676.89247                  20797535.5084
        22.5004         28.2504
